GFSGBSN_2pvu_pres_000.txt.gz
Presure
210 170 187 196 203 190 156 207 206 215 217 210 255 242 234 237 241 246 246 254 273 298 389 373 403 430 335 222 309 210 201 185 190 186 194 165 198 172 197 165 166 97 168 90 119 85 85
168 198 187 192 190 185 204 202 206 214 202 203 251 239 234 237 251 244 242 252 282 302 382 373 425 423 391 230 242 220 209 194 175 187 190 190 110 190 194 182 84 203 187 85 95 95 83
181 192 195 185 187 187 151 198 207 211 199 218 243 232 246 242 231 238 264 267 281 306 386 395 406 426 409 360 248 248 212 200 179 172 185 195 185 95 186 196 199 198 189 191 187 190 104
184 192 195 187 184 187 207 196 207 198 203 223 249 236 241 230 239 248 262 269 279 306 377 428 396 400 391 386 249 288 218 205 191 177 185 196 193 182 87 168 162 190 198 193 145 110 194
202 189 194 186 183 187 208 198 206 192 201 224 246 240 233 256 238 254 260 267 282 290 370 430 395 386 436 213 247 272 220 213 195 189 178 184 193 181 193 99 188 190 181 190 182 94 152
186 190 194 190 182 198 207 202 204 194 204 218 244 239 232 211 244 254 256 267 278 305 366 422 404 408 428 354 99 256 231 217 196 191 189 174 191 178 189 182 130 180 179 181 175 192 157
184 186 193 186 189 196 205 204 194 195 206 227 238 237 229 244 236 251 253 262 278 307 375 361 304 406 392 348 263 242 252 189 198 199 190 178 178 183 183 191 186 190 177 187 179 184 127
199 190 190 188 189 188 205 203 192 197 211 232 161 238 231 241 233 244 250 259 276 306 362 370 420 414 390 339 137 197 138 221 209 198 191 185 102 170 176 178 190 189 195 185 187 200 184
190 186 190 187 154 201 206 199 189 197 214 240 233 234 233 233 243 240 249 265 284 308 355 387 405 444 379 306 265 221 279 221 175 205 200 86 168 163 176 162 182 193 181 194 206 171 176
199 183 190 184 153 201 205 192 191 196 213 254 227 245 233 231 234 231 250 269 286 324 366 358 397 420 98 120 83 190 307 223 211 198 200 178 98 179 113 183 182 183 176 197 131 117 175
200 184 192 183 157 202 205 186 190 197 213 250 218 232 230 231 226 235 240 257 291 338 346 358 468 420 409 256 246 92 273 221 206 207 197 157 185 96 174 181 187 182 175 93 177 169 205
193 183 200 186 189 204 204 188 186 198 215 245 180 228 227 226 227 237 244 262 293 359 352 364 461 468 251 253 255 190 299 153 213 207 203 185 188 194 183 175 178 182 179 175 152 185 169
179 183 203 190 195 204 204 185 192 204 219 247 219 233 228 223 226 231 242 263 299 321 381 411 511 461 231 242 257 223 216 238 216 114 151 195 189 194 193 76 185 183 188 182 179 189 170
224 198 201 192 196 206 204 187 195 206 220 249 227 233 227 220 226 231 242 261 314 380 392 464 520 339 236 258 255 213 304 259 222 211 192 156 184 199 86 184 174 166 97 166 175 156 169
229 197 199 192 195 206 202 187 195 210 219 253 228 231 228 219 226 234 242 253 306 387 411 470 253 243 249 252 218 215 207 303 226 215 203 196 151 174 194 191 187 172 179 183 178 193 180
217 203 196 192 196 206 200 186 195 214 224 255 225 225 213 227 225 231 240 188 298 231 206 242 231 210 225 264 284 216 205 218 301 223 206 195 165 160 183 180 177 179 183 173 149 180 171
187 189 196 193 201 206 198 189 194 214 218 262 227 220 222 225 220 231 241 251 211 196 193 230 223 232 203 234 236 247 206 214 225 331 225 201 192 179 164 174 172 169 179 180 174 183 169
213 197 194 195 200 206 199 192 196 213 224 260 235 228 229 221 219 225 239 251 203 197 193 189 193 208 237 237 247 256 256 258 202 199 292 206 201 192 184 175 179 180 177 172 165 174 186
219 200 190 195 195 207 201 193 199 214 225 239 239 224 239 230 215 222 234 243 202 196 191 190 186 198 228 235 249 258 263 327 311 216 278 275 203 194 193 191 184 184 191 191 169 193 185
204 202 189 198 178 209 203 194 203 180 224 211 247 226 224 222 221 217 231 235 208 201 194 192 187 194 194 186 232 245 252 254 296 205 242 268 254 205 190 185 193 186 190 180 180 188 178
180 204 191 200 158 207 203 194 204 210 218 179 251 232 219 226 223 219 217 221 233 207 201 198 197 188 187 191 189 218 232 248 255 246 206 237 266 222 202 192 193 193 179 184 187 187 179
204 212 193 192 203 164 204 192 204 213 226 227 173 241 221 219 215 162 229 219 220 238 207 205 196 200 198 197 188 194 198 223 243 246 250 253 289 230 225 212 200 191 195 194 193 196 167
216 206 189 174 155 152 191 199 206 213 171 227 225 250 228 212 220 221 221 215 214 220 230 199 207 199 194 198 202 198 190 179 208 234 239 244 247 244 230 193 197 193 195 189 179 154 184
212 211 198 190 152 159 182 202 203 211 192 174 278 179 230 228 223 219 228 226 224 220 224 223 224 194 207 205 194 192 199 200 191 184 203 223 226 209 205 201 197 200 182 187 150 183 181
201 211 196 193 191 149 204 199 205 208 216 213 183 238 215 234 220 225 220 218 222 110 222 228 225 223 222 223 202 204 202 195 192 194 194 189 182 186 184 183 181 181 187 183 183 186 193
212 209 204 194 203 148 155 217 196 213 210 218 354 189 248 239 231 224 227 211 206 216 207 225 224 226 212 220 227 232 195 195 194 196 196 196 201 196 192 191 188 202 199 196 192 196 203
213 215 202 198 197 184 209 207 206 204 207 214 232 293 201 204 246 226 227 227 227 222 223 218 220 220 229 228 212 217 227 231 227 229 232 217 215 210 199 204 202 205 206 202 203 147 187
239 202 199 205 197 200 184 147 203 207 209 218 218 244 284 195 208 242 231 244 221 225 205 213 100 129 224 219 214 223 227 225 222 216 232 230 225 230 188 223 238 201 170 129 241 131 244
209 217 211 206 218 192 201 196 144 205 206 214 220 217 303 266 238 225 231 237 226 236 228 225 223 207 121 218 217 209 219 215 220 219 133 226 220 148 150 212 217 126 141 222 139 219 139

GFSGBSN_2pvu_pres_006.txt.gz
Presure
216 126 203 208 217 202 208 190 201 225 206 200 188 195 206 189 214 219 208 214 250 241 243 232 231 237 228 236 242 255 260 271 307 215 246 209 200 194 182 190 156 112 107 115 131 210 201
217 219 214 216 202 185 201 206 208 220 203 203 194 193 205 202 221 225 228 215 256 236 230 233 232 232 226 237 258 253 261 282 293 311 225 254 198 193 187 192 108 143 204 215 94 69 139
233 222 222 209 216 201 216 216 205 206 206 202 191 195 189 205 216 208 235 210 240 227 235 232 228 237 239 272 238 238 291 307 273 302 216 241 211 79 82 192 192 186 183 141 80 86 199
233 229 226 218 200 210 211 217 201 212 211 201 183 197 198 203 206 205 216 243 230 231 225 226 225 234 270 280 289 306 329 376 386 322 334 230 258 202 110 127 190 190 190 179 216 88 85
195 150 190 217 174 217 204 208 213 215 204 199 188 196 203 209 187 205 211 241 240 225 234 232 248 261 271 280 289 320 349 386 397 396 361 233 264 209 192 193 156 193 184 171 204 211 145
234 249 163 147 127 139 204 211 222 218 202 174 187 204 196 215 208 234 213 241 226 228 223 239 248 272 273 284 303 335 383 422 420 401 374 242 122 209 195 178 181 186 179 203 195 207 180
244 245 241 233 150 202 215 219 212 205 207 178 158 183 199 212 205 221 238 232 235 232 236 250 246 276 273 300 325 354 402 393 399 437 378 237 271 218 190 179 186 183 187 200 218 209 206
321 247 242 238 216 231 225 220 195 203 211 187 191 201 202 201 204 212 238 233 235 237 248 249 278 274 293 320 334 350 413 395 390 415 373 238 276 215 194 155 186 181 176 196 196 192 196
335 278 161 241 238 231 230 205 213 212 202 194 189 193 205 205 225 213 234 236 236 241 250 256 270 285 319 333 346 271 243 388 373 375 344 177 228 211 195 188 186 170 172 199 200 202 195
296 311 269 242 232 218 232 207 222 215 211 198 191 196 196 204 216 233 235 236 236 240 259 266 275 333 339 341 343 408 399 370 356 360 328 121 102 208 193 190 185 183 182 195 103 194 191
313 304 291 257 244 228 217 209 213 212 204 199 200 202 192 196 209 241 236 232 235 247 251 274 285 359 344 356 355 311 406 363 350 168 247 232 245 93 199 188 185 183 191 185 191 190 196
309 296 289 280 247 243 215 215 218 215 198 177 186 205 193 231 142 239 234 236 238 245 255 278 368 377 366 354 370 332 375 350 347 326 228 268 219 205 126 190 184 191 168 188 193 187 197
313 312 282 297 275 247 229 226 218 206 195 200 199 188 198 218 239 233 238 246 231 231 260 312 364 374 362 349 399 382 360 336 253 243 266 253 220 202 197 194 159 188 171 162 189 187 190
313 310 284 291 286 246 233 222 218 217 200 199 205 199 192 213 240 235 236 246 223 229 256 358 420 405 408 400 363 347 302 328 271 230 263 220 214 205 194 189 185 198 173 189 164 186 182
325 305 297 292 289 240 191 211 218 194 180 199 205 202 202 214 242 236 239 214 224 230 254 375 489 514 445 360 360 345 324 272 236 251 259 227 76 96 196 191 140 165 165 87 145 97 183
227 171 292 291 286 239 191 210 212 201 175 202 206 201 209 217 241 233 240 230 220 228 245 354 470 410 390 367 350 325 308 264 235 247 252 198 210 198 191 197 188 179 184 183 171 180 187
319 293 296 285 244 257 228 204 203 206 200 204 195 196 214 241 240 234 236 205 218 224 224 239 265 389 390 381 330 312 269 184 242 269 237 216 208 197 197 194 161 179 178 174 135 180 174
313 297 287 289 240 244 217 218 203 191 199 205 199 207 218 241 235 237 236 204 218 218 205 214 218 221 232 353 317 235 223 214 178 268 217 208 201 201 196 191 186 191 189 189 181 178 181
302 295 289 282 275 248 233 229 206 163 201 195 200 209 218 247 235 231 230 202 216 217 214 198 208 217 218 240 212 220 215 223 252 257 208 196 197 198 195 200 186 193 181 177 182 178 179
308 289 286 277 237 246 236 232 204 174 205 185 198 210 221 245 237 228 230 201 215 211 222 226 216 197 217 223 233 233 210 213 251 253 205 209 204 202 199 188 148 158 181 165 175 175 185
310 293 290 278 240 254 235 213 205 176 206 206 186 205 220 246 234 232 231 203 195 212 211 224 229 173 234 238 222 218 212 207 249 248 228 208 205 201 201 199 197 188 177 179 182 182 184
304 292 285 284 242 242 216 215 204 176 209 205 172 212 220 242 234 239 230 206 193 211 207 211 221 221 218 231 247 257 208 208 224 306 301 210 203 201 204 196 201 196 183 175 167 177 131
294 294 287 270 253 229 213 215 203 207 212 203 177 213 202 246 236 237 239 231 195 197 202 203 210 213 226 230 237 245 205 213 207 227 333 249 207 204 200 200 196 195 191 180 179 162 161
220 291 282 268 245 240 206 212 213 170 212 202 210 216 218 224 240 235 231 232 226 197 196 192 196 199 211 221 231 245 249 248 213 227 246 326 319 219 207 199 194 192 154 190 188 185 178
307 168 278 276 238 224 189 215 212 162 212 201 208 177 219 207 242 238 231 236 233 232 196 193 192 190 192 205 211 220 244 248 292 242 200 206 283 309 221 215 204 209 208 204 197 195 191
130 136 264 274 232 218 216 216 214 162 163 197 201 201 179 197 250 235 237 232 234 230 240 196 193 192 188 202 198 190 211 215 242 245 300 296 244 199 201 239 210 167 207 207 208 205 201
182 192 254 274 243 226 223 214 212 157 184 202 185 180 209 216 229 244 229 230 229 228 228 231 200 192 193 183 186 183 201 191 202 214 229 243 244 244 257 194 195 195 265 265 261 258 260
298 288 208 275 243 230 212 217 212 155 152 164 207 199 181 190 233 221 232 232 229 229 227 225 230 225 220 204 211 192 190 186 191 188 194 209 220 223 232 229 232 200 245 237 244 240 243
295 297 141 264 247 230 211 215 215 154 213 201 215 202 194 181 247 272 237 226 226 234 227 224 222 225 214 214 212 106 204 207 206 193 200 186 185 188 204 211 215 221 224 215 212 139 222

GFSGBSN_2pvu_pres_009.txt.gz
Presure
251 239 236 220 216 220 217 210 213 187 198 215 219 187 199 217 203 204 199 201 200 177 224 224 214 257 249 247 239 242 246 232 222 249 268 268 215 242 199 166 189 104 113 195 171 199 106
278 246 221 236 229 228 222 219 204 215 207 189 196 181 216 198 196 197 194 194 199 219 209 211 230 252 238 241 236 241 231 232 244 178 194 243 266 224 246 205 195 134 111 119 201 220 135
244 241 150 242 219 228 224 220 214 205 206 177 192 219 212 191 202 192 191 185 195 165 239 207 242 242 237 227 226 228 227 227 240 236 250 192 270 243 225 238 194 189 121 111 96 156 82
216 275 235 247 153 231 158 218 218 221 219 199 203 207 212 218 201 184 188 200 182 209 230 217 249 238 224 227 227 233 234 242 242 249 274 256 285 304 235 242 219 198 200 195 182 107 108
210 238 295 269 233 185 136 180 214 217 206 199 210 212 210 214 198 186 172 196 211 201 219 227 245 226 229 225 228 235 240 251 271 268 254 299 290 289 317 223 252 202 195 188 198 192 134
215 170 199 249 282 244 242 164 230 217 227 215 203 214 204 224 201 193 186 200 213 205 216 242 234 230 227 235 238 253 260 264 282 287 303 310 313 292 316 224 256 170 192 182 185 192 177
211 217 136 211 277 311 257 239 244 213 160 207 196 210 230 194 198 190 194 202 207 223 216 240 232 227 238 244 247 252 274 280 317 315 321 343 359 372 321 238 79 206 196 194 182 189 178
202 222 204 222 220 289 300 248 252 245 197 226 206 218 184 200 203 199 199 208 205 217 242 237 226 232 240 239 253 271 313 336 330 329 342 379 410 394 349 304 238 214 169 191 193 192 185
216 225 194 221 221 270 314 282 240 243 234 227 213 209 211 198 195 195 206 204 218 231 249 233 237 238 234 250 287 312 342 333 336 344 405 404 454 465 350 300 245 205 193 192 194 175 183
226 221 227 237 246 297 300 197 247 246 234 234 221 209 193 205 198 199 203 204 217 246 249 236 230 237 247 267 312 334 346 335 335 355 398 381 376 389 355 300 249 214 193 187 197 183 182
237 236 214 184 284 295 281 299 160 240 248 173 220 214 208 195 198 207 202 220 177 243 240 234 236 250 259 301 324 268 356 98 230 391 393 105 82 350 327 227 252 205 195 185 183 180 182
324 336 390 326 304 298 280 294 278 251 240 219 214 210 203 195 199 205 201 217 242 243 215 235 246 257 268 323 334 346 171 343 417 347 353 285 351 369 336 220 250 206 186 189 183 178 177
265 358 384 360 343 305 241 284 285 254 230 223 222 206 188 186 205 198 206 222 245 219 233 236 248 261 362 383 365 358 345 435 361 343 320 331 356 322 235 169 226 206 174 151 179 175 162
401 356 352 356 364 316 220 279 278 252 238 224 226 213 192 195 205 194 215 241 245 214 225 235 254 318 431 367 361 351 417 342 335 314 321 347 332 257 215 247 212 203 81 137 177 177 181
389 326 323 334 327 320 289 274 275 259 233 216 234 197 197 204 203 205 220 248 215 221 230 242 261 446 433 363 360 373 339 322 330 334 323 317 259 216 210 229 210 203 192 182 162 173 173
364 331 320 322 251 300 286 284 281 274 220 244 204 192 197 203 195 216 238 246 204 210 224 242 275 393 434 385 371 386 346 333 358 316 327 251 217 252 252 217 204 201 121 181 175 121 165
367 328 321 347 350 228 290 281 279 241 192 233 202 191 201 200 201 221 245 241 210 216 203 234 278 378 371 373 349 320 335 336 255 127 144 224 222 198 118 179 204 196 144 182 176 172 172
350 326 324 321 309 301 299 274 291 241 170 206 197 199 203 196 212 226 244 205 211 209 211 193 259 305 373 359 336 328 336 294 274 249 233 217 229 241 213 206 203 197 187 190 173 174 173
329 323 314 323 311 295 289 289 242 242 198 210 192 206 197 202 218 239 241 202 238 207 191 218 229 267 344 373 341 317 292 279 266 144 221 210 249 219 213 198 152 190 186 183 192 175 176
340 333 322 313 301 291 293 278 243 244 184 214 201 205 167 210 220 243 238 200 206 205 191 211 209 223 273 291 293 287 267 257 232 200 258 241 255 214 208 141 109 183 186 156 180 172 183
336 327 327 289 207 292 290 247 250 242 209 207 207 195 204 213 220 240 237 200 220 211 212 208 221 222 220 225 224 235 215 209 205 220 253 254 227 201 202 194 190 167 118 191 177 183 180
332 337 314 308 289 294 274 250 244 219 215 204 208 208 211 216 223 239 238 199 198 203 221 210 215 220 221 230 213 216 210 178 244 237 238 232 212 200 147 194 192 192 118 183 176 179 175
327 333 292 294 297 291 249 248 247 208 213 205 203 200 207 221 225 238 234 198 196 202 210 227 222 220 146 230 231 244 215 221 248 252 248 234 206 198 200 197 195 190 181 158 169 181 182
313 332 316 305 288 267 258 263 236 210 194 212 201 199 201 224 238 234 232 241 198 188 208 216 215 221 225 231 235 238 216 212 210 251 256 266 211 208 195 200 193 186 190 186 187 181 181
307 333 317 302 285 273 246 258 236 203 216 173 204 198 196 194 225 234 231 231 199 195 202 209 208 219 219 238 231 229 243 207 202 211 252 255 238 202 206 200 196 198 197 191 187 192 188
316 314 126 135 157 276 248 255 236 183 214 215 199 208 188 221 206 241 238 235 233 198 193 199 198 201 214 224 236 237 239 240 248 213 201 243 324 238 209 202 198 200 198 198 191 192 193
311 314 176 153 226 271 258 238 227 218 216 166 207 213 216 221 214 250 240 230 230 235 198 194 196 192 194 209 218 225 237 236 281 204 199 207 213 298 317 221 200 198 200 198 197 194 190
312 326 316 231 129 181 263 235 228 203 214 214 203 213 211 222 199 219 246 235 235 232 229 198 193 187 188 194 195 190 218 228 239 239 239 257 201 200 220 296 281 221 210 203 195 183 195
322 325 309 296 278 283 242 232 192 213 217 209 204 165 195 182 180 214 250 244 231 228 231 230 234 152 187 194 188 197 196 198 216 217 242 237 237 231 205 202 204 302 301 270 262 220 145

GFSGBSN_2pvu_pres_012.txt.gz
Presure
220 339 241 288 267 248 235 127 221 219 207 205 211 200 201 182 194 208 210 214 205 215 210 206 193 202 198 222 166 222 272 263 254 267 249 259 269 283 225 234 188 76 199 103 187 176 142
214 214 293 243 290 243 235 229 224 229 226 223 218 222 207 210 209 205 206 194 215 218 207 201 198 193 201 215 224 212 264 254 253 250 256 249 255 261 274 219 237 114 138 206 187 184 103
204 207 214 303 261 293 249 162 226 225 225 225 210 224 217 195 214 197 214 193 217 186 206 199 192 180 202 212 207 220 256 245 243 239 235 237 245 254 258 274 222 241 193 101 206 184 85
219 205 206 211 209 296 285 253 226 184 227 197 220 220 225 218 202 213 200 202 217 201 208 203 181 173 210 208 214 234 251 237 229 232 232 238 245 247 252 264 254 223 249 202 103 203 190
220 220 209 216 193 199 208 273 255 227 231 138 197 230 218 225 218 213 205 201 214 226 206 198 191 199 206 214 213 242 236 234 231 231 235 237 239 245 247 215 268 295 231 235 90 97 205
238 224 190 212 215 204 199 207 203 229 244 125 230 225 232 215 221 190 212 201 213 206 218 188 194 205 202 209 227 238 235 233 231 234 235 237 244 250 260 261 150 296 207 240 202 168 120
241 235 228 221 219 217 222 210 205 204 214 250 254 235 231 232 218 221 206 207 213 221 216 184 198 201 211 220 245 239 231 232 228 229 230 234 249 255 254 263 275 273 297 227 72 201 202
245 204 221 233 213 209 214 194 210 202 209 216 271 268 241 239 233 223 212 207 208 201 199 197 197 207 216 245 245 232 238 230 227 230 238 248 161 311 330 317 303 297 290 236 241 211 204
226 217 225 227 231 176 220 215 188 212 208 229 239 286 267 244 239 238 208 224 229 214 196 199 200 213 234 254 231 228 223 224 233 246 258 299 361 336 335 329 326 306 316 320 225 243 200
233 224 223 228 231 228 236 234 158 215 225 162 242 283 267 238 243 233 211 213 199 209 210 196 209 217 250 241 224 221 235 251 263 288 332 353 332 339 334 338 324 318 159 312 196 247 214
235 236 225 229 235 234 242 234 235 237 237 230 258 297 268 246 247 214 214 220 204 200 206 208 217 247 255 212 231 243 257 271 311 332 338 364 348 333 339 354 356 358 89 309 222 243 212
250 255 251 255 247 267 273 251 241 246 249 251 275 260 271 242 241 218 220 220 202 206 198 217 242 264 222 233 247 262 277 339 172 339 342 355 295 259 422 410 470 374 316 304 154 243 221
499 509 520 483 427 362 367 343 310 284 284 286 277 275 273 253 224 223 222 207 201 203 215 232 259 228 233 255 268 284 410 391 364 338 361 375 389 266 261 369 466 368 296 276 206 245 216
542 579 501 476 414 370 360 385 360 308 298 281 277 286 273 255 217 221 215 201 208 208 222 252 222 233 225 272 282 403 363 352 362 358 358 329 369 357 363 414 375 315 278 242 132 242 199
567 505 476 495 371 328 338 351 364 312 296 277 269 284 271 227 222 228 198 206 203 214 237 214 220 220 267 284 394 392 365 392 330 324 317 315 309 347 389 345 179 285 270 211 230 216 195
541 540 452 422 326 331 329 332 321 324 289 277 294 271 248 226 227 209 203 203 210 226 251 215 212 246 273 388 393 374 384 307 309 313 323 328 336 317 293 293 234 257 190 236 219 205 186
534 478 480 362 354 346 326 324 321 332 282 276 280 274 231 233 212 201 207 203 216 245 214 210 212 258 356 411 401 311 324 316 74 72 305 288 281 288 294 269 255 230 191 239 228 205 185
510 437 393 334 325 322 321 309 354 155 279 287 275 230 229 219 207 207 198 210 231 231 214 208 223 261 207 363 341 344 318 319 345 102 271 261 280 265 262 243 234 186 219 225 89 85 179
524 417 339 323 326 311 324 307 311 290 284 281 267 174 226 214 200 205 207 214 246 213 212 209 225 254 165 312 310 302 309 315 267 261 262 235 265 258 247 231 219 210 237 218 199 178 189
426 356 337 327 337 323 309 310 290 282 285 274 263 176 217 206 210 202 214 224 241 220 207 207 217 239 171 295 296 281 287 301 259 137 257 212 253 245 213 202 204 171 242 207 198 185 179
470 354 336 324 308 322 332 297 288 287 288 279 247 180 211 211 201 208 217 240 215 216 209 209 185 221 246 302 247 254 264 275 271 236 217 247 213 231 188 214 263 225 101 201 197 192 184
396 352 323 323 318 322 323 292 289 284 286 264 230 220 210 210 201 210 220 252 210 214 210 203 222 216 226 246 275 298 275 266 212 257 254 196 210 225 187 205 232 102 207 194 168 176 188
358 341 329 314 324 331 290 154 293 283 249 242 225 188 217 204 213 217 222 248 207 223 217 200 212 217 213 226 238 235 202 191 227 203 177 233 207 228 228 247 215 183 201 169 175 178 171
427 344 326 325 307 293 291 295 292 284 246 215 221 202 203 213 216 219 232 237 207 217 214 216 209 217 140 204 212 209 206 196 198 206 229 199 245 256 250 201 195 203 190 193 184 121 166
351 344 324 317 308 295 293 296 293 245 243 227 223 218 209 213 217 219 239 239 208 238 204 224 218 216 214 226 210 207 205 205 212 221 236 246 239 240 221 204 203 196 188 184 185 189 185
356 342 322 325 303 293 297 296 272 246 231 225 221 217 211 215 194 223 240 237 223 206 204 214 207 213 214 215 227 231 234 205 210 231 239 240 242 237 212 194 198 199 196 191 188 189 186
364 338 321 315 310 135 223 280 255 243 226 203 216 215 215 217 189 225 239 234 229 231 199 207 208 215 211 226 232 228 236 216 212 200 200 249 247 245 202 197 200 200 198 191 191 192 189
345 335 336 310 111 117 127 248 252 232 226 206 202 205 210 218 218 223 236 235 224 228 206 190 201 206 217 222 225 234 238 266 266 225 202 205 226 249 254 212 206 191 190 190 189 189 188
341 326 333 319 290 296 121 139 248 237 229 205 222 188 206 218 216 218 260 238 228 228 233 202 194 199 203 201 219 227 228 236 240 261 229 284 206 209 300 302 246 202 188 192 193 190 187

GFSGBSN_2pvu_pres_015.txt.gz
Presure
279 254 221 217 221 250 275 277 265 245 251 231 127 220 216 213 205 201 200 215 192 201 203 200 211 202 215 222 215 205 200 204 207 206 221 226 228 239 273 278 280 250 242 84 207 186 120
268 270 222 225 211 229 257 287 281 251 230 239 227 220 220 214 214 207 199 211 209 215 207 193 201 206 180 207 204 212 200 197 207 218 180 228 264 268 271 267 272 266 242 239 82 208 167
273 271 240 222 207 212 225 248 272 261 246 234 235 234 216 213 213 217 217 198 186 206 216 196 207 211 193 223 204 210 190 195 202 217 231 224 266 180 263 264 268 265 274 225 226 192 209
287 258 252 241 221 205 211 216 243 276 265 247 240 239 202 233 219 217 215 211 209 213 214 207 223 219 195 220 213 209 200 195 205 217 205 238 266 259 253 248 251 251 264 273 219 212 246
280 273 252 250 237 215 204 206 213 224 243 282 252 227 221 188 142 167 218 224 228 219 219 222 211 187 209 215 225 214 194 198 212 211 221 256 255 244 241 245 248 255 261 268 270 226 247
283 269 266 251 244 242 222 202 204 206 186 222 278 275 239 233 239 231 225 227 226 229 210 218 201 205 219 210 223 204 181 205 208 216 225 251 244 238 236 238 241 246 251 256 259 255 237
303 283 277 266 266 242 249 220 225 178 205 212 188 204 214 282 264 242 243 233 228 223 224 214 215 212 203 206 224 196 200 205 210 221 246 248 237 230 229 234 240 246 253 258 260 262 235
285 280 254 247 262 249 227 237 233 228 202 208 216 212 208 207 216 216 270 254 161 237 228 222 200 210 208 219 208 195 210 203 217 226 250 238 227 230 237 238 239 248 254 255 261 267 290
223 219 220 219 219 222 255 212 208 216 231 216 189 209 191 209 214 229 231 287 271 249 241 220 218 212 216 227 214 209 208 215 223 251 246 232 232 231 235 237 238 243 250 246 259 261 201
221 244 244 241 235 237 236 236 217 220 231 234 215 195 222 195 204 223 228 257 285 276 241 232 207 207 216 217 205 207 212 226 242 252 237 205 229 232 236 247 249 247 256 261 292 274 195
258 234 237 236 233 238 238 238 244 231 194 230 215 215 206 220 222 233 227 253 280 281 242 242 207 215 211 209 201 209 226 237 254 231 230 196 236 247 261 269 325 345 342 350 335 303 271
249 257 268 348 349 259 249 243 248 246 236 237 229 224 238 206 234 230 235 256 264 267 245 230 219 217 198 206 204 225 235 256 230 240 226 265 279 303 343 337 339 326 361 339 334 311 300
489 482 554 533 473 410 501 301 261 253 248 244 243 239 238 239 238 232 249 264 273 244 246 222 221 214 207 209 230 244 248 226 242 276 341 364 204 341 332 329 339 183 363 335 330 302 318
457 572 538 538 514 452 418 475 449 268 259 249 247 250 245 251 251 240 272 292 270 245 228 227 206 207 221 235 246 227 215 283 267 208 121 353 345 345 336 344 349 355 342 334 328 327 85
582 538 516 523 529 549 467 489 424 377 347 334 338 273 287 275 268 280 269 283 251 229 226 205 210 221 232 249 212 249 335 425 370 349 363 379 373 364 382 166 391 391 365 364 329 275 261
572 534 527 488 497 569 416 371 356 341 338 333 320 327 307 281 280 274 273 259 232 224 212 209 220 231 236 209 257 428 423 369 306 252 322 325 333 325 197 352 367 373 441 397 281 262 259
574 545 484 469 461 454 366 348 331 331 331 346 345 327 304 296 286 265 263 239 223 212 207 214 228 234 213 252 442 408 342 331 343 314 319 327 325 330 346 362 415 359 287 274 260 196 242
593 501 483 454 453 359 340 338 332 323 329 352 340 320 308 293 270 269 240 226 220 206 200 227 239 212 226 377 352 329 319 321 305 338 342 334 302 315 293 273 268 258 259 253 257 180 167
594 484 480 414 344 338 329 316 310 317 320 320 286 317 287 289 271 233 226 220 208 203 220 239 208 210 177 341 327 333 308 310 305 273 262 232 258 257 256 257 250 260 248 241 234 235 197
585 504 448 348 342 328 320 317 314 308 295 306 317 289 296 276 176 229 221 209 210 217 231 203 204 219 177 333 225 269 271 272 258 262 183 246 215 244 246 255 252 251 252 235 208 191 186
643 493 389 350 320 319 323 313 306 293 299 323 294 292 276 234 178 221 213 207 214 222 241 202 204 223 225 289 219 215 273 264 263 246 249 253 144 222 246 244 182 250 182 244 186 242 230
630 461 456 341 332 311 316 304 324 315 316 294 285 279 247 238 221 215 212 216 216 235 215 206 215 219 225 170 215 182 215 171 257 252 242 246 124 244 238 243 242 195 236 202 150 217 242
629 354 342 321 324 319 308 297 293 309 291 279 277 268 235 179 220 215 209 214 225 238 213 207 215 214 229 215 239 264 252 216 174 257 230 197 169 165 173 198 242 236 131 195 197 153 141
491 347 338 336 334 314 301 296 313 199 282 281 266 244 223 210 213 215 218 220 235 222 219 209 210 209 221 218 224 256 283 190 210 174 255 176 191 242 196 210 223 246 217 228 243 216 194
438 353 343 331 305 311 289 300 296 287 281 267 247 235 200 215 214 217 214 225 236 217 231 210 206 212 206 216 211 216 231 216 264 164 201 177 251 216 233 242 205 222 217 235 228 180 180
605 333 345 343 304 318 316 314 298 285 279 272 239 229 219 183 215 219 217 230 234 214 217 208 210 219 218 207 206 209 208 213 195 227 198 222 222 271 215 207 214 256 238 207 201 195 171
446 394 340 328 309 310 319 238 295 280 287 258 235 223 210 217 218 203 215 236 231 216 231 209 215 212 222 228 224 195 205 201 201 200 226 228 203 237 231 228 267 244 210 193 194 185 187
408 386 347 328 305 308 310 169 282 282 269 242 232 219 214 218 216 224 221 237 231 222 225 210 209 211 219 216 221 222 226 232 205 208 226 243 242 244 251 261 269 237 214 198 193 186 187
421 424 337 314 325 300 309 157 123 235 254 237 223 219 225 215 219 204 197 233 234 229 216 225 200 207 211 204 231 228 223 225 215 207 200 214 236 246 245 247 253 219 202 197 198 197 193

GFSGBSN_2pvu_pres_018.txt.gz
Presure
293 277 278 298 293 276 269 233 228 225 321 295 271 258 251 230 230 217 215 207 206 208 194 196 204 194 210 187 208 201 211 219 199 230 219 219 206 202 218 222 219 216 230 230 234 237 249
302 324 297 298 97 272 264 242 229 223 281 294 271 255 251 135 177 225 218 218 214 211 206 199 194 205 214 198 198 203 204 214 213 224 218 213 212 208 210 208 229 232 249 262 224 281 238
301 325 300 290 284 267 263 245 227 217 244 288 279 267 245 242 232 225 222 217 216 210 209 207 194 194 205 211 197 215 225 212 217 227 224 215 205 205 199 210 235 236 236 279 273 280 275
346 319 304 296 281 259 255 252 228 221 218 254 289 265 258 241 238 229 217 218 217 216 206 198 208 207 218 197 217 211 198 209 210 205 224 221 223 196 201 214 207 216 275 271 273 263 274
324 316 305 301 283 275 256 248 247 222 216 221 255 269 265 242 216 168 231 126 218 217 220 215 210 213 212 216 207 208 203 210 225 204 216 222 223 212 197 201 211 274 268 260 255 255 261
313 310 296 298 301 279 267 254 250 241 218 206 219 239 259 256 252 238 231 230 186 142 151 223 216 215 213 219 225 228 213 211 224 202 220 229 234 206 204 212 227 256 259 253 206 249 259
283 274 266 268 282 298 279 263 262 249 218 221 204 213 228 250 273 261 241 239 229 221 214 213 213 216 215 220 226 230 224 216 214 218 216 234 226 198 206 218 230 264 254 245 242 242 248
264 256 262 231 235 265 280 279 275 263 258 241 223 217 206 213 227 273 282 251 240 237 234 230 228 226 219 222 224 232 214 221 224 220 221 223 212 210 210 220 227 266 246 235 236 241 244
242 242 256 255 260 224 227 220 246 254 253 265 240 224 216 205 211 180 208 216 259 260 249 280 267 233 237 231 224 229 232 224 213 224 212 231 220 210 208 224 233 256 244 234 237 241 249
233 237 242 234 222 217 240 231 248 217 214 254 262 241 231 217 205 216 217 215 212 195 222 207 220 247 275 260 233 243 243 234 232 216 232 226 209 207 217 229 237 256 242 234 238 241 245
235 239 265 530 314 290 262 250 245 228 247 235 243 238 217 233 217 203 207 198 195 199 191 209 210 244 284 277 258 243 239 244 225 225 224 214 208 222 234 232 255 256 241 228 182 234 238
240 363 500 486 483 495 488 502 269 250 247 228 226 222 222 224 230 237 222 198 197 210 201 215 226 254 275 265 244 237 247 247 231 223 216 220 231 237 244 251 243 231 229 232 229 241 260
409 482 485 597 552 515 558 543 497 270 255 244 245 233 228 225 214 225 204 208 219 211 199 206 239 277 266 252 240 244 236 230 234 220 230 240 246 229 240 233 238 244 241 247 251 251 285
477 468 635 550 531 536 519 530 489 486 383 266 251 244 238 235 231 232 215 212 226 218 224 226 251 273 243 246 243 237 235 216 226 240 253 235 246 256 248 187 343 337 330 331 340 345 274
454 613 575 527 469 451 439 542 463 443 383 373 304 263 246 227 233 237 235 233 227 225 241 235 298 259 245 239 231 234 223 241 234 237 259 321 403 373 339 343 343 336 341 333 336 334 335
461 614 509 463 439 429 439 529 460 425 366 355 343 341 259 245 237 171 236 232 229 231 257 295 268 239 234 236 216 238 210 239 323 309 195 279 358 353 346 351 244 339 234 330 337 339 372
602 612 484 462 445 460 502 416 453 370 355 330 348 343 321 275 250 243 238 234 239 269 294 264 235 232 226 223 246 231 302 356 360 347 348 331 327 327 348 332 339 356 393 374 363 413 362
588 511 495 469 465 477 434 472 517 378 374 321 302 299 319 318 278 266 267 264 271 288 257 235 229 212 227 240 240 296 335 344 321 351 335 337 321 317 333 344 93 362 398 403 412 271 270
601 514 502 474 459 398 393 355 348 346 344 316 302 290 303 333 360 326 310 294 277 252 236 228 209 227 236 225 365 308 321 322 276 269 271 273 276 272 270 281 296 300 290 276 259 247 252
607 623 472 458 372 361 359 351 337 327 309 319 307 312 276 341 311 308 301 281 247 235 225 209 227 221 218 366 284 244 260 254 261 261 248 247 248 259 264 258 260 259 267 257 254 241 257
616 528 448 383 361 352 341 328 330 321 322 340 329 330 221 303 301 285 282 245 236 226 211 225 234 213 219 205 239 212 183 250 249 245 244 240 245 206 123 232 249 235 256 246 245 262 252
624 403 399 375 358 340 329 323 310 312 329 333 318 314 259 279 282 265 243 237 225 216 219 229 207 211 217 244 244 181 179 183 248 241 245 237 107 238 230 234 236 234 249 253 258 243 239
626 474 372 360 339 325 304 315 318 299 317 308 303 287 281 282 251 218 226 225 215 220 227 235 206 213 235 239 186 244 187 178 209 134 128 249 204 231 189 230 233 234 236 236 211 242 274
626 509 375 348 339 324 319 304 293 307 303 300 289 285 275 248 242 177 228 214 215 221 231 218 211 215 222 240 233 203 180 224 191 243 244 221 173 240 206 232 202 242 177 205 192 175 126
629 416 373 322 338 325 304 302 305 300 315 288 290 276 249 242 240 221 216 210 218 231 230 208 214 192 217 212 202 186 228 215 223 221 258 183 174 160 195 175 233 182 216 221 242 190 236
637 354 353 331 336 324 315 314 300 318 293 292 277 253 244 233 231 218 211 223 229 237 235 204 217 212 197 217 211 223 258 175 261 217 172 192 159 179 187 194 213 243 234 206 231 248 232
638 383 387 312 319 319 308 302 319 295 287 290 255 244 235 239 225 207 205 225 230 234 211 207 216 214 246 209 212 192 200 187 215 257 198 232 198 251 239 261 195 213 252 206 211 231 225
633 521 381 315 321 303 310 310 300 287 292 273 245 238 238 232 197 216 214 223 233 231 237 201 216 213 215 221 211 208 209 175 219 209 230 257 205 242 258 238 263 199 214 186 214 227 252
630 615 378 352 313 324 308 324 293 124 182 255 244 240 231 228 215 221 212 228 234 229 227 202 223 212 214 213 223 221 225 223 199 201 223 225 238 236 238 240 214 217 219 209 237 245 174

GFSGBSN_2pvu_pres_021.txt.gz
Presure
296 291 291 296 284 282 326 317 305 294 275 277 251 242 230 224 281 287 268 256 247 236 225 215 211 197 205 192 195 192 186 189 200 210 186 216 203 229 216 209 220 211 201 209 213 231 106
336 326 308 324 327 322 307 305 296 279 276 258 247 246 228 227 298 273 258 251 245 233 223 217 213 209 193 192 188 195 201 180 193 200 203 211 220 220 223 194 214 223 165 194 215 231 227
344 352 339 334 340 329 318 300 290 270 268 256 238 242 234 224 283 267 254 241 136 229 223 218 214 213 199 207 197 195 202 201 178 209 219 203 208 215 216 227 234 225 224 186 208 213 234
330 315 319 334 319 320 312 297 286 270 269 254 236 235 228 220 282 263 253 242 239 228 224 218 214 214 199 210 198 193 195 201 211 202 209 208 221 234 206 218 235 219 218 213 206 217 205
296 302 290 266 280 319 310 302 281 272 266 253 240 233 220 220 288 266 247 249 240 229 225 223 215 213 211 210 201 199 203 207 203 208 221 208 225 229 213 229 219 227 235 218 209 206 213
288 277 235 258 254 236 269 309 313 281 264 254 246 240 227 225 285 257 257 249 214 227 225 226 174 217 214 210 210 207 203 203 216 214 226 223 232 220 221 225 207 224 237 222 216 198 215
280 263 254 276 243 236 251 233 245 297 282 260 250 229 230 226 216 280 265 240 243 234 230 225 214 217 217 208 213 204 204 212 219 217 221 226 218 220 229 226 222 225 233 227 219 200 219
269 266 241 237 231 244 233 236 231 222 273 280 254 250 245 227 222 215 274 268 247 244 238 235 227 160 145 226 191 217 215 215 225 219 225 232 232 231 232 227 219 224 227 236 207 221 170
277 270 250 235 226 225 226 244 233 233 219 254 263 252 245 235 217 223 209 242 269 261 243 205 229 231 233 231 234 235 232 223 225 222 226 236 228 234 231 222 234 227 230 225 203 218 223
293 263 274 247 271 485 475 520 265 255 228 226 219 259 263 246 234 214 215 217 231 263 139 150 255 251 253 238 231 233 228 233 232 238 247 246 233 238 233 231 232 226 212 233 227 222 217
270 284 257 465 508 499 493 495 502 388 273 229 219 218 269 266 243 234 227 218 212 203 209 227 295 289 273 226 213 212 221 220 223 248 267 266 246 245 247 250 237 233 232 231 218 219 228
266 280 329 484 530 595 570 520 491 485 431 271 230 231 221 215 253 245 240 227 217 209 203 210 213 210 205 203 205 208 212 220 242 294 290 274 269 264 256 246 252 234 219 218 224 227 251
289 283 471 589 605 562 527 529 536 543 489 310 256 243 230 239 216 243 241 234 219 220 200 205 201 201 198 202 206 208 223 221 283 284 276 269 260 246 254 256 252 244 233 229 235 245 205
288 475 486 616 487 470 458 460 480 555 478 512 269 254 237 228 239 226 236 209 213 217 215 206 199 198 208 199 204 207 228 281 273 266 260 257 261 256 250 243 239 239 240 246 250 256 263
286 459 601 473 467 434 435 445 465 496 459 479 404 265 247 234 231 231 227 221 212 219 218 218 201 208 214 220 215 233 287 275 267 259 254 245 239 240 242 236 247 233 255 252 210 268 269
289 450 554 467 442 430 417 429 462 504 459 422 382 346 257 249 242 221 219 216 225 211 200 207 204 208 204 212 247 281 277 257 243 235 224 252 308 346 356 376 409 102 255 181 321 348 343
290 454 519 473 448 442 450 426 434 438 406 378 369 355 284 263 255 237 228 225 215 218 225 216 220 216 224 245 279 259 246 233 211 332 175 339 330 321 332 333 357 350 123 354 142 357 351
289 454 533 476 459 467 480 448 480 367 344 361 335 344 328 274 253 240 233 225 223 228 219 225 219 222 253 276 254 223 232 353 369 258 304 318 316 309 311 319 326 332 345 347 371 373 357
297 469 569 497 472 458 437 417 459 367 342 342 332 318 312 301 318 357 251 235 233 229 229 211 225 271 261 250 223 381 284 269 291 275 275 276 304 280 294 321 330 344 365 154 382 421 366
473 507 597 475 467 453 406 413 436 346 347 347 327 316 311 304 304 320 318 258 242 231 219 228 269 253 242 242 211 219 255 269 259 259 264 249 259 260 264 257 278 314 371 347 295 284 281
481 523 474 499 465 438 425 378 356 340 335 315 306 312 283 314 312 318 350 301 250 249 239 265 250 239 236 223 251 252 234 188 243 247 246 235 230 239 246 248 248 255 258 267 259 262 192
486 546 456 386 387 405 373 350 328 333 299 304 314 313 302 288 151 312 321 325 265 274 264 248 232 230 222 221 261 294 152 163 259 228 83 247 241 244 236 81 236 244 245 248 247 246 243
491 642 404 368 372 367 364 344 336 308 302 300 307 288 287 288 290 304 308 319 266 258 243 232 238 216 238 240 247 277 223 182 202 208 176 237 240 245 239 243 235 231 233 242 252 243 254
510 642 399 361 337 352 337 328 324 322 315 313 274 308 306 320 298 303 277 256 251 235 232 219 233 220 242 234 217 188 223 251 193 239 229 223 224 226 101 236 249 244 240 243 248 247 259
541 642 406 352 312 336 314 318 318 319 325 304 308 315 309 299 285 267 251 246 232 229 220 236 215 222 218 236 203 185 211 241 234 176 149 201 186 244 233 210 220 242 239 235 249 243 230
633 634 394 355 310 297 321 310 307 299 320 302 310 296 284 288 260 248 243 235 224 229 241 220 237 225 218 233 221 220 182 232 212 232 174 186 209 196 184 223 207 236 227 228 188 232 240
637 628 379 359 310 324 311 326 303 308 312 304 291 281 282 257 245 242 233 224 226 224 238 218 208 218 216 204 224 236 224 219 218 239 246 168 211 168 236 237 230 232 208 226 196 193 246
634 629 429 371 335 311 307 308 311 308 307 288 286 283 260 246 243 233 225 222 213 236 228 212 217 202 224 212 208 218 184 247 244 240 173 241 180 168 242 223 188 223 196 209 223 227 257
637 623 440 361 328 315 318 326 311 318 295 138 277 261 252 244 234 229 227 205 219 235 231 209 214 217 218 216 210 190 204 215 184 259 248 188 181 210 242 215 255 186 227 190 236 272 229

GFSGBSN_2pvu_pres_024.txt.gz
Presure
356 356 362 363 344 332 311 311 298 283 286 272 276 272 316 307 260 273 277 250 225 216 215 209 204 209 213 214 223 221 227 207 205 204 204 177 182 194 183 184 196 162 190 217 206 201 211
280 340 329 332 332 345 351 350 344 351 346 320 310 306 306 291 283 277 267 253 242 225 210 217 212 211 246 255 239 232 219 207 203 203 199 199 192 187 165 210 184 214 181 218 216 206 220
300 311 296 289 267 274 298 304 334 325 319 312 303 293 286 269 274 262 248 246 254 226 217 218 246 270 253 244 237 230 217 212 207 202 200 207 200 184 183 205 218 188 185 189 229 216 211
314 297 282 275 278 279 254 252 260 325 315 309 292 292 273 274 264 250 245 238 232 224 228 281 270 251 243 238 233 226 219 200 211 204 201 194 202 205 193 182 196 207 215 216 224 220 234
308 296 297 285 280 286 266 266 257 245 265 314 291 272 241 263 254 242 234 232 232 241 282 268 251 246 239 234 229 223 219 215 200 196 202 199 192 203 214 203 194 217 217 214 238 221 224
313 291 290 276 280 272 242 244 253 250 247 254 307 280 275 258 250 242 234 228 227 283 272 255 248 242 236 229 227 223 218 215 213 200 198 206 201 197 207 217 214 217 223 213 227 223 229
298 285 286 275 253 266 264 264 244 238 231 230 243 304 279 273 247 244 233 227 225 277 260 252 245 235 234 228 128 220 222 214 212 209 209 216 202 199 208 217 218 216 227 232 234 235 225
304 291 293 271 257 247 252 251 239 238 228 228 225 233 271 275 258 242 229 225 225 266 259 254 246 238 236 225 220 223 218 216 214 214 210 214 212 209 217 213 214 222 224 231 231 232 225
312 299 298 288 255 253 368 511 514 417 264 263 234 227 229 259 267 244 238 229 227 219 265 244 252 242 238 234 222 219 144 190 219 217 208 225 179 208 219 226 225 225 234 234 241 239 244
314 320 303 289 261 351 497 516 491 483 497 320 278 236 228 229 274 255 237 233 229 220 223 262 241 243 239 232 227 224 225 221 219 227 170 229 222 224 224 235 230 230 241 243 242 241 246
327 305 300 279 291 487 606 577 543 566 469 500 330 279 236 232 258 264 244 236 229 222 217 219 265 243 236 154 238 237 234 238 233 239 240 238 235 240 249 241 250 247 250 265 260 259 261
306 310 295 281 478 597 561 535 536 531 533 464 502 294 265 230 235 270 251 239 236 225 225 206 205 265 256 253 246 242 239 242 243 247 218 239 221 222 219 220 235 254 275 266 270 271 276
314 310 293 288 455 488 475 467 457 449 487 522 484 478 278 257 233 248 264 244 233 231 217 217 208 207 207 229 230 230 232 240 225 204 210 211 210 216 223 229 287 294 289 287 284 281 292
311 310 292 306 453 463 448 427 448 448 471 510 467 506 330 275 233 228 262 263 244 229 233 215 218 211 206 198 203 206 205 203 207 206 218 204 211 243 284 289 284 278 271 277 278 277 278
313 308 290 423 486 452 431 432 423 442 478 501 458 383 406 279 251 226 225 272 253 239 229 227 219 216 213 207 203 206 199 208 207 210 229 228 285 293 273 256 250 245 249 242 258 266 261
310 303 288 457 492 465 437 427 413 438 473 506 469 374 391 281 268 236 232 225 220 248 246 238 226 214 214 214 211 202 204 210 199 206 235 280 256 239 244 241 281 205 275 299 271 265 269
311 298 286 456 502 470 448 454 405 420 452 481 417 382 387 292 265 243 232 229 222 219 250 241 209 216 211 217 217 215 215 205 224 276 250 242 305 312 320 318 333 331 328 79 359 198 401
310 298 286 459 530 503 452 459 423 428 477 434 364 351 344 341 277 261 226 237 230 225 225 223 210 211 217 206 207 194 220 245 258 307 322 237 318 298 312 312 321 327 317 327 323 343 346
308 297 286 575 465 469 479 460 428 423 441 478 347 334 341 336 276 258 234 228 226 232 222 221 219 223 207 201 210 224 268 261 294 273 269 267 272 273 277 282 308 313 319 324 333 347 359
308 298 331 604 488 485 496 455 430 402 349 335 346 339 326 325 302 260 248 231 227 224 219 216 214 211 214 215 226 263 232 257 253 260 255 253 247 253 260 257 265 305 388 364 395 375 355
306 296 373 502 443 448 438 405 381 352 341 347 331 307 304 310 313 312 258 237 237 225 224 221 218 219 223 227 257 219 250 257 263 237 175 239 239 231 232 242 255 266 269 277 357 360 350
298 293 490 421 413 440 436 378 350 320 312 311 308 318 315 296 305 314 334 246 251 236 229 223 224 217 226 249 216 250 241 207 165 184 255 232 240 234 235 239 89 243 262 261 261 266 267
295 289 551 409 399 472 394 347 347 334 321 309 318 304 308 310 311 313 312 330 245 242 232 229 233 226 248 230 231 208 217 179 227 171 240 185 212 231 244 227 234 193 242 260 260 271 257
292 284 593 404 411 430 389 348 332 314 321 305 299 295 289 286 320 315 321 319 310 300 251 238 221 254 220 222 249 210 180 243 175 169 242 240 244 237 164 203 234 234 247 242 242 246 265
292 283 622 394 380 386 353 350 341 310 297 296 291 292 292 305 313 307 322 301 292 277 252 242 266 220 221 241 253 221 208 246 211 229 240 234 246 246 246 237 228 218 215 218 252 244 242
289 282 566 397 370 359 340 323 304 311 310 296 294 308 298 304 300 302 296 281 273 258 254 267 223 230 249 245 261 277 235 175 237 193 235 193 196 226 234 189 217 242 241 231 204 233 244
286 279 646 394 369 345 333 322 322 304 298 277 281 282 317 304 296 285 275 264 260 264 253 223 232 221 246 256 246 195 236 193 196 220 171 169 230 183 243 226 233 227 233 226 236 236 228
281 277 657 402 368 343 327 321 320 302 315 316 301 322 306 288 274 264 259 258 255 233 223 194 220 216 227 258 251 224 220 227 211 198 217 148 220 177 193 234 218 213 189 233 220 230 244
279 271 666 463 368 342 330 329 317 321 321 315 128 320 283 269 260 261 252 248 228 221 206 232 251 221 214 226 206 199 255 249 227 203 182 168 197 149 235 197 221 232 218 218 234 223 233

GFSGBSN_2pvu_pres_027.txt.gz
Presure
344 349 326 315 298 299 295 315 340 350 295 296 280 272 259 252 258 249 255 249 246 255 227 269 239 230 222 202 212 219 208 211 200 209 197 207 218 210 218 203 198 185 179 182 190 209 210
344 332 325 314 305 274 280 283 276 288 298 329 346 311 287 269 272 257 265 267 257 236 259 235 232 232 230 218 199 211 212 204 194 193 193 199 219 211 212 214 197 181 195 201 191 201 199
326 337 333 317 307 303 294 282 280 265 264 276 281 350 346 340 336 283 277 273 286 303 306 290 237 257 235 223 211 208 213 206 205 209 207 180 224 212 210 210 210 195 191 188 179 209 208
290 331 330 319 297 302 278 279 270 254 268 251 245 263 304 326 316 316 319 314 296 288 290 289 241 255 249 219 218 207 207 207 207 203 213 213 229 225 209 207 209 207 193 188 184 187 187
281 339 312 309 305 294 292 268 259 271 272 257 245 254 264 296 312 298 300 287 277 278 277 279 270 261 237 239 211 207 209 211 207 211 222 239 238 238 210 201 206 208 212 196 191 203 190
278 322 321 318 297 296 283 286 258 250 256 264 240 243 248 256 293 275 293 279 271 267 266 254 247 240 246 228 223 213 209 212 213 239 243 239 238 229 204 206 203 209 206 209 210 194 196
284 309 327 176 318 304 269 258 249 258 252 254 225 244 239 239 255 303 295 272 266 261 239 243 230 226 225 230 213 211 217 266 254 244 239 235 230 218 199 210 207 207 205 206 205 210 227
287 343 325 311 306 302 276 258 354 420 497 388 277 280 234 234 237 264 297 267 261 247 239 240 225 226 211 225 236 262 262 253 241 236 231 230 223 218 219 211 199 197 205 207 211 208 221
289 302 328 311 315 290 268 469 580 601 624 512 478 380 269 235 242 240 274 273 263 240 239 236 228 213 281 276 264 259 252 242 235 233 229 226 218 220 218 217 217 213 211 210 219 209 215
248 294 323 314 319 285 295 612 571 544 535 543 497 501 372 252 235 231 253 285 260 240 236 236 229 222 276 270 260 251 244 242 234 230 228 221 219 223 218 212 216 222 228 224 229 229 223
247 296 321 312 322 288 474 493 471 442 476 539 495 472 509 305 251 231 236 273 268 244 243 237 228 209 272 266 247 247 245 233 231 231 220 166 218 156 217 223 228 230 220 237 246 243 246
261 332 323 317 312 287 482 482 461 471 453 448 487 453 499 311 276 243 227 261 277 256 242 234 223 216 267 257 245 250 245 242 238 233 228 226 225 226 227 230 236 240 249 253 249 249 267
289 304 321 320 299 319 468 460 447 425 433 457 466 457 487 326 277 255 228 225 282 266 233 232 221 216 212 260 250 241 143 242 239 237 235 234 235 242 241 251 259 215 217 219 219 232 253
286 330 322 320 295 458 474 457 436 411 415 477 483 516 490 425 283 267 235 231 279 259 234 227 222 221 209 206 233 256 248 247 246 247 250 214 207 206 217 212 216 220 228 237 242 250 261
290 331 320 320 291 492 477 455 419 405 401 420 487 477 487 398 297 279 240 239 262 256 241 229 225 221 220 211 207 203 205 206 205 203 196 204 207 210 205 208 222 229 233 248 276 309 303
294 331 322 324 294 554 468 458 420 413 406 440 499 461 460 385 310 277 253 226 240 262 242 230 227 224 216 220 214 209 204 203 207 205 204 208 202 205 217 225 281 327 340 273 284 293 291
333 338 329 323 297 436 499 456 425 400 408 481 472 466 424 353 349 285 263 226 236 261 248 230 224 226 224 216 216 215 214 214 212 210 211 219 212 226 334 325 303 319 326 322 327 171 340
283 341 329 316 299 427 513 465 428 402 398 411 454 489 385 375 327 285 255 230 225 241 258 238 227 223 230 224 215 212 214 214 218 197 206 229 289 249 274 268 274 284 324 323 320 320 329
310 328 326 310 443 457 521 460 435 422 436 434 434 383 388 364 349 290 262 230 230 236 258 252 232 231 220 230 223 219 209 220 210 214 234 271 249 217 252 251 257 260 301 370 351 333 134
339 321 325 305 434 538 457 447 426 420 440 380 366 358 354 372 339 300 263 226 234 225 245 258 242 226 227 221 224 206 216 207 216 262 256 251 239 256 235 251 250 274 276 324 431 384 364
341 322 323 301 426 474 463 446 453 399 360 352 380 342 339 329 316 318 286 235 203 196 224 219 218 222 220 216 214 209 219 223 255 259 263 193 184 252 248 230 251 233 274 269 264 288 294
348 314 318 299 413 482 433 460 388 351 349 339 343 338 338 316 316 312 286 233 221 226 227 226 222 217 219 219 222 215 221 267 259 233 169 151 206 241 165 229 155 235 229 262 268 269 269
325 307 311 296 419 455 406 398 364 348 333 335 342 319 315 304 309 312 317 237 230 220 220 224 221 214 208 214 218 220 248 260 238 169 165 242 256 237 229 164 242 237 238 255 239 263 257
327 303 305 295 431 382 388 364 340 319 323 318 306 311 307 315 317 323 313 193 235 225 219 221 219 195 219 222 222 259 253 231 169 215 236 248 242 194 228 225 219 219 227 241 227 255 243
331 307 297 294 421 402 371 353 339 326 315 316 304 307 300 302 308 309 316 315 237 235 225 225 190 227 222 227 238 237 202 236 231 232 270 221 245 230 235 241 235 228 216 225 242 242 228
324 307 294 288 421 412 354 340 303 316 314 312 300 301 299 301 300 314 305 317 321 239 233 223 223 227 235 225 276 245 232 252 182 219 253 229 146 250 243 227 233 202 247 231 242 234 229
314 309 292 283 343 404 345 329 314 319 302 307 303 291 289 290 313 320 316 305 311 310 233 213 237 244 232 257 213 255 213 213 196 229 183 161 181 233 141 231 228 236 197 239 236 213 229
338 316 294 281 386 390 356 341 325 331 310 314 290 306 287 294 318 311 303 292 284 283 234 261 261 247 257 215 254 245 256 213 178 223 222 175 161 172 233 219 210 195 182 220 220 222 243
297 335 293 283 704 390 359 341 326 318 316 313 310 279 287 308 318 293 279 268 243 264 268 257 268 225 212 253 252 249 190 222 212 208 178 238 161 147 224 145 237 168 161 219 228 236 215

GFSGBSN_2pvu_pres_030.txt.gz
Presure
175 131 257 288 338 336 315 304 295 280 275 299 341 281 263 258 263 265 257 255 245 245 240 242 250 231 233 232 214 217 218 203 215 222 213 203 211 216 225 203 224 215 217 217 226 214 208
227 138 204 340 352 329 324 309 305 291 280 271 283 305 337 294 258 249 251 245 246 262 245 250 233 248 247 232 218 223 219 217 202 208 211 213 210 206 212 230 213 214 218 215 211 213 205
249 148 265 362 345 329 324 317 299 291 270 283 272 273 283 305 332 276 254 245 263 244 262 245 260 256 236 248 236 237 228 216 217 203 212 204 219 218 203 193 199 200 220 216 210 208 203
250 97 247 318 318 346 318 321 309 295 291 279 275 268 259 269 252 290 361 291 267 258 250 253 255 252 267 255 228 233 224 225 217 209 200 207 213 211 207 214 213 191 205 210 213 216 208
254 265 264 282 353 326 298 299 304 293 276 281 283 264 269 260 255 267 275 330 348 292 257 251 258 249 253 246 259 223 247 221 227 215 202 201 210 211 175 192 181 181 185 199 204 214 213
253 155 275 281 342 320 302 302 284 269 254 254 255 263 254 266 247 270 246 273 321 320 325 276 261 272 257 273 309 277 218 206 228 224 215 202 204 211 210 208 205 211 175 228 214 211 209
253 177 279 282 346 310 324 310 300 260 271 500 646 293 262 250 256 244 263 264 281 305 296 289 287 289 288 281 286 287 222 248 235 222 217 215 203 205 209 210 205 207 223 233 243 211 207
254 255 262 279 340 330 320 329 276 433 560 573 568 642 498 282 252 252 243 253 259 284 281 281 278 273 264 265 266 270 231 238 247 231 219 211 206 206 203 206 213 220 236 243 238 212 210
248 261 279 293 349 342 337 307 335 509 487 477 527 541 517 423 284 252 253 247 253 277 277 272 268 266 263 263 266 264 250 250 247 238 217 209 204 203 209 215 219 234 245 236 234 214 212
242 261 298 286 339 327 329 306 497 491 463 448 464 519 550 475 308 279 247 226 244 267 278 269 262 260 260 250 247 247 243 243 240 222 219 208 213 214 217 224 248 246 239 236 228 223 212
244 260 299 333 345 340 313 537 505 475 434 419 446 443 524 462 470 287 253 225 237 257 283 265 263 259 243 237 227 222 224 217 217 218 218 217 218 228 253 249 244 236 237 233 231 230 230
158 264 296 336 339 336 441 513 495 447 419 419 425 460 494 451 509 290 259 238 237 267 285 265 258 247 234 231 226 221 213 242 267 265 262 261 256 252 248 240 238 233 229 228 230 237 244
244 239 293 333 339 320 597 435 450 409 409 405 414 482 489 448 410 307 266 243 233 257 283 253 253 244 232 228 217 224 277 268 265 260 255 257 247 241 237 190 236 227 203 230 234 166 246
265 153 292 335 341 314 444 435 423 426 393 402 407 470 494 445 361 322 269 245 228 247 280 254 247 234 232 225 209 284 267 264 257 253 249 242 236 236 237 240 241 240 239 243 258 255 256
267 169 293 327 338 348 439 521 448 401 401 415 456 476 482 476 355 321 271 246 226 232 274 257 241 232 222 217 208 279 271 266 255 241 238 236 239 246 247 244 214 211 215 217 212 228 217
254 154 312 328 336 383 493 500 437 417 396 398 469 492 513 509 336 306 297 247 226 223 273 258 245 235 223 217 211 211 249 264 256 251 231 220 210 210 213 215 220 206 208 230 239 286 340
262 152 341 352 329 428 633 468 424 402 400 407 462 468 497 374 320 313 299 247 229 223 273 260 235 233 218 217 216 209 210 208 209 206 207 210 214 215 217 212 225 230 239 252 316 320 344
266 290 343 342 328 436 550 457 431 414 411 433 442 455 533 382 324 308 288 243 233 232 268 257 233 230 223 218 218 219 215 216 212 213 214 218 222 196 215 229 294 292 287 257 80 308 139
296 286 321 338 323 476 451 443 431 450 467 430 444 480 362 333 317 297 278 238 237 229 262 249 232 229 224 221 219 216 218 218 217 215 218 218 213 218 280 278 286 272 237 262 257 131 395
295 271 348 334 323 353 454 452 452 450 462 474 449 421 360 337 318 294 273 244 230 230 259 241 235 223 222 221 223 224 224 215 216 204 213 217 249 268 258 233 254 230 256 244 247 267 290
295 284 321 339 323 301 488 459 495 494 452 395 355 363 350 326 315 292 285 246 221 229 251 249 234 224 224 222 221 222 224 217 231 213 218 266 236 250 243 252 238 250 245 230 238 261 215
270 284 311 329 318 300 402 387 412 398 397 362 345 353 357 332 319 304 300 241 229 174 247 249 249 233 224 224 223 228 240 217 213 222 254 257 176 157 165 160 234 234 228 241 227 262 266
262 289 315 327 311 297 401 353 377 391 365 330 337 332 334 316 321 317 299 239 226 228 209 223 245 244 239 227 239 229 215 214 219 259 252 168 227 234 237 221 236 145 239 226 228 219 263
257 293 316 331 306 291 333 342 335 363 381 353 364 362 327 327 316 319 299 241 230 230 230 223 251 249 232 222 221 222 213 218 271 240 228 205 220 240 231 232 230 172 230 219 235 238 239
266 293 317 330 305 284 320 348 353 341 329 345 336 332 326 325 317 317 313 242 229 230 230 234 222 222 216 221 214 213 222 269 242 187 189 245 244 218 175 230 237 219 236 229 226 227 225
298 127 318 304 309 281 330 354 351 333 338 339 330 311 316 314 319 320 325 214 231 225 227 221 214 223 223 219 209 223 235 250 201 230 218 180 219 148 161 225 208 218 240 227 218 216 220
298 272 321 333 311 286 341 359 348 326 311 314 308 311 310 316 309 313 323 235 245 228 233 227 221 211 209 215 218 224 229 257 212 243 191 179 197 229 196 210 218 162 224 220 222 221 220
297 321 308 326 315 287 402 370 348 317 313 309 309 306 301 301 304 319 308 316 233 242 219 233 222 223 222 223 228 227 236 259 214 201 194 172 201 172 197 221 199 215 164 216 221 245 211
297 311 319 331 313 286 444 374 328 333 326 309 308 273 292 293 297 325 309 306 250 239 237 224 230 207 213 225 223 226 242 220 168 217 208 167 168 179 154 216 196 231 231 221 214 224 222

GFSGBSN_2pvu_pres_033.txt.gz
Presure
89 235 264 257 300 280 371 358 353 329 311 298 291 279 293 308 291 292 274 267 268 256 241 247 258 239 227 238 238 215 219 220 205 191 192 193 193 191 180 176 188 179 184 174 195 198 199
191 227 256 250 309 281 361 343 326 328 327 313 295 287 278 287 313 277 273 251 270 265 255 243 246 247 256 228 237 233 227 208 215 209 211 209 205 198 196 197 199 193 194 199 188 178 186
198 222 236 253 305 244 337 312 338 312 304 315 317 296 284 279 267 303 268 264 262 270 266 245 245 243 236 256 244 230 235 223 220 215 211 223 205 217 207 202 205 200 206 229 219 207 205
181 226 222 283 151 136 321 344 331 319 315 304 303 316 289 283 280 259 293 276 260 273 256 235 246 248 247 239 245 226 239 233 226 210 209 210 213 210 207 208 211 207 201 207 214 208 227
234 211 232 265 153 284 330 347 341 331 310 300 303 293 299 295 279 278 252 289 299 265 258 250 248 247 247 243 237 234 239 237 230 229 218 209 212 215 213 206 205 211 211 208 216 217 229
214 232 202 256 229 288 324 341 329 307 291 280 272 277 262 284 278 279 263 266 284 297 270 255 241 246 235 233 247 230 246 243 242 224 229 214 214 216 210 218 203 207 207 207 221 208 198
220 235 236 172 306 298 326 347 324 314 498 552 536 523 557 285 281 263 252 252 259 258 298 342 256 262 245 241 237 247 240 246 233 233 238 227 229 216 214 213 214 205 205 203 214 207 222
224 235 231 249 251 309 356 347 309 603 576 504 477 479 501 555 314 268 264 267 259 230 251 260 318 334 268 256 251 243 247 240 258 238 240 234 226 223 226 212 212 201 202 209 213 212 176
195 230 241 258 128 331 343 333 336 594 478 478 457 444 467 559 541 351 259 256 246 246 235 251 314 312 316 297 265 261 247 251 255 250 256 245 224 227 218 216 215 213 206 204 211 214 211
203 228 241 266 295 360 347 314 438 438 498 464 428 422 440 458 575 478 271 250 242 245 239 254 300 299 300 300 302 293 261 268 261 275 290 302 226 208 208 222 224 221 216 211 210 213 211
213 232 231 298 302 359 354 312 444 517 448 420 396 420 425 430 483 464 350 254 245 238 248 249 299 290 283 281 277 282 282 278 268 268 270 261 235 222 234 233 222 222 223 213 208 207 211
160 232 242 304 310 344 342 430 509 469 426 413 413 409 417 466 485 479 347 286 246 241 249 256 286 280 271 266 264 258 259 258 255 248 256 244 228 226 231 237 233 220 213 213 213 214 217
217 233 264 302 315 352 328 480 548 446 389 405 402 411 433 482 496 489 331 292 246 243 241 239 277 270 264 261 256 253 249 253 256 257 259 251 244 245 239 231 230 226 216 218 218 221 231
216 236 269 300 269 362 318 587 472 439 415 402 405 436 435 480 457 371 319 296 255 251 241 245 276 267 259 257 253 250 244 234 227 226 225 226 223 223 224 222 219 217 222 230 267 264 258
213 232 285 305 349 362 316 624 447 421 412 410 406 462 447 483 465 337 305 291 262 241 231 232 278 259 250 254 241 236 229 226 227 225 220 221 230 267 266 266 265 264 258 251 253 256 261
216 236 297 281 348 358 316 470 407 413 415 415 416 461 476 461 380 330 303 291 257 247 229 250 275 254 250 243 233 229 229 221 219 267 274 269 260 253 251 257 259 252 237 221 220 220 217
218 235 296 320 346 350 312 435 425 431 417 427 452 463 507 469 345 313 299 299 253 220 226 269 272 251 245 243 229 225 213 267 281 269 259 252 248 248 252 221 215 208 218 213 218 273 293
237 273 307 321 346 348 309 456 437 465 451 427 444 458 488 352 324 313 310 256 247 223 236 273 259 253 243 231 226 215 207 290 269 260 252 242 223 216 210 215 209 216 223 269 261 276 279
239 280 293 322 342 354 319 496 446 435 436 452 443 486 353 333 319 320 303 251 242 223 226 270 256 247 233 226 219 215 208 208 211 214 211 213 213 220 217 213 220 268 241 236 263 124 259
281 291 310 315 338 356 328 477 488 485 437 456 461 468 349 324 316 324 257 252 239 227 221 265 254 243 229 219 217 217 215 209 211 222 218 218 211 209 168 267 245 251 249 248 223 259 251
286 270 304 305 332 345 325 290 421 396 480 480 440 436 320 309 316 307 262 247 237 226 220 262 251 237 228 220 214 215 218 217 218 217 216 220 207 84 238 224 236 208 235 243 233 246 234
289 258 301 298 321 323 324 293 389 386 398 358 349 353 335 321 315 307 263 243 237 137 222 257 253 234 232 223 221 221 223 226 223 226 239 213 247 233 206 243 186 219 161 228 234 231 248
271 255 300 296 320 317 316 297 359 386 366 372 347 326 327 321 313 292 258 249 239 226 253 253 249 237 230 228 221 222 216 221 222 221 213 273 234 216 166 216 236 231 226 237 210 237 234
265 274 291 295 313 303 314 298 285 390 351 370 344 334 338 325 300 307 252 243 234 222 249 254 244 238 223 228 228 220 222 228 210 215 269 242 219 166 193 229 244 233 226 223 211 225 244
264 288 283 297 315 296 312 297 271 388 343 362 362 335 325 318 313 301 254 242 232 221 222 249 249 240 229 225 222 219 232 216 213 249 232 198 203 224 238 240 236 231 219 175 207 122 226
278 278 281 296 290 294 319 296 271 367 385 308 338 349 329 309 318 316 262 243 235 229 219 210 202 243 241 242 242 227 214 219 221 261 245 219 228 239 210 230 228 224 204 220 220 212 232
104 279 284 290 288 316 328 299 272 353 343 309 347 336 315 298 319 322 328 249 236 228 230 229 225 248 245 218 227 220 213 216 263 240 219 207 226 245 212 229 222 182 209 227 214 209 214
257 280 282 284 311 319 334 303 275 363 346 313 330 312 311 311 315 329 312 236 243 230 232 231 232 234 244 232 216 211 214 223 243 237 242 228 188 196 231 226 194 175 208 223 221 211 209
281 284 283 285 338 330 336 299 384 366 327 309 315 309 306 308 304 306 313 253 237 247 230 226 232 228 226 225 206 208 221 225 257 231 204 161 161 178 183 183 221 221 228 221 214 175 220

GFSGBSN_2pvu_pres_036.txt.gz
Presure
166 197 206 227 232 263 214 254 285 320 330 360 345 309 307 311 298 316 297 295 299 269 262 254 256 260 257 246 246 239 214 205 204 211 202 207 202 194 193 185 180 176 177 177 170 179 187
132 171 140 219 237 242 253 274 290 342 337 332 328 336 310 291 304 292 303 289 282 299 259 256 254 244 261 251 243 233 244 216 203 204 199 199 205 194 207 198 198 172 182 194 190 195 195
198 162 221 229 237 267 275 271 296 317 322 331 321 298 321 319 293 292 287 314 280 279 288 255 253 253 246 255 247 237 230 241 218 212 201 199 198 200 199 192 188 198 186 187 180 195 206
212 125 199 226 238 251 281 276 301 331 363 325 280 88 276 289 320 297 284 281 308 278 280 262 260 253 247 249 250 251 230 236 223 234 213 204 201 202 191 199 192 198 198 184 185 199 193
195 211 158 229 230 245 293 280 328 366 340 309 520 518 444 306 291 303 294 289 274 299 279 274 276 246 266 258 238 240 252 231 234 228 228 213 212 210 202 199 197 192 192 201 199 200 204
125 175 130 212 230 187 293 294 359 351 320 463 451 467 567 566 354 297 304 284 284 278 298 274 270 283 255 254 247 231 240 245 238 228 245 217 228 214 200 217 209 201 202 202 203 206 213
123 110 134 207 241 249 291 325 356 332 456 436 433 437 485 479 551 338 298 293 277 278 278 309 265 261 261 277 254 242 230 243 243 247 218 227 226 226 222 215 215 216 209 214 222 208 214
208 133 195 168 242 264 299 368 355 335 473 452 443 446 445 458 489 549 303 302 262 269 264 254 299 266 249 258 270 252 239 237 236 229 242 239 239 234 228 227 220 220 213 214 212 215 218
172 201 155 231 244 302 338 359 333 510 473 484 484 445 422 433 453 486 392 278 287 263 265 267 277 297 257 258 252 257 238 242 239 244 231 234 236 237 224 232 229 221 221 216 219 221 221
152 137 164 210 275 310 348 362 320 498 568 458 415 413 400 426 437 471 593 280 266 269 264 259 258 278 291 281 262 249 254 234 247 240 240 238 226 238 231 234 231 226 227 229 219 216 219
233 151 227 231 258 320 346 357 330 600 466 416 400 413 416 412 442 452 533 289 261 266 260 260 245 263 266 283 342 298 256 242 238 231 231 238 234 231 236 234 230 234 233 235 233 230 230
141 205 229 238 302 282 345 349 497 454 429 396 402 406 409 410 441 478 477 298 270 262 259 262 248 249 234 247 277 318 313 268 254 252 244 243 245 249 238 249 252 234 236 234 236 234 228
162 210 230 245 310 280 345 345 461 430 408 417 409 409 421 434 468 499 485 347 277 265 257 243 245 238 241 243 284 299 291 296 294 285 261 259 250 253 256 262 274 282 285 251 222 210 237
207 182 232 295 306 290 351 333 431 392 413 411 412 420 439 438 493 465 353 327 283 260 252 248 236 248 246 234 289 283 281 278 284 287 292 310 316 279 271 269 274 268 255 246 223 221 237
213 172 232 302 293 299 341 331 467 366 440 426 421 454 451 465 490 470 338 317 309 255 247 239 242 233 251 242 274 264 262 260 262 260 261 256 251 255 257 251 250 245 236 231 238 243 239
216 228 234 292 292 327 345 337 484 432 448 441 434 469 456 475 485 357 327 313 315 250 242 234 232 238 227 272 263 260 254 252 250 251 251 251 248 246 244 245 241 234 232 229 226 221 221
222 231 268 293 327 328 347 349 509 438 445 475 452 477 499 458 338 322 311 314 307 251 235 237 229 230 276 265 259 252 248 246 241 236 230 228 225 226 230 225 220 216 246 251 256 246 241
227 236 324 286 294 326 345 353 333 457 445 460 456 472 384 350 330 323 315 313 297 246 233 238 231 225 271 257 254 244 236 233 230 226 227 228 227 269 273 261 252 241 240 231 223 218 220
226 247 323 293 290 317 343 340 310 456 509 499 485 461 366 342 327 317 315 309 277 244 232 234 235 281 253 249 240 232 229 228 227 221 233 275 269 263 239 227 224 221 216 216 267 251 232
226 299 285 311 281 313 338 324 322 457 485 499 533 365 341 336 297 317 309 290 247 241 238 223 274 261 247 240 233 228 225 220 287 274 267 254 239 219 212 214 217 239 256 247 250 242 241
266 296 271 297 271 308 304 317 334 318 467 421 411 339 338 335 317 313 288 258 249 224 233 229 270 243 238 234 229 219 219 214 206 213 210 206 206 210 122 228 258 239 243 236 238 237 246
257 289 278 288 271 301 294 316 328 282 363 388 368 344 333 320 318 295 247 256 250 219 217 269 257 247 238 230 226 220 217 213 208 208 218 216 230 218 213 227 237 246 236 205 158 234 240
290 277 289 269 269 294 287 339 311 293 347 355 338 328 329 321 320 305 263 245 234 226 215 267 255 241 233 229 227 221 219 217 216 212 222 224 216 226 241 237 227 206 234 229 229 229 230
286 262 277 268 291 285 285 334 313 298 278 355 345 338 323 355 331 285 255 231 224 223 219 239 251 241 232 232 227 220 218 218 224 227 225 215 243 245 230 239 232 234 229 223 227 226 233
275 286 274 273 296 282 288 291 306 308 272 365 362 345 334 326 314 271 243 241 233 225 221 255 249 237 230 230 227 225 225 217 219 215 213 239 234 231 211 221 185 233 226 224 224 223 208
302 293 273 293 299 285 290 321 312 318 270 358 337 337 332 324 291 289 254 241 240 233 226 250 245 243 232 228 231 229 225 221 222 207 232 247 230 212 240 233 241 233 219 215 218 211 211
285 288 278 292 293 292 291 313 309 305 311 379 334 339 333 325 317 285 255 247 236 234 224 241 242 236 237 234 224 223 223 235 219 214 203 215 183 223 224 219 228 212 188 206 216 217 222
296 265 282 291 294 294 287 312 337 299 380 383 362 332 324 322 324 331 259 247 238 231 230 221 228 242 239 233 233 244 208 213 216 222 247 247 201 242 209 201 221 222 197 223 228 211 214
289 251 289 285 299 305 299 315 353 295 380 363 330 350 335 316 331 319 286 256 248 243 232 231 219 239 232 240 238 234 224 219 210 224 260 227 233 232 244 237 207 229 214 224 224 142 207

GFSGBSN_2pvu_pres_039.txt.gz
Presure
122 186 185 151 223 227 231 222 279 295 266 253 346 279 354 347 341 320 309 315 324 301 293 274 286 263 261 263 249 247 223 203 218 197 215 213 209 203 168 181 175 169 180 174 175 177 169
216 206 224 174 206 209 153 212 300 285 260 345 361 359 317 323 343 328 309 306 306 328 312 281 270 280 277 242 255 259 249 215 196 217 209 212 201 214 205 191 194 196 173 172 178 174 174
209 155 237 125 227 103 243 261 310 282 337 374 350 319 301 275 291 285 324 308 311 295 312 310 278 266 270 272 239 243 250 247 212 200 219 204 210 209 203 195 186 192 189 178 178 179 179
123 129 240 238 229 225 245 286 306 285 358 352 325 506 484 459 458 323 288 310 297 301 290 304 300 277 262 267 269 249 246 247 246 213 205 204 216 208 210 210 205 199 203 190 199 188 180
129 119 242 222 205 163 251 282 296 303 374 333 506 491 473 452 417 449 339 290 307 302 297 306 290 293 284 255 261 259 252 243 230 242 239 210 207 211 203 205 205 207 195 193 186 185 197
130 206 164 221 233 184 258 311 295 377 342 519 502 473 457 441 438 442 438 309 285 294 292 287 314 289 276 261 256 251 259 247 242 246 225 252 214 212 202 196 201 203 210 206 202 206 206
78 237 229 214 237 153 264 298 347 360 327 549 485 472 461 441 448 434 547 527 286 287 301 291 291 297 268 299 251 256 255 254 241 235 237 242 246 237 210 206 204 207 197 202 203 204 204
135 239 215 219 238 244 264 299 353 344 499 549 547 485 447 433 436 459 471 552 304 280 296 293 274 310 272 281 261 253 245 251 238 248 243 236 239 235 238 230 215 205 204 200 200 200 206
229 140 214 221 237 243 288 305 357 337 479 458 449 411 428 400 409 441 471 561 436 280 284 283 278 275 276 268 286 251 248 237 243 247 240 245 246 238 233 240 236 227 211 212 207 206 206
234 211 153 225 231 257 301 304 366 339 436 430 410 409 392 397 424 424 466 594 525 278 269 285 284 268 296 279 268 290 258 252 237 240 237 237 227 246 238 234 234 236 230 234 218 216 212
237 198 223 224 239 261 297 300 361 330 437 420 405 399 406 407 426 427 457 565 431 277 287 277 274 267 258 311 264 258 276 244 240 241 248 228 236 234 237 245 250 242 229 234 236 235 234
235 234 225 232 245 265 307 329 357 358 455 425 421 405 415 428 447 438 482 481 379 278 267 283 267 258 273 248 301 254 254 260 259 263 256 234 229 229 231 235 228 235 247 248 244 244 242
240 222 224 235 250 269 309 296 357 383 453 449 446 418 435 444 443 462 536 446 351 281 267 270 257 258 266 254 285 290 255 251 251 252 256 245 236 233 236 234 232 232 231 234 235 236 233
244 209 223 238 253 315 311 334 358 382 453 451 435 441 464 445 481 494 419 380 326 278 254 264 256 262 247 263 268 277 292 282 259 258 253 254 239 236 241 246 238 235 245 239 239 241 241
239 213 226 240 264 322 305 333 353 381 477 470 461 483 433 474 496 455 373 351 313 276 260 261 261 257 241 253 230 247 244 252 314 313 280 256 256 253 244 241 233 232 241 251 258 262 267
188 170 226 245 268 323 295 336 352 399 516 458 479 474 484 494 377 359 347 337 302 262 254 258 239 255 242 242 232 235 297 294 291 292 299 299 295 275 251 254 257 261 257 269 273 265 259
196 205 227 250 307 319 288 327 354 360 508 473 515 498 420 352 336 354 343 329 241 260 256 259 252 247 247 249 254 258 283 281 278 279 278 278 282 282 290 286 282 271 260 255 251 245 241
196 198 227 291 293 295 288 311 372 325 522 538 474 449 370 350 342 334 322 336 216 253 252 248 243 240 234 228 261 282 270 263 258 256 258 256 257 259 253 248 241 238 236 229 225 221 222
209 198 229 305 288 296 296 241 359 329 425 503 420 385 355 345 328 322 337 329 265 244 250 232 231 231 228 255 275 262 256 252 250 242 238 238 237 229 225 225 224 231 230 256 249 242 244
201 227 263 292 283 292 311 294 325 334 313 396 400 372 342 336 326 327 337 335 254 250 235 239 227 222 227 268 260 253 243 238 235 236 233 228 222 217 239 250 247 244 242 237 246 253 246
194 257 277 289 283 290 306 284 304 325 314 329 374 362 343 317 331 319 322 271 249 236 233 231 224 228 258 253 245 239 236 232 230 222 220 285 256 244 238 233 231 219 216 209 227 248 236
209 271 282 269 258 291 300 281 291 300 336 296 344 368 347 324 331 331 302 262 250 236 234 222 229 261 247 246 243 233 230 225 292 292 254 238 232 226 222 215 205 262 249 248 245 234 239
263 279 309 268 291 292 293 299 285 294 306 294 322 357 347 328 345 318 268 245 240 238 224 223 265 247 245 240 233 228 220 217 211 209 206 207 207 208 232 225 180 248 246 219 235 230 229
272 291 293 277 291 279 291 292 288 297 301 291 296 364 350 337 319 272 252 250 228 219 227 272 251 243 237 232 226 225 219 211 211 209 210 217 222 230 224 235 229 238 237 232 229 227 231
272 287 272 262 291 278 298 293 315 293 314 294 289 356 349 348 299 273 248 245 229 224 217 264 247 240 234 228 223 218 216 215 211 211 214 234 223 217 244 244 248 243 175 220 223 217 214
274 282 286 309 267 283 302 297 312 297 319 322 289 352 347 343 343 280 253 243 242 219 222 257 248 241 233 228 224 220 216 214 213 217 234 224 227 221 189 231 231 241 231 220 215 213 219
278 285 281 272 308 282 303 308 314 315 321 289 303 358 341 328 318 281 261 250 245 234 226 256 251 244 237 231 226 224 219 219 214 233 212 213 232 256 243 239 237 245 219 220 203 216 218
281 281 232 281 295 288 296 328 323 338 317 308 383 367 348 323 321 316 260 251 247 244 232 222 252 248 239 231 227 227 226 220 220 219 212 227 251 242 241 234 235 168 220 227 225 210 218
280 278 293 281 302 296 304 325 323 327 320 404 386 358 341 338 325 303 278 262 254 237 241 229 247 249 245 235 228 222 218 218 232 216 219 253 237 248 225 192 199 219 235 220 215 218 225

GFSGBSN_2pvu_pres_042.txt.gz
Presure
152 95 151 229 223 213 232 235 255 270 333 325 298 297 262 326 198 313 351 348 328 336 319 326 312 281 280 287 271 240 222 205 223 186 224 218 203 199 193 187 182 172 166 172 170 156 163
103 165 161 237 242 223 232 232 257 284 305 267 322 363 320 498 497 354 308 295 344 340 329 331 326 304 279 267 281 262 239 199 208 224 191 198 222 218 211 195 192 181 162 168 168 180 157
130 131 233 247 252 224 239 246 263 295 332 304 311 331 570 524 538 509 484 312 296 328 312 305 311 303 300 263 271 260 266 237 213 210 221 195 204 216 216 210 201 197 188 181 186 175 189
125 86 182 253 207 228 232 250 270 315 283 312 352 556 542 534 528 473 428 588 307 332 332 316 316 312 293 291 258 259 270 266 237 208 208 207 221 210 214 205 204 201 196 188 187 186 185
141 129 249 255 199 200 241 259 274 328 300 365 503 548 519 491 476 462 454 448 383 298 318 314 308 322 299 296 259 262 276 260 271 238 218 213 194 216 217 215 214 210 212 205 214 202 193
150 191 252 252 198 225 242 264 329 327 308 364 489 538 505 477 463 445 439 426 435 307 297 316 298 305 300 291 276 263 255 254 261 268 244 221 215 189 214 209 208 215 209 213 206 206 207
172 241 258 210 196 226 243 267 339 335 337 364 467 456 441 428 444 444 430 427 418 313 297 294 304 296 303 299 273 275 258 267 246 259 262 241 231 210 207 194 210 212 208 205 208 196 211
172 155 151 193 203 227 245 274 337 304 366 390 455 433 418 417 406 435 446 414 427 419 301 285 297 295 292 288 287 224 266 268 274 243 247 245 251 241 214 212 203 198 211 211 203 208 203
135 241 211 193 202 228 245 296 287 307 357 451 449 435 423 407 407 417 429 455 424 498 301 287 293 284 282 299 288 266 256 249 252 269 242 240 240 229 246 222 211 211 200 201 204 206 210
141 237 210 192 203 233 253 321 285 333 352 449 437 442 427 410 409 414 434 467 578 467 293 286 287 275 286 298 280 293 260 251 257 262 266 244 240 251 243 236 247 220 209 210 207 205 199
144 156 203 191 204 232 268 312 287 334 348 454 444 444 433 425 425 435 441 505 581 445 288 280 268 283 289 294 277 268 279 281 249 248 261 257 242 240 241 250 248 248 236 236 215 208 208
92 251 200 193 210 233 269 324 309 345 445 483 460 458 434 431 444 437 471 561 478 412 287 280 164 267 289 274 291 268 265 284 259 248 249 252 251 257 241 235 228 237 241 243 244 247 204
118 149 186 207 212 234 284 323 341 358 535 474 460 457 443 456 444 467 488 479 420 334 286 271 283 282 278 256 298 261 264 264 267 245 245 245 241 248 241 240 241 236 244 253 227 237 235
139 205 195 203 212 239 274 332 339 355 504 485 484 471 460 471 484 451 466 378 371 303 282 277 283 272 270 257 250 298 265 257 271 253 243 244 241 242 243 241 231 243 238 227 245 242 240
138 135 156 209 211 262 301 325 338 363 517 520 487 486 522 505 440 401 356 353 328 289 279 282 282 267 264 267 244 247 301 264 259 274 267 246 247 251 251 256 250 244 239 237 239 239 236
136 158 176 204 237 271 287 321 307 359 364 525 449 394 427 409 378 367 345 360 295 273 272 276 258 273 253 257 247 274 287 284 256 261 256 271 274 254 251 263 262 247 237 228 229 232 237
140 203 194 212 242 299 284 315 302 348 355 419 412 388 373 385 362 396 355 323 280 267 270 272 256 256 248 247 264 261 263 275 291 268 263 255 256 255 250 250 250 255 243 242 242 244 249
240 200 190 213 276 297 296 312 295 348 346 340 396 377 393 379 337 303 316 286 269 267 261 262 259 258 250 247 234 233 238 236 303 299 301 302 295 262 257 250 249 253 257 261 269 247 251
159 197 184 215 283 276 287 310 284 312 324 324 341 403 363 353 340 334 276 271 255 262 264 241 246 243 233 233 235 249 288 283 280 281 281 286 290 290 291 292 297 299 295 293 289 276 263
203 195 158 222 282 274 285 307 277 306 321 333 322 384 353 361 363 331 260 271 255 254 243 249 237 237 235 233 277 270 260 260 257 261 261 260 258 258 257 257 258 256 251 243 236 226 244
202 191 193 268 96 286 290 298 272 297 319 311 318 375 356 363 340 288 270 263 260 240 236 232 227 229 234 280 267 260 254 251 249 249 246 244 239 235 234 234 231 225 231 258 249 243 238
132 194 213 240 270 272 288 296 277 290 313 307 329 332 378 331 356 286 258 248 244 236 236 229 229 231 275 260 257 248 247 241 237 238 232 228 225 224 223 267 261 252 237 227 219 233 208
212 207 230 280 308 278 284 269 282 284 300 315 328 300 377 365 326 281 261 253 239 243 230 230 231 263 258 259 246 240 240 231 227 224 220 282 270 253 243 237 229 214 207 212 228 242 246
182 231 284 276 308 283 287 269 291 285 297 310 322 302 345 380 315 273 261 255 248 238 232 231 241 255 250 244 243 232 223 229 292 276 249 238 228 216 210 207 211 219 245 244 242 217 236
180 282 279 279 307 295 281 270 294 290 298 317 312 307 307 377 294 279 265 258 250 245 232 231 266 254 243 239 231 223 217 221 212 216 214 209 208 217 216 220 221 243 240 238 200 228 229
138 285 273 284 311 291 293 277 292 290 291 303 325 309 301 377 298 286 270 263 243 233 231 233 256 246 239 233 232 222 221 215 212 213 215 217 217 224 222 217 234 234 250 237 231 225 229
282 285 278 304 272 289 293 268 312 282 304 304 321 304 391 375 350 285 278 266 255 242 234 262 255 244 237 229 229 225 220 216 214 214 214 221 233 219 240 229 225 243 242 232 223 224 221
293 287 279 305 298 286 289 312 316 300 318 330 326 388 370 361 333 294 278 266 252 249 237 230 255 244 238 235 227 227 221 220 214 214 221 232 220 211 256 251 244 244 244 235 208 222 211
298 288 292 300 305 274 286 296 319 309 336 343 460 390 361 339 334 328 276 280 260 255 244 233 237 249 239 233 232 226 225 222 214 220 216 230 206 232 197 249 242 241 243 220 221 223 223

GFSGBSN_2pvu_pres_045.txt.gz
Presure
119 143 159 213 96 193 204 222 240 264 274 322 321 332 328 358 512 506 539 460 423 316 360 324 340 350 337 306 294 290 251 237 225 196 218 208 205 165 153 192 175 167 173 183 186 182 175
141 113 77 238 203 193 202 219 242 257 300 321 318 338 374 509 501 532 522 539 465 370 333 336 348 327 347 322 295 282 284 249 232 210 193 191 199 199 218 195 195 178 167 168 170 183 185
113 138 109 200 203 184 201 221 245 264 322 325 350 361 512 543 507 498 512 506 480 427 316 341 329 314 304 309 314 286 283 267 237 226 208 212 184 173 196 218 154 213 170 169 182 168 165
100 143 120 135 203 186 199 225 249 272 324 313 345 386 489 495 486 478 481 157 499 464 330 313 339 336 329 324 322 277 279 288 252 229 232 207 206 213 170 200 224 216 174 174 165 170 181
143 141 111 162 222 187 194 233 252 280 328 327 340 458 465 452 476 458 459 463 465 447 372 308 339 331 317 306 326 280 284 270 263 243 233 205 231 222 202 174 223 195 216 181 177 125 175
143 135 109 121 242 190 203 230 257 284 334 339 354 450 456 444 429 440 439 437 443 453 412 310 317 331 298 310 310 281 276 274 270 256 238 234 216 233 189 223 180 215 202 174 194 185 163
157 145 213 131 242 191 218 231 285 317 337 323 453 452 439 432 419 423 429 429 431 436 447 314 304 317 291 309 309 289 268 271 271 277 247 227 232 231 211 194 222 185 218 216 216 206 206
115 137 152 132 203 193 204 234 284 322 349 360 349 456 429 434 423 419 422 440 417 420 447 318 295 316 299 289 303 295 276 263 266 267 280 243 229 224 198 214 203 213 199 200 205 222 218
143 157 147 132 143 190 219 234 304 332 336 360 492 456 433 432 418 413 416 427 416 406 436 315 291 308 305 294 301 283 271 277 263 263 269 265 239 227 226 215 205 220 217 196 220 220 207
155 144 147 130 215 144 216 229 323 310 313 445 479 447 445 432 429 418 428 448 416 397 422 311 284 276 288 277 290 296 274 262 276 258 263 265 263 261 237 225 223 201 201 208 184 218 211
126 175 129 135 201 197 217 233 334 323 371 503 473 435 438 435 425 438 448 462 418 426 378 307 281 264 291 293 300 279 291 269 264 266 250 247 257 267 266 245 225 223 220 213 212 201 179
151 196 227 137 206 201 219 239 321 344 366 465 502 476 431 447 410 442 462 426 407 401 316 295 278 188 148 298 296 282 278 285 270 270 252 256 257 265 258 249 257 243 221 227 222 217 211
119 128 224 160 230 201 221 242 318 357 385 514 492 475 458 483 446 512 442 415 416 370 308 294 278 151 286 291 278 281 272 286 276 263 271 257 248 246 247 254 251 251 252 238 247 247 224
161 126 237 227 243 201 223 301 314 354 370 544 555 536 412 386 428 467 465 431 394 353 302 294 272 279 275 280 270 282 281 269 283 265 250 252 265 258 261 244 241 242 258 250 246 232 244
127 147 226 215 218 195 227 292 164 328 356 446 437 411 381 367 377 324 425 421 365 321 284 279 271 283 279 272 258 288 278 264 267 287 249 266 247 247 247 263 251 238 234 235 243 241 242
126 233 206 181 213 152 229 290 310 304 335 367 400 396 377 358 354 396 365 371 312 243 275 282 277 278 270 251 268 294 284 264 269 263 287 266 256 248 246 236 252 247 256 241 233 235 244
185 201 135 209 166 164 238 285 308 306 317 358 391 392 374 339 350 361 372 291 291 277 275 279 267 265 268 257 251 252 290 276 273 256 268 270 267 260 258 251 243 245 238 247 248 250 239
126 136 135 188 201 242 290 283 306 302 305 344 312 384 379 358 372 324 286 279 274 279 280 265 267 263 265 266 249 246 293 296 277 260 256 266 266 258 239 247 241 241 250 246 240 248 241
197 191 133 199 157 197 281 288 306 291 297 327 338 375 387 322 291 275 268 218 283 274 266 272 249 259 251 252 251 247 254 262 281 279 255 252 253 258 273 263 249 246 248 251 247 264 258
170 201 132 207 253 247 280 298 305 290 293 303 328 352 392 270 278 283 272 272 266 240 256 253 245 239 237 237 235 233 234 239 242 248 265 269 258 254 255 251 256 259 260 259 250 250 250
198 198 125 240 289 297 280 251 301 287 313 297 320 333 372 279 283 276 268 271 266 241 254 252 239 236 230 239 244 276 241 266 284 288 287 288 291 294 293 293 291 282 280 280 283 287 289
126 137 123 290 290 289 281 278 307 290 310 288 303 310 344 299 288 281 270 267 256 252 246 235 235 236 232 243 274 264 259 260 260 264 270 272 270 271 272 274 276 272 264 260 257 238 226
198 136 122 289 285 283 305 277 299 289 289 307 304 309 329 333 288 260 270 263 242 245 239 237 236 237 238 273 264 261 256 250 251 251 251 251 252 251 248 243 237 232 226 229 264 252 237
232 136 118 292 289 283 287 284 301 289 293 297 302 297 307 344 298 275 275 266 252 242 239 237 238 237 274 262 259 250 249 247 245 240 234 232 230 229 223 252 263 267 249 201 222 211 223
135 297 185 292 284 300 306 302 295 281 290 280 297 288 303 296 354 286 264 276 265 255 245 240 241 245 263 262 253 244 240 233 232 229 227 225 256 282 269 233 220 215 208 214 231 235 235
109 299 198 293 296 302 302 303 296 287 286 302 293 301 300 321 295 317 282 266 277 252 222 244 243 277 259 256 246 233 231 228 290 293 291 267 212 212 218 216 222 220 209 246 228 232 231
106 288 294 311 320 296 317 306 290 300 285 286 302 296 302 347 373 362 292 284 260 267 254 248 234 274 256 250 240 231 224 272 227 215 219 215 217 216 221 221 223 242 230 224 234 231 226
289 176 262 306 313 296 316 301 297 304 297 293 326 322 460 406 376 362 315 278 270 267 252 240 231 268 256 246 238 228 223 223 221 217 219 215 215 230 222 218 254 245 242 243 240 229 228
300 287 311 196 303 307 318 300 297 311 296 336 334 612 443 389 365 347 341 292 276 269 262 247 239 268 253 246 236 229 224 224 226 222 218 217 221 235 218 233 222 238 242 236 239 232 226

GFSGBSN_2pvu_pres_048.txt.gz
Presure
127 131 128 136 110 119 252 195 183 173 241 290 327 316 334 373 357 493 498 512 493 522 470 400 331 354 329 347 343 317 300 257 241 226 225 238 193 224 208 193 156 184 170 183 181 179 176
119 119 116 89 235 125 194 201 181 193 243 304 337 328 329 365 485 488 503 496 487 492 483 421 331 339 326 344 336 343 320 274 249 236 226 212 207 194 217 206 192 148 186 173 168 168 188
116 109 127 143 230 216 198 199 181 228 276 300 322 344 356 462 453 467 479 463 458 306 500 453 364 310 342 334 334 338 313 298 301 240 229 219 209 195 202 199 188 186 188 182 176 173 161
128 152 121 141 210 179 214 226 236 237 299 328 330 358 482 458 442 447 451 452 467 468 503 455 397 317 350 332 322 333 307 291 244 259 231 228 222 227 191 224 231 217 164 195 186 175 180
139 166 126 116 136 161 220 221 219 241 301 337 329 452 482 457 435 437 423 442 447 471 501 448 396 317 336 326 324 329 296 287 288 288 247 226 225 228 204 196 216 181 187 215 193 193 182
158 147 170 208 213 209 214 201 168 242 329 328 354 485 479 446 421 432 416 412 435 442 480 466 391 321 315 325 292 326 303 283 276 286 277 242 227 225 222 207 193 192 206 178 159 222 147
140 142 142 117 133 232 164 175 220 249 335 335 530 498 474 437 421 436 408 412 428 425 462 432 389 312 309 319 321 337 315 295 281 275 276 280 238 221 213 214 212 193 196 221 175 221 168
144 146 134 143 106 211 212 196 235 259 310 349 493 473 441 420 424 412 408 407 415 446 449 413 364 304 314 312 314 288 311 292 283 280 282 265 260 230 218 217 222 205 195 189 185 205 214
146 147 126 138 225 208 211 197 245 300 307 343 500 470 441 414 438 431 418 422 423 430 437 389 333 297 296 310 300 304 316 294 295 272 265 265 270 258 228 219 216 228 194 200 214 135 171
150 106 164 220 227 155 209 206 260 319 351 538 506 482 443 431 422 431 432 435 416 422 436 363 311 294 305 308 304 301 304 294 282 280 267 267 271 268 254 230 221 221 219 203 211 217 193
151 127 161 212 235 199 87 234 260 299 300 448 469 497 463 441 423 424 444 434 406 533 378 347 303 286 304 305 302 306 288 301 286 274 262 272 271 277 249 260 233 224 219 222 221 219 215
149 144 161 166 125 132 211 240 191 297 293 437 404 430 516 456 453 457 486 417 476 423 347 320 296 274 232 304 294 298 287 294 282 275 271 255 272 261 261 256 250 232 223 225 222 214 223
148 154 152 177 126 193 211 260 289 295 285 402 398 384 426 530 484 547 420 396 421 364 343 305 290 275 302 304 290 285 283 290 281 266 273 270 263 262 269 275 248 240 235 223 226 231 220
147 152 164 170 122 200 218 275 287 293 284 416 399 385 396 443 419 418 394 393 364 335 316 301 274 265 313 303 276 279 282 294 284 274 266 262 253 257 260 258 261 238 243 228 222 219 223
152 151 162 219 123 194 230 291 282 284 315 386 413 374 367 377 417 419 389 367 337 321 305 294 279 266 311 266 269 289 284 278 292 269 264 257 266 260 256 260 263 255 253 238 226 226 225
152 146 161 215 118 144 244 292 278 282 309 327 385 389 364 367 377 401 379 354 319 305 277 263 271 282 266 288 268 281 284 283 279 281 280 261 252 269 255 247 250 250 266 260 253 251 254
154 147 159 148 117 178 280 261 284 280 309 321 407 374 284 300 315 314 286 273 272 266 270 269 290 262 271 269 261 279 283 279 269 257 278 277 271 261 259 257 238 253 251 252 250 250 244
154 156 142 190 121 237 296 90 279 280 309 324 345 338 301 290 298 287 279 280 274 239 283 278 280 267 277 269 284 293 282 271 270 267 260 281 264 275 251 268 253 244 244 256 259 244 241
151 114 170 170 120 132 295 285 279 290 305 292 311 380 319 300 294 292 289 286 275 282 277 278 279 280 254 248 250 252 287 277 274 252 265 262 277 270 254 250 261 260 242 251 244 252 256
187 205 188 171 122 133 293 283 274 317 299 295 307 321 312 298 289 269 293 263 274 273 251 261 262 264 263 255 252 263 280 293 281 263 266 253 258 266 266 267 268 267 261 257 250 247 250
149 189 190 119 319 133 291 284 288 310 304 295 283 298 300 311 297 261 279 278 264 257 245 251 248 253 254 254 248 249 252 252 282 287 273 254 250 261 266 261 257 253 249 252 242 243 242
178 184 144 162 303 134 289 289 289 305 297 298 294 299 292 338 303 291 259 278 252 223 255 246 249 244 247 245 243 238 240 241 299 251 275 277 272 248 246 249 254 258 264 267 269 268 270
174 215 309 211 299 296 286 164 203 275 306 296 303 289 305 274 344 294 286 271 258 253 254 251 244 245 240 240 247 278 278 240 278 284 288 289 264 263 266 266 265 266 272 271 272 273 305
238 308 307 174 210 118 292 263 290 192 293 299 297 288 301 304 286 331 285 281 271 248 253 248 243 243 242 242 277 268 265 263 263 266 271 273 277 279 284 283 282 285 283 279 258 242 232
118 313 318 175 137 117 299 304 313 203 311 296 300 285 291 306 307 283 325 285 278 266 253 253 225 240 236 267 272 266 264 256 254 257 256 254 255 255 245 242 237 232 228 226 259 256 243
348 326 319 307 299 119 298 290 318 308 309 303 301 292 294 308 300 286 314 322 282 273 250 252 249 243 244 273 265 259 254 251 247 238 236 232 235 223 223 230 282 279 261 235 220 218 215
311 311 266 302 229 112 306 312 311 314 307 305 302 295 297 303 295 303 295 322 326 282 267 252 252 245 237 277 266 257 248 238 233 235 230 229 250 279 285 244 219 216 220 215 214 219 237
305 294 290 244 166 164 296 298 329 306 304 311 294 308 314 318 316 345 365 377 331 297 280 240 257 247 233 277 267 249 237 236 231 278 292 246 214 209 214 226 220 215 218 238 247 221 229
292 272 204 291 287 332 322 319 334 307 309 318 321 329 332 474 458 406 371 358 348 312 276 266 249 249 223 276 255 248 237 230 311 219 210 216 221 215 228 221 224 232 247 244 239 234 236

GFSGBSN_2pvu_pres_051.txt.gz
Presure
98 158 140 129 133 188 155 234 211 202 215 277 293 303 333 330 331 442 471 476 478 500 521 505 504 418 381 338 344 324 358 364 307 264 239 231 217 220 178 189 176 165 176 143 174 176 170
145 143 139 145 145 121 216 204 211 208 166 298 301 295 339 334 500 471 454 450 457 467 476 463 492 476 385 331 344 335 328 353 332 320 259 235 209 234 216 204 194 186 164 175 137 180 174
115 138 130 123 156 196 176 209 203 220 241 297 308 335 346 511 483 455 438 434 434 455 453 454 463 467 411 326 341 311 318 361 325 322 293 240 231 208 227 219 204 197 184 170 171 137 178
120 140 111 123 125 138 124 254 205 229 286 300 297 346 474 480 472 449 426 421 420 426 446 457 468 459 441 331 332 282 324 348 336 306 301 256 245 231 237 217 219 206 191 185 183 161 182
148 120 127 152 137 125 230 213 213 244 239 304 296 392 498 475 465 431 416 423 410 426 443 459 478 449 410 326 330 307 310 320 322 318 320 281 245 232 232 205 189 213 191 192 182 185 166
146 125 134 142 155 97 160 192 221 254 259 306 307 448 474 450 421 434 411 407 415 424 434 509 494 425 401 308 327 307 319 333 323 301 293 290 279 244 216 227 232 202 205 199 172 188 152
151 140 143 146 152 126 199 154 223 273 311 305 368 482 477 446 436 440 403 399 418 423 438 516 525 400 344 307 320 305 306 304 311 297 313 316 277 250 236 223 200 231 209 187 213 207 198
110 135 149 151 152 153 196 190 229 301 309 305 378 441 450 448 430 439 439 418 419 433 445 548 411 379 317 300 320 307 311 295 275 317 297 295 298 272 234 222 222 222 198 224 189 204 215
110 102 122 151 158 154 238 158 243 304 307 303 415 407 495 441 425 419 441 432 439 439 514 430 379 358 307 297 317 307 324 287 290 299 283 275 297 278 265 238 225 219 219 200 224 186 203
135 135 148 153 154 163 219 152 268 305 301 299 413 377 476 480 448 442 442 444 423 444 448 379 365 347 299 284 307 293 293 288 288 289 272 260 289 290 269 240 228 225 225 223 204 204 183
111 141 148 158 153 161 159 158 309 303 223 296 411 343 463 544 471 463 452 419 430 426 391 367 354 326 291 278 307 303 334 296 280 283 264 275 268 297 286 272 243 224 221 223 222 219 197
123 140 146 156 152 182 122 163 312 302 292 294 413 328 451 451 528 438 423 451 419 378 367 349 314 235 280 279 302 306 297 304 280 275 270 263 269 275 289 261 265 239 224 215 219 214 212
139 112 148 155 153 142 144 278 304 297 288 291 400 334 463 433 433 480 459 401 372 360 356 328 307 288 299 221 303 280 278 304 290 275 273 264 259 271 275 279 285 266 233 224 220 216 213
126 96 143 109 153 119 194 301 146 290 288 267 343 333 299 500 460 404 380 366 358 338 315 299 288 276 303 302 304 278 292 310 295 278 279 266 280 290 282 284 279 278 258 232 223 217 213
129 119 145 206 202 132 191 269 293 284 206 270 306 318 301 320 323 354 355 352 339 330 321 288 277 310 305 311 294 288 293 284 302 289 277 282 281 285 273 270 267 257 273 260 237 220 215
155 124 151 203 186 116 319 121 291 280 283 284 290 318 307 285 312 317 314 288 286 275 281 273 297 297 301 292 282 280 299 292 286 298 283 265 268 270 274 269 269 272 262 248 256 255 240
141 142 196 192 173 242 230 124 289 278 277 292 297 329 310 291 297 306 295 281 281 279 291 294 306 289 296 280 278 285 277 286 278 268 287 285 268 266 259 256 246 264 257 249 255 250 257
128 131 229 155 175 195 219 162 299 279 275 279 300 325 320 331 297 308 303 287 281 283 306 282 284 281 296 289 273 272 292 282 273 279 282 281 262 254 268 254 262 253 256 255 250 258 256
155 127 151 177 167 337 106 305 285 284 277 276 303 309 329 316 297 263 303 291 294 292 294 281 279 283 276 274 280 281 274 283 282 280 271 282 275 268 269 256 259 253 253 257 255 252 254
124 183 191 175 170 194 206 303 145 287 278 279 307 299 299 338 286 293 285 280 275 270 249 287 279 261 257 258 261 291 292 289 284 265 262 272 281 280 273 261 260 265 261 255 246 243 244
166 207 149 176 305 325 321 299 290 287 284 283 306 294 280 302 332 289 270 274 273 258 264 257 269 268 261 256 257 271 288 286 277 269 262 259 259 278 275 270 275 264 256 256 252 247 254
134 138 171 254 332 329 208 293 112 283 289 281 315 303 296 285 295 329 285 273 264 268 271 258 222 257 263 258 253 254 253 258 293 282 252 251 255 258 265 269 269 265 257 249 261 259 251
118 169 178 295 331 323 299 287 290 277 296 284 316 306 296 284 304 295 316 275 259 262 265 231 261 247 254 254 246 244 245 244 251 284 286 267 258 248 255 262 263 262 261 263 265 268 270
137 178 244 321 320 264 226 262 287 278 297 311 325 307 303 291 291 297 279 303 295 267 263 257 229 247 251 243 241 279 285 281 278 257 254 283 282 267 252 255 254 263 266 261 257 257 257
188 170 202 342 302 288 303 298 137 284 276 315 323 306 295 301 295 303 283 283 299 299 274 259 254 238 225 244 233 279 269 268 268 276 287 289 285 271 271 272 268 257 256 258 272 285 291
278 165 314 281 300 313 220 309 306 298 321 333 321 306 306 301 296 303 295 279 286 308 304 255 264 249 246 226 237 275 267 263 254 251 255 262 268 277 285 288 290 291 289 276 262 252 246
288 314 266 295 334 341 343 324 318 338 317 331 319 306 314 293 305 305 283 303 296 285 322 300 258 259 235 247 233 267 262 257 251 249 246 244 239 239 236 232 229 226 228 229 241 263 257
278 290 311 378 371 351 342 328 332 320 319 328 312 322 307 303 314 307 302 301 299 297 302 321 286 249 252 227 234 261 261 251 244 239 236 235 229 224 227 243 264 281 266 239 221 223 215
283 286 315 382 369 209 339 327 318 344 326 302 318 319 313 329 328 320 398 392 362 354 339 308 327 271 251 241 229 261 260 247 238 235 230 225 279 276 282 227 214 210 225 223 217 222 231

GFSGBSN_2pvu_pres_054.txt.gz
Presure
138 140 96 101 112 148 162 134 117 192 259 317 314 309 294 340 553 536 518 495 469 459 447 441 446 437 400 383 354 310 321 319 350 272 279 240 231 235 204 205 182 182 189 138 166 169 170
99 144 136 137 84 154 159 176 117 197 299 322 314 308 344 441 465 491 470 456 447 442 439 462 488 495 428 418 359 290 173 302 336 361 273 249 226 210 232 194 204 171 186 185 149 174 173
141 115 140 152 93 162 156 160 151 208 304 325 311 307 424 370 491 469 449 439 433 424 423 447 453 459 482 412 384 347 322 325 321 355 355 275 241 239 206 234 197 199 174 190 182 178 170
135 134 135 147 143 101 153 228 171 214 313 323 312 333 424 475 470 437 456 432 431 416 404 421 440 440 458 487 391 336 305 332 322 341 355 264 273 230 229 219 211 204 195 182 171 183 184
145 102 135 129 128 162 153 227 192 332 321 318 309 381 363 351 452 435 436 417 420 405 410 424 432 442 456 489 393 326 308 316 309 331 348 321 276 241 239 228 238 203 199 190 183 186 162
136 115 142 108 182 113 155 223 192 322 327 315 305 365 455 434 429 425 440 413 405 416 422 429 441 450 461 455 382 324 308 315 318 311 331 335 295 270 228 235 219 229 208 196 188 162 185
114 144 127 136 163 164 146 220 195 312 323 312 304 373 354 473 433 420 441 431 416 416 421 432 480 467 439 423 380 322 308 315 309 298 317 329 301 268 259 225 219 211 215 210 201 192 185
119 147 123 150 136 164 190 165 185 311 318 308 303 369 353 483 446 430 446 436 423 427 430 508 507 439 393 373 340 300 289 306 299 291 324 314 315 305 258 235 223 219 228 210 212 200 174
120 140 120 145 160 165 177 137 196 312 312 304 299 358 397 490 455 452 456 445 430 453 465 422 409 391 379 338 309 291 285 312 301 294 308 323 309 318 295 251 237 219 222 231 198 213 187
99 142 122 152 155 115 170 198 195 312 304 303 295 355 338 478 474 446 435 446 576 431 401 376 372 356 353 323 302 297 286 272 318 280 306 304 320 301 297 292 256 235 217 220 230 202 213
122 145 109 119 149 162 160 197 152 311 297 303 293 350 329 483 465 458 515 436 417 388 331 356 347 235 334 309 304 293 291 276 295 283 293 286 308 319 286 299 278 251 236 219 220 229 198
119 139 119 159 153 160 168 192 125 308 295 302 294 346 328 465 473 467 452 414 389 382 360 343 364 325 311 297 298 305 290 277 272 294 299 302 280 301 326 310 277 272 261 232 231 217 226
148 121 134 160 133 175 142 181 127 306 293 291 293 342 320 374 351 399 385 369 394 370 363 354 321 305 299 301 312 295 280 268 268 276 285 281 295 287 298 286 291 273 265 260 226 233 220
147 151 158 126 147 148 171 177 324 190 292 282 291 345 314 272 327 330 333 331 367 368 340 328 310 298 291 322 302 278 279 287 280 283 274 272 276 282 282 303 315 277 263 253 250 224 228
148 154 123 153 143 147 188 177 325 308 289 281 286 287 327 298 326 315 292 292 293 287 310 286 293 286 275 318 307 303 290 284 277 290 279 276 274 275 276 283 299 304 263 248 258 248 221
149 166 118 144 141 151 183 177 125 260 285 281 279 283 338 311 299 308 306 308 292 297 299 317 308 310 307 302 296 290 293 286 279 282 273 266 282 274 276 281 282 291 273 254 246 248 250
148 151 149 136 125 173 153 175 313 284 203 281 274 294 311 313 308 300 305 309 307 293 323 320 308 187 304 305 298 300 294 298 289 283 277 277 283 273 269 275 274 287 293 298 249 238 235
128 151 152 126 128 202 177 301 269 304 132 280 274 290 278 336 301 290 299 302 303 271 324 310 313 302 293 296 298 291 302 291 310 291 281 272 270 264 276 283 277 288 284 288 287 246 246
180 143 151 146 130 244 172 162 269 293 136 283 280 276 277 314 318 288 295 289 288 271 280 295 303 295 288 274 273 287 289 290 272 285 297 284 275 272 268 271 275 279 290 287 254 267 267
141 140 164 151 144 169 224 163 191 300 252 289 286 275 315 306 312 308 284 284 283 280 294 285 281 276 279 283 287 280 287 283 279 273 290 272 289 282 272 260 254 252 253 258 260 257 250
142 146 191 176 149 262 173 282 284 342 311 289 290 274 289 303 303 319 302 277 265 265 261 254 265 266 261 258 271 298 285 282 277 266 263 267 278 268 272 276 259 260 256 257 256 249 257
137 151 230 142 286 237 216 259 343 347 320 338 294 305 325 311 298 306 320 302 276 269 267 268 237 248 266 268 266 268 292 292 289 277 271 268 270 270 274 272 265 268 266 259 260 257 254
146 153 180 140 295 269 231 256 306 267 328 337 183 289 307 310 308 296 299 306 296 278 268 257 253 244 241 254 250 246 249 254 291 289 271 262 260 264 279 276 272 270 263 250 261 259 250
172 158 143 179 284 136 274 266 379 357 336 351 306 329 326 308 306 299 291 296 289 307 276 266 268 247 254 226 244 243 279 272 244 263 279 274 258 256 257 264 268 268 266 269 268 259 250
137 166 251 272 186 283 267 287 381 358 242 359 321 335 324 310 301 300 294 304 282 288 305 284 266 263 244 252 234 244 281 279 282 299 273 293 271 255 258 250 257 262 262 262 265 266 266
182 148 162 192 169 163 256 298 398 116 197 328 153 341 323 309 307 295 292 298 303 275 288 292 285 268 259 238 235 237 272 266 267 270 282 297 283 288 277 260 251 249 251 256 261 259 256
205 239 267 278 278 250 249 290 315 122 355 337 347 296 310 313 309 304 299 296 296 286 305 291 291 308 267 251 233 234 262 264 259 254 255 259 268 286 289 288 277 273 264 249 250 252 261
250 249 243 187 276 265 272 295 283 127 349 346 317 335 317 306 314 307 303 302 298 299 300 296 289 295 278 265 248 241 236 257 260 249 250 251 254 254 255 257 265 275 279 280 278 271 266
270 160 269 284 252 260 269 346 328 332 328 345 333 321 311 321 324 310 312 305 298 296 296 295 278 289 304 267 248 240 241 259 253 245 244 242 240 237 236 233 229 228 227 225 225 228 240

GFSGBSN_2pvu_pres_060.txt.gz
Presure
136 134 137 116 110 148 151 138 151 209 231 207 211 238 319 388 380 497 462 475 464 458 454 469 483 508 416 345 320 310 319 296 280 321 260 253 264 262 196 206 151 194 182 188 177 155 180
103 132 126 135 141 140 137 136 110 205 230 184 127 285 322 388 491 494 464 445 443 443 442 425 438 459 466 423 336 331 241 305 304 315 327 248 252 268 265 206 167 139 186 178 180 173 163
142 129 127 119 95 145 137 146 153 211 224 367 123 327 323 385 389 480 440 433 426 452 435 407 409 424 441 455 372 343 316 309 296 306 332 334 253 251 273 258 206 196 203 193 188 185 69
143 140 135 134 98 131 136 123 147 178 270 373 149 213 322 379 490 458 424 423 453 432 433 426 420 406 420 439 467 344 298 287 304 284 274 318 284 267 262 279 216 203 200 201 182 189 188
140 133 120 137 148 119 126 147 148 166 224 170 99 213 320 373 480 463 436 446 448 421 413 429 392 407 419 443 457 444 336 284 301 295 325 278 271 302 269 267 241 206 196 197 183 127 134
135 137 124 132 155 118 140 124 117 228 214 197 365 218 320 383 488 459 450 439 451 429 413 415 398 405 425 443 463 492 359 301 277 294 285 291 311 296 267 266 272 232 202 202 177 190 196
143 141 130 141 162 121 130 146 152 234 297 284 333 218 329 376 395 497 468 444 428 416 423 415 409 418 410 447 473 485 421 340 276 295 304 294 315 332 305 194 260 264 226 198 199 183 200
128 144 154 142 163 140 130 121 214 247 261 172 326 135 335 366 386 435 528 515 479 462 443 443 438 437 450 455 471 419 327 342 382 269 301 286 300 316 317 323 265 270 225 220 204 194 203
136 130 141 153 120 145 126 134 192 253 278 171 316 134 328 351 382 402 432 470 385 364 365 398 454 446 446 469 389 350 354 354 321 318 266 311 281 320 291 309 359 272 262 223 222 183 189
137 127 128 153 139 141 148 151 245 208 239 304 319 327 326 319 361 385 378 382 367 358 353 343 344 357 423 360 333 334 321 297 284 290 296 300 274 289 310 302 347 365 268 249 225 212 190
105 131 124 152 126 139 162 140 211 239 251 165 182 207 345 334 340 344 378 395 380 360 348 361 329 344 353 332 323 321 315 301 316 310 265 285 331 290 287 298 337 344 357 262 218 213 212
133 133 127 109 154 169 153 205 154 193 214 252 268 209 336 331 336 335 382 370 335 321 337 319 360 315 324 337 331 331 328 307 298 319 326 273 283 302 309 303 300 333 359 264 250 226 217
129 137 121 142 152 140 162 204 142 162 256 267 347 298 309 332 323 325 338 342 320 351 353 330 325 347 314 339 329 320 301 296 306 304 320 326 276 298 291 293 324 294 357 359 261 245 232
123 132 136 145 150 136 156 160 142 186 213 250 365 301 194 318 312 324 319 327 309 338 358 331 311 307 302 297 292 295 295 295 307 307 322 311 323 271 300 283 293 320 322 362 337 253 235
127 130 131 133 149 144 159 173 144 144 221 249 219 272 328 315 311 317 318 327 315 300 292 318 329 310 300 281 293 303 283 280 281 289 292 295 315 311 276 304 307 302 306 349 356 319 246
129 131 131 123 156 144 153 141 234 135 271 191 121 350 207 311 312 320 319 310 341 318 297 287 293 306 305 289 292 297 303 292 300 297 289 302 315 314 315 319 314 337 333 332 338 336 296
118 125 132 140 156 151 152 154 154 138 247 200 184 296 272 122 312 315 310 310 329 309 310 290 280 281 297 292 282 280 290 296 298 297 289 288 288 300 299 307 308 328 335 327 329 334 319
118 128 134 140 138 144 155 143 153 146 132 141 201 273 280 319 318 315 312 315 305 326 320 320 302 300 289 288 288 285 296 283 273 271 289 280 277 281 273 280 284 312 305 324 329 309 327
122 121 135 137 117 144 153 152 141 152 175 199 175 313 285 329 315 313 316 307 293 297 317 328 320 314 311 311 300 294 292 286 283 295 287 275 284 291 301 289 283 291 295 294 296 303 324
118 114 141 136 118 148 199 138 142 154 191 216 171 313 365 336 320 312 312 316 297 294 281 278 284 287 286 294 295 291 294 283 276 273 285 266 265 264 266 263 263 263 265 272 281 275 292
117 117 137 129 143 144 144 159 144 145 192 133 171 336 357 333 128 314 312 314 296 292 285 280 270 271 262 278 284 284 286 286 283 275 273 268 266 257 259 264 267 268 267 275 259 262 271
119 120 136 135 142 147 140 143 136 152 267 131 168 407 296 125 121 325 307 306 310 299 290 291 278 271 266 272 280 298 288 303 299 291 281 264 256 274 261 263 261 265 267 268 269 277 277
124 140 131 134 144 140 149 141 181 257 223 177 289 285 158 349 336 319 320 297 300 305 291 281 279 278 271 262 258 256 259 284 290 300 285 281 278 275 273 263 263 261 261 259 261 263 270
123 137 140 140 152 154 131 141 150 185 264 173 180 364 383 357 345 327 313 313 300 297 298 290 280 278 272 269 259 251 246 248 251 270 289 277 277 277 285 284 279 278 273 270 268 256 255
134 129 139 136 142 139 143 140 149 178 256 179 190 133 383 374 300 327 316 323 300 299 298 296 295 272 276 272 265 258 249 244 245 271 248 282 268 268 269 268 277 278 279 285 287 270 254
104 147 145 139 127 130 147 151 148 263 267 269 298 348 420 347 345 336 322 318 309 307 294 292 292 298 276 274 268 260 254 245 249 283 289 255 265 273 269 264 265 266 269 270 272 274 263
134 127 182 145 141 190 158 211 261 160 230 166 314 227 281 362 350 341 327 321 304 297 307 293 295 290 284 297 278 267 262 253 246 244 274 285 280 269 279 266 262 264 272 276 273 269 265
145 135 128 140 133 131 151 154 178 233 248 169 291 287 235 354 354 343 317 319 304 302 295 307 298 288 290 287 298 281 270 258 254 244 269 267 278 292 273 277 265 252 254 259 266 268 270
102 127 174 153 144 157 193 238 153 165 272 287 285 277 156 360 328 334 311 324 305 296 297 293 299 297 298 288 285 292 283 272 253 253 242 262 260 262 287 293 278 272 252 256 250 256 260

GFSGBSN_2pvu_pres_063.txt.gz
Presure
150 130 122 119 141 164 126 122 133 134 234 235 200 384 347 131 386 527 504 475 460 456 447 452 468 478 433 347 357 317 293 318 301 283 288 280 172 261 211 223 199 211 194 174 169 202 181
131 139 122 128 159 126 125 107 148 229 171 222 241 385 372 135 390 500 479 449 439 440 432 436 443 460 470 481 343 335 307 295 280 285 261 277 255 252 267 187 219 153 169 187 135 175 189
139 134 118 127 173 125 133 132 151 149 174 223 262 383 371 340 462 496 474 430 436 431 435 420 420 428 445 470 426 348 310 291 302 301 287 312 253 253 253 255 165 191 200 185 199 182 164
133 134 121 143 135 130 153 118 143 153 242 168 193 346 345 342 500 508 472 481 470 463 447 427 409 401 428 439 468 339 321 291 309 303 300 272 257 255 257 258 263 219 191 193 140 190 188
160 128 134 143 172 145 134 137 132 193 202 197 165 286 333 359 364 487 497 468 465 449 425 440 405 426 411 421 441 456 339 299 281 286 298 261 283 248 253 250 264 224 165 206 197 174 183
121 156 165 150 126 137 138 144 124 156 175 233 176 270 356 356 347 406 413 489 462 439 434 429 405 410 417 418 434 455 324 296 299 302 296 287 296 257 254 265 149 260 247 215 189 173 135
138 123 111 156 123 129 138 142 146 139 228 228 233 366 351 350 344 407 381 377 401 471 442 426 424 413 406 425 445 451 451 319 293 283 292 308 267 281 246 237 250 256 259 246 193 179 177
153 131 149 123 158 159 155 140 136 147 229 261 187 192 352 341 335 352 385 395 381 394 404 449 433 427 421 445 461 452 430 320 292 292 291 295 295 254 266 248 246 251 229 267 213 199 199
156 154 119 149 156 148 127 142 125 140 171 240 228 192 280 343 327 360 341 366 375 361 385 431 450 451 449 470 473 445 428 321 301 297 285 295 315 284 284 276 251 247 258 246 267 215 195
151 135 140 125 154 124 158 153 153 128 160 266 256 184 353 345 337 331 341 372 365 386 388 416 489 403 373 368 381 417 410 326 307 269 301 278 295 311 284 302 257 251 244 249 261 276 204
135 122 137 153 144 144 128 157 142 137 182 198 266 145 359 149 332 336 327 324 323 370 361 322 351 349 351 333 329 339 350 379 298 283 263 291 313 290 313 282 297 273 178 254 251 246 264
129 148 135 145 140 146 159 135 144 138 137 139 170 157 349 346 336 323 324 333 327 340 359 347 347 329 319 321 316 315 321 334 306 298 298 272 297 305 280 303 321 269 330 277 251 253 250
161 151 114 127 111 134 145 151 180 140 138 135 217 183 161 353 329 327 326 376 319 326 338 350 336 341 324 313 318 310 309 309 254 368 303 309 277 287 265 302 293 316 311 340 284 272 261
140 124 133 135 139 145 141 145 148 155 146 137 181 195 134 159 344 326 325 384 323 318 337 343 334 317 307 322 316 301 297 309 299 318 316 320 317 253 273 269 299 288 299 353 353 306 267
125 120 127 127 121 137 158 149 165 131 153 141 147 234 184 363 319 326 317 316 326 334 308 316 315 325 326 307 295 293 300 317 291 291 294 297 292 317 282 269 272 274 271 290 348 315 350
130 151 129 128 136 121 137 147 191 149 134 145 135 158 220 367 293 323 321 311 324 325 322 322 324 314 303 304 312 313 304 292 289 285 295 301 311 299 286 285 283 259 303 341 343 308 298
139 131 123 128 128 134 129 140 160 148 164 148 142 184 332 201 348 336 319 312 305 309 325 314 323 303 292 314 298 290 294 287 292 309 315 321 326 309 310 309 297 311 282 309 306 304 321
142 145 118 127 138 134 133 143 153 161 139 158 169 140 133 129 348 333 329 316 306 294 292 309 307 320 294 287 278 280 304 296 292 279 287 292 299 299 306 302 313 325 324 339 334 342 329
136 130 135 134 112 131 137 156 128 142 151 157 161 221 154 315 351 334 322 323 313 302 296 281 312 298 295 289 289 290 278 267 289 266 283 286 288 288 292 296 293 291 290 295 330 321 318
142 147 136 128 110 137 136 135 144 165 153 146 210 141 286 297 108 337 330 323 318 309 289 285 270 300 308 297 291 286 289 282 272 270 282 280 280 273 275 274 276 282 287 284 290 298 316
142 136 133 126 111 133 144 147 141 150 174 129 160 177 140 194 282 229 327 330 317 305 294 293 278 275 271 279 299 294 286 282 276 276 275 288 267 280 273 275 289 280 288 282 278 281 287
143 133 122 121 146 118 138 144 235 149 140 151 198 152 179 97 332 136 328 308 319 311 310 292 288 283 278 277 283 298 288 296 289 283 273 271 281 270 266 269 269 258 263 260 260 268 272
135 120 127 119 124 133 134 143 128 141 151 210 151 188 227 167 388 140 157 312 319 313 306 293 290 280 281 269 273 265 265 294 291 299 292 277 269 265 267 266 265 267 265 268 266 269 256
128 128 128 125 132 131 143 141 130 135 147 198 195 180 207 275 150 150 296 323 306 311 302 300 297 292 271 271 277 267 259 251 249 275 296 309 283 275 271 264 265 264 264 265 264 278 263
129 121 109 132 131 130 130 178 143 126 143 134 143 198 296 159 143 377 295 334 316 317 303 296 297 302 290 279 263 259 264 262 249 251 245 274 295 290 294 279 271 272 270 260 263 264 266
128 127 135 131 125 141 124 131 134 192 150 150 138 218 147 156 309 380 156 341 327 311 307 299 296 290 297 297 284 269 265 259 257 248 250 284 262 287 276 280 276 283 287 289 284 287 293
123 130 132 121 128 159 147 134 146 125 151 142 185 240 138 165 168 369 200 344 331 317 316 298 298 287 289 286 292 292 274 264 262 255 247 243 290 270 252 272 267 270 270 276 277 279 281
124 136 139 135 138 138 179 136 161 137 147 146 165 189 166 222 144 263 358 344 315 320 313 301 294 296 293 283 287 285 291 281 267 261 255 250 241 284 280 255 277 267 266 265 268 277 276
142 131 126 135 148 141 106 150 111 155 203 132 251 151 242 163 172 265 357 336 325 309 308 301 297 292 290 296 287 276 284 284 288 273 262 249 253 235 275 291 263 285 262 263 256 260 270

GFSGBSN_2pvu_pres_066.txt.gz
Presure
140 128 139 117 144 125 118 126 124 139 150 229 196 180 225 385 384 395 516 490 460 436 447 453 459 473 461 337 355 313 320 298 294 305 318 286 303 274 217 221 195 213 190 177 150 166 187
132 125 126 116 122 125 126 128 138 117 153 238 164 195 266 374 373 383 435 506 461 431 434 441 446 457 467 424 343 329 315 312 287 246 310 275 295 295 245 244 203 254 194 201 161 169 186
126 142 159 158 125 114 105 120 131 126 161 143 173 199 378 370 368 377 370 410 479 499 472 449 435 429 457 472 428 347 309 314 297 292 302 275 300 339 250 269 210 192 211 213 195 182 137
124 137 134 151 143 127 123 150 137 128 177 163 230 198 281 365 317 365 357 400 417 481 453 453 423 417 418 452 481 349 320 314 173 285 303 297 278 336 309 266 240 203 241 216 203 172 198
121 127 145 120 133 113 142 101 129 118 123 168 213 176 226 352 173 356 367 384 399 463 451 440 426 426 408 435 476 473 348 305 245 291 298 300 267 329 305 273 259 225 238 191 211 215 174
127 131 140 120 151 155 127 165 136 126 138 158 198 193 216 353 357 348 369 381 401 412 451 440 448 418 426 419 451 436 331 319 311 291 290 293 297 316 274 271 254 257 257 238 178 200 213
137 127 115 134 118 109 126 144 135 120 132 184 281 226 294 358 353 349 369 374 398 433 434 441 413 413 424 415 437 441 429 336 313 286 295 288 277 261 119 270 255 249 253 252 180 233 206
138 131 138 153 135 143 130 134 158 141 125 125 163 189 205 348 346 345 375 340 419 347 392 452 457 428 413 429 436 443 426 339 316 294 283 296 279 275 264 277 255 134 86 251 250 169 247
139 117 134 149 153 146 152 136 134 143 132 132 149 154 170 363 350 343 369 324 365 382 360 368 415 469 456 450 445 438 425 331 314 296 285 291 284 288 301 302 256 252 248 159 245 237 159
141 126 136 109 135 122 154 130 152 133 159 149 138 225 223 202 361 342 359 338 369 368 349 359 343 359 471 476 454 420 465 331 311 294 286 287 289 281 313 295 257 253 255 260 263 262 255
131 127 134 154 107 159 133 161 125 148 137 156 143 151 240 182 198 343 332 329 366 363 356 352 350 346 353 445 441 410 424 314 303 290 282 296 301 289 290 261 282 251 252 249 250 254 266
137 126 146 154 130 137 157 150 156 154 142 153 153 153 145 131 365 311 335 338 353 372 349 336 326 328 329 345 397 351 364 300 297 287 286 275 296 286 282 290 281 255 246 246 252 255 254
121 119 131 118 153 136 147 127 154 151 144 185 155 143 135 175 208 172 336 342 335 344 321 336 323 322 327 321 333 335 342 298 299 294 285 287 287 290 287 298 288 302 252 244 249 251 261
126 121 144 148 138 158 144 139 133 149 141 144 133 159 148 161 167 136 216 322 339 341 331 349 332 319 305 315 324 323 352 328 289 296 293 288 283 304 306 286 305 289 262 259 254 254 248
112 159 167 118 157 139 149 128 146 129 152 174 164 160 158 124 274 157 259 323 326 326 361 339 332 334 316 305 312 324 307 323 290 293 297 304 290 284 280 280 288 310 319 251 317 260 247
111 154 150 139 140 145 150 135 146 137 176 139 137 167 157 148 155 360 132 147 324 327 317 314 331 329 318 314 307 307 320 342 308 298 288 283 301 298 265 279 284 292 289 311 344 298 245
112 151 144 137 135 139 108 133 143 140 150 166 142 166 145 170 245 121 308 268 327 311 331 318 338 321 332 321 306 291 303 305 312 335 321 327 287 288 299 284 267 257 251 299 287 335 365
118 148 122 126 119 142 121 131 136 126 124 148 224 152 158 164 158 216 150 334 282 319 313 304 320 314 295 288 301 306 314 305 314 296 295 285 301 314 316 303 332 332 327 301 280 254 258
129 112 125 133 142 126 122 129 134 128 145 153 160 144 191 144 193 249 368 131 197 324 303 307 308 312 309 299 302 286 281 285 294 283 315 316 292 289 296 297 304 302 295 298 315 326 298
135 112 128 146 166 128 125 95 131 126 141 164 152 149 151 143 155 199 192 349 333 275 310 291 295 301 305 308 295 284 282 272 269 277 288 292 298 290 284 291 296 288 295 294 296 319 337
151 150 132 140 148 130 121 128 132 131 151 133 139 162 150 166 171 172 237 144 194 327 316 302 295 292 285 291 305 299 288 280 275 273 271 280 276 282 278 279 291 286 283 286 293 297 300
111 138 154 171 133 126 126 133 153 120 144 141 153 139 232 139 143 197 204 198 347 335 319 308 299 294 279 281 285 297 289 298 287 277 275 279 276 276 272 273 273 272 270 280 277 282 280
143 154 155 144 134 118 130 124 128 129 140 129 145 160 135 155 167 207 163 308 194 328 315 311 306 294 285 277 283 275 289 295 289 299 289 277 285 279 276 274 272 277 278 278 275 271 274
156 129 130 145 139 109 124 129 125 130 143 141 117 151 149 198 189 173 142 425 307 239 322 309 305 300 294 288 279 262 269 264 266 288 293 299 290 278 292 268 269 273 265 262 264 267 271
124 151 146 129 147 120 125 124 128 135 127 145 141 148 158 144 158 273 280 201 175 230 321 306 303 297 294 297 285 277 271 262 262 254 256 269 295 302 290 287 278 271 263 268 261 256 251
182 133 130 146 141 133 132 136 148 120 140 128 227 121 161 140 149 213 139 118 299 176 327 308 301 295 292 291 289 285 274 269 261 259 258 248 242 259 295 297 284 279 270 268 272 267 269
151 140 128 144 141 122 123 152 151 141 153 160 140 186 149 135 267 140 196 309 181 312 319 321 304 294 285 288 287 287 290 279 266 264 259 257 246 242 277 292 291 288 288 289 284 285 285
150 159 178 127 126 119 157 94 143 150 122 185 145 152 189 146 136 200 174 156 295 337 177 308 307 297 289 283 285 282 280 287 290 278 265 262 257 248 244 287 285 274 274 273 268 275 283
151 153 137 136 120 123 136 148 136 141 122 136 141 186 234 118 136 175 158 162 188 332 173 307 313 299 294 280 282 286 287 279 277 279 287 271 262 258 254 247 270 281 275 269 264 267 267

GFSGBSN_2pvu_pres_069.txt.gz
Presure
117 133 136 145 126 112 117 124 117 130 125 117 148 156 182 162 389 382 382 388 429 446 453 437 442 468 480 393 352 326 341 307 276 285 301 291 317 336 323 266 181 91 137 184 199 191 171
119 135 131 129 140 167 104 100 133 120 125 136 137 156 251 220 381 379 381 380 444 420 506 448 436 453 451 447 354 342 315 329 330 270 280 312 317 327 316 108 250 230 225 206 174 199 180
125 131 140 145 105 143 172 161 141 147 130 117 130 122 130 130 228 374 380 373 387 457 478 485 468 439 444 454 462 329 322 305 330 279 278 291 315 318 327 338 257 229 224 207 186 195 177
116 142 136 116 131 156 117 114 115 135 136 143 142 153 186 134 249 282 358 370 374 452 462 462 449 452 435 438 478 388 334 309 297 298 280 273 301 317 284 352 277 265 229 219 198 250 180
107 130 134 132 141 154 110 175 98 118 160 143 131 139 141 222 313 195 375 358 373 395 460 443 446 439 429 430 454 481 326 319 299 313 290 273 296 315 328 327 310 266 231 212 205 196 180
118 130 139 135 125 125 165 129 135 134 125 143 126 151 146 280 211 169 321 352 377 363 378 463 437 436 426 420 454 488 333 318 309 289 293 290 285 305 327 301 331 255 254 154 209 188 207
129 119 126 136 144 141 100 113 128 124 147 160 159 155 153 170 294 171 363 346 374 348 367 387 454 425 434 431 473 425 461 319 310 300 303 301 288 87 324 227 317 249 269 238 202 215 190
130 134 133 136 113 147 141 122 106 112 162 139 149 141 135 157 232 135 324 344 368 347 364 369 458 438 422 424 427 412 424 315 316 306 296 293 302 289 311 308 310 258 67 244 238 217 204
139 127 133 122 135 96 163 123 124 143 150 156 177 171 140 127 167 297 228 347 346 355 331 377 391 459 433 432 422 416 444 322 318 311 297 298 290 294 307 292 292 285 264 132 250 227 216
134 132 134 131 123 136 123 163 117 117 173 127 155 149 187 158 151 159 181 177 356 340 337 369 395 463 460 438 448 411 442 338 314 306 292 289 293 287 297 288 257 282 254 251 247 251 222
135 131 136 124 132 155 135 133 108 148 126 170 178 173 128 147 158 161 127 350 329 337 326 362 358 471 456 448 450 427 423 391 309 305 291 289 288 298 294 289 264 330 322 250 232 251 249
142 123 140 126 133 155 150 152 146 113 115 156 141 169 146 142 151 146 353 355 220 328 334 337 349 363 413 415 439 435 402 333 306 304 294 284 287 286 292 296 295 319 270 269 258 248 251
141 121 133 126 137 109 148 139 139 143 122 147 111 131 189 146 160 201 319 180 340 337 324 323 330 343 356 419 448 389 389 305 307 300 295 294 288 292 292 293 303 253 267 317 264 255 250
161 117 165 127 142 152 119 141 131 127 143 125 145 129 140 161 147 186 163 357 190 339 324 349 326 320 330 350 353 374 318 294 314 301 288 294 287 287 301 300 283 269 308 261 270 265 253
157 149 147 126 142 151 158 106 161 148 148 141 153 185 148 152 148 169 180 182 291 205 344 327 333 324 314 325 340 351 308 291 297 296 289 299 285 278 268 286 299 300 282 269 318 264 266
168 154 141 127 140 150 135 112 111 138 141 123 139 170 150 183 174 157 195 365 348 336 321 330 332 323 316 298 313 338 326 326 294 292 287 285 287 286 289 283 293 292 298 290 260 265 264
167 147 131 151 160 147 180 134 136 143 128 137 146 154 178 172 177 279 189 180 355 174 326 311 315 315 323 313 295 304 342 347 279 267 285 289 269 284 285 285 282 290 247 291 300 265 292
165 132 131 135 123 155 183 168 148 133 133 106 158 157 167 149 152 164 160 167 358 339 184 314 305 306 306 306 308 314 302 315 342 284 297 275 282 285 282 284 281 275 279 300 300 297 298
146 147 134 151 154 151 176 150 126 127 139 129 142 146 167 165 162 199 171 357 145 274 327 322 302 317 306 302 302 303 302 296 299 323 322 299 299 286 284 286 289 294 296 272 263 270 287
162 186 158 161 159 154 150 146 127 125 127 120 123 136 207 147 143 249 155 141 386 205 247 147 308 300 303 296 291 294 288 293 296 302 300 292 294 305 308 350 338 326 297 303 330 333 286
158 153 154 152 126 136 139 142 135 117 149 127 145 144 147 132 198 176 138 329 144 257 339 187 310 300 296 294 304 293 289 280 278 289 287 295 295 301 290 291 289 287 290 295 283 282 303
132 149 160 157 127 153 134 132 141 137 129 127 147 142 152 165 218 162 154 147 444 132 150 324 169 304 294 286 280 305 304 286 284 278 273 286 291 297 299 288 286 288 290 281 287 288 291
129 162 148 122 130 138 137 118 143 139 117 140 143 141 153 166 191 142 137 207 140 280 203 325 286 309 297 287 281 276 299 301 308 286 283 281 285 281 280 288 283 288 286 280 278 287 285
156 131 138 120 128 166 137 136 141 131 124 138 150 132 145 159 154 147 130 150 367 355 274 325 184 308 300 290 283 275 270 267 303 297 296 289 285 287 276 271 278 272 267 264 265 277 279
155 147 147 141 125 137 131 143 139 120 119 134 147 137 176 205 136 132 154 253 162 422 360 174 260 169 308 295 290 284 274 274 262 258 253 297 302 294 286 297 271 271 270 268 287 269 269
134 147 134 119 141 158 143 146 133 125 133 144 126 143 137 141 142 148 216 130 209 164 395 342 151 155 302 303 289 292 283 273 267 264 260 253 249 264 293 303 290 300 293 270 266 264 274
140 144 132 120 147 162 154 138 123 126 135 138 118 170 162 146 138 115 196 149 142 216 158 142 268 185 208 299 293 291 292 290 277 270 266 262 259 250 250 272 282 306 293 272 270 271 266
139 145 136 123 153 165 148 111 113 130 137 99 149 171 158 193 161 116 124 150 228 200 157 166 188 323 308 299 291 284 287 286 286 287 280 268 264 262 256 249 245 282 284 304 295 266 266
143 143 141 143 140 143 139 140 93 148 142 144 125 139 117 216 127 141 107 123 253 249 333 147 337 315 278 306 290 286 279 281 283 281 281 286 286 270 263 262 255 245 282 284 277 285 282

GFSGBSN_2pvu_pres_072.txt.gz
Presure
101 121 127 142 143 142 115 111 103 102 119 127 124 152 149 119 133 278 226 328 394 403 388 520 467 446 452 481 355 340 334 317 329 292 308 336 297 288 274 244 222 217 182 86 158 194 193
111 101 123 132 136 118 150 144 130 136 127 156 149 133 148 152 117 218 376 254 395 399 366 499 504 456 437 466 496 341 328 325 315 319 286 314 321 302 286 272 239 222 212 142 146 166 122
118 113 115 138 119 140 150 122 168 105 113 182 160 138 181 230 112 286 225 375 389 383 365 420 461 485 455 456 475 343 334 320 336 312 287 308 313 311 285 277 276 232 225 157 145 103 206
115 133 100 137 140 135 141 131 118 100 114 135 135 159 151 167 141 139 127 369 384 366 354 404 470 466 468 445 459 420 335 318 315 82 307 278 307 289 305 281 281 270 237 233 194 202 203
107 112 124 141 141 137 145 124 175 106 109 134 152 155 159 166 180 255 343 192 379 361 348 415 471 465 448 449 454 466 328 322 313 311 296 311 280 314 287 281 278 281 258 246 213 203 217
129 111 132 131 124 149 148 109 103 131 120 129 113 140 124 187 147 179 196 366 179 360 346 403 470 445 439 435 438 484 464 317 317 320 306 293 298 296 314 283 276 275 267 238 223 188 200
138 110 131 122 143 137 134 151 151 120 160 91 170 140 204 129 183 184 312 368 356 358 346 399 486 448 444 432 440 480 487 325 313 318 305 306 295 272 311 306 322 309 270 432 220 210 250
121 133 142 133 141 134 136 128 145 136 110 119 147 126 143 134 130 189 198 199 354 356 339 386 478 462 435 433 456 451 434 332 328 311 307 306 318 305 252 86 311 285 283 311 236 264 222
108 149 134 124 137 130 145 137 157 128 91 145 121 177 161 142 197 187 256 372 359 358 344 374 390 481 454 445 465 402 424 336 319 313 305 308 295 308 271 272 309 316 304 343 249 305 252
141 123 132 146 134 125 126 126 109 130 152 121 102 168 149 202 143 182 218 153 304 348 345 351 373 422 483 430 418 419 410 383 312 307 304 296 296 296 282 258 305 306 305 290 253 360 262
115 127 126 164 127 138 146 116 137 130 135 120 102 139 191 109 191 131 198 311 347 271 344 353 363 408 436 448 428 424 412 411 312 313 315 301 301 291 300 292 286 305 300 324 303 346 274
129 136 121 146 163 118 134 116 140 142 144 140 137 162 146 136 157 225 161 196 253 348 313 332 348 370 451 484 428 455 473 436 309 310 308 285 291 290 292 318 282 299 304 305 316 330 279
131 111 138 156 171 152 136 153 149 126 148 152 157 141 144 165 156 155 240 271 182 267 326 319 335 359 429 463 419 449 412 326 305 302 303 290 285 291 298 294 324 299 259 289 279 301 271
124 111 128 142 162 137 134 126 118 117 135 111 143 165 154 136 206 160 177 164 139 298 337 330 343 329 352 418 381 370 382 308 295 292 291 289 286 293 292 293 289 277 303 312 281 308 264
124 143 139 159 165 127 143 156 137 144 150 146 116 147 178 134 154 192 165 151 172 260 344 321 328 326 327 390 392 367 356 314 305 287 298 291 284 288 289 290 295 301 292 287 285 250 278
132 151 125 154 151 136 150 163 136 153 132 144 143 147 116 190 153 176 183 169 154 227 206 254 310 332 314 324 339 350 341 296 307 298 296 292 288 289 290 288 291 299 278 293 312 277 269
126 186 120 142 137 135 156 167 137 142 120 138 164 145 168 139 196 131 157 148 164 263 186 328 298 317 316 312 321 339 292 286 301 298 277 288 301 289 290 291 292 276 285 294 281 306 246
153 160 113 157 119 151 134 160 137 137 139 125 124 150 166 170 150 172 163 160 172 260 324 340 314 183 322 318 313 308 320 289 288 292 285 285 294 299 280 252 294 280 287 293 285 302 294
166 146 161 157 145 153 145 160 157 149 136 140 149 131 153 196 146 135 159 164 162 169 338 351 321 243 299 308 305 315 308 324 329 292 284 281 251 284 283 293 288 262 286 289 286 282 299
196 143 130 150 149 142 156 158 138 145 135 142 141 137 159 168 151 155 145 222 150 254 277 143 297 272 239 304 314 298 303 302 314 322 299 279 282 276 267 269 279 279 277 280 276 274 280
142 138 142 152 134 149 150 143 128 137 136 143 131 118 137 143 161 131 123 204 180 199 152 363 235 201 166 292 290 309 297 296 281 295 300 305 311 308 302 280 288 290 276 274 282 278 287
149 136 128 158 149 152 136 150 126 128 135 154 134 116 140 132 161 175 127 150 157 233 164 195 140 317 308 169 221 281 306 297 290 293 295 301 308 319 294 293 299 298 301 328 331 317 325
197 142 159 141 156 143 139 146 152 154 140 141 128 124 136 146 149 125 137 138 167 151 190 323 180 248 174 298 219 226 280 305 302 291 285 287 292 294 295 302 298 285 286 283 287 286 291
203 172 121 130 133 143 146 143 126 155 145 124 119 130 147 149 149 139 124 175 156 219 215 204 353 118 238 225 296 274 286 275 274 296 300 287 284 281 290 289 285 295 293 294 293 290 285
227 150 134 129 138 142 141 146 128 156 126 123 120 128 139 139 136 160 117 140 207 162 166 264 368 183 322 308 303 293 289 282 274 263 269 290 289 291 285 289 281 283 276 283 280 280 282
215 130 136 134 157 135 139 136 127 155 148 112 117 120 154 145 150 135 114 152 211 144 181 193 384 134 152 150 292 297 292 290 278 274 266 261 255 257 291 295 291 294 282 278 274 269 271
223 173 136 127 137 143 140 144 143 150 107 134 127 136 126 152 129 133 163 115 143 137 107 253 223 200 147 251 308 299 295 287 290 279 275 265 257 256 257 253 265 286 301 288 278 275 278
146 111 140 132 128 156 135 143 132 161 117 152 106 118 109 148 146 137 144 118 139 124 143 110 236 151 242 235 309 300 295 292 292 287 286 275 268 264 256 257 252 250 263 279 299 285 287
133 150 142 144 130 133 145 133 137 137 156 118 123 146 142 111 148 179 159 224 220 131 145 107 136 148 153 336 311 303 298 292 292 286 292 287 287 280 265 267 263 254 251 245 279 284 297

GFSGBSN_2pvu_pres_075.txt.gz
Presure
111 110 102 109 122 128 150 149 159 149 134 112 136 113 150 165 179 150 123 214 383 387 290 398 472 507 461 448 466 419 346 338 274 306 297 332 319 309 265 246 238 215 198 187 197 209 187
108 107 115 132 97 134 128 125 158 157 138 108 118 124 113 120 136 130 153 138 378 385 371 386 482 475 472 445 452 473 352 335 354 318 295 283 324 314 305 258 247 240 110 88 95 206 145
98 113 132 103 137 120 131 145 91 146 119 110 122 123 121 116 207 154 168 127 272 381 368 380 450 468 480 456 445 476 356 338 332 343 310 286 303 298 302 291 253 245 233 198 89 199 163
101 113 133 125 134 126 149 143 134 148 149 134 109 127 185 134 159 130 172 143 142 376 365 376 430 474 471 458 455 460 364 332 328 321 323 300 280 316 295 292 288 252 247 219 197 207 172
113 127 165 126 118 123 158 133 143 153 129 134 111 135 130 119 152 170 220 180 232 364 363 368 393 466 449 462 445 454 384 334 327 317 324 297 317 273 317 286 297 267 260 188 80 200 154
142 148 132 117 135 139 123 138 129 140 153 159 165 123 110 127 138 127 117 249 197 375 365 358 388 469 459 447 442 455 474 340 324 316 316 319 304 292 316 318 283 282 270 246 224 204 199
111 138 116 132 138 126 152 155 158 125 153 105 104 108 139 135 155 124 173 174 204 366 367 361 383 463 452 449 440 453 472 345 320 315 346 311 300 308 299 311 331 279 272 256 234 224 204
133 111 124 111 131 160 156 119 152 141 151 171 104 103 147 107 132 171 175 141 206 253 349 364 374 438 449 445 441 459 469 351 324 326 316 315 305 161 296 301 318 284 274 270 249 229 225
125 160 117 133 112 128 141 144 147 111 157 135 143 130 148 153 131 145 190 296 165 165 364 360 367 457 459 450 470 445 495 346 323 312 303 302 301 306 193 286 238 103 272 274 266 246 231
122 123 133 141 140 126 147 114 165 146 146 151 141 167 131 165 151 113 160 187 149 189 338 361 356 433 461 471 469 426 428 347 322 315 310 305 308 319 302 312 289 246 299 272 109 272 251
119 144 125 123 135 149 146 159 142 144 158 132 159 132 181 192 189 156 191 159 223 200 367 369 360 432 477 405 416 414 426 346 319 305 291 290 293 296 302 303 274 297 267 279 291 279 265
123 125 125 130 115 137 137 152 146 138 170 140 145 114 164 104 141 173 157 134 187 183 330 346 352 386 492 423 430 422 423 349 319 301 287 292 297 297 299 327 310 261 290 279 270 266 268
119 126 124 114 124 153 124 151 149 148 173 151 145 154 168 137 140 165 148 169 184 310 336 339 302 363 459 455 449 430 433 358 319 304 285 299 291 299 290 307 300 268 257 288 323 322 265
124 128 124 142 132 167 130 154 155 150 160 144 153 142 133 155 168 138 178 208 168 177 172 323 328 344 410 475 465 438 434 341 311 296 293 283 289 296 305 294 285 298 311 255 310 307 293
120 140 128 129 128 149 119 140 160 142 167 139 154 146 144 143 163 156 152 178 169 172 191 347 325 329 346 391 375 381 346 318 303 295 289 292 287 312 294 295 290 280 298 284 286 312 285
104 132 149 141 133 147 124 169 156 158 160 157 129 144 156 181 153 153 157 165 193 195 173 177 296 202 323 352 369 345 322 313 294 298 295 266 281 284 296 294 293 298 282 299 295 286 299
126 124 141 133 142 155 120 150 159 144 162 135 148 146 157 167 129 161 168 175 166 162 202 356 245 223 328 315 349 323 308 305 300 278 280 287 288 281 286 288 288 284 292 282 281 262 289
195 115 161 139 144 144 120 135 158 157 151 134 118 145 143 173 160 133 152 227 149 136 147 165 335 274 316 338 328 326 325 304 291 310 289 313 295 290 290 289 288 294 289 295 298 298 273
185 147 180 146 136 127 128 134 142 160 151 139 138 150 137 123 171 125 139 141 161 153 157 234 184 325 314 311 313 323 339 308 298 288 266 301 287 270 236 293 297 289 285 288 288 293 277
130 164 161 133 154 187 126 162 148 159 150 157 149 150 148 152 163 169 123 148 137 170 178 155 237 237 310 306 304 316 319 329 325 293 283 295 270 268 276 277 281 293 297 279 285 285 279
205 174 205 133 144 148 126 134 135 153 148 127 148 161 150 167 143 159 118 128 164 142 179 202 243 192 325 305 302 296 307 314 315 334 307 314 294 291 252 279 288 283 272 279 280 270 282
151 140 202 124 145 166 125 133 142 143 148 130 146 162 107 150 148 158 128 115 159 153 170 168 207 142 139 320 301 249 292 306 302 301 307 312 312 311 281 282 278 279 274 272 282 281 283
163 188 180 127 134 189 158 123 135 156 138 144 144 140 126 156 144 151 132 161 162 137 196 130 147 140 345 326 313 291 291 288 301 294 294 299 302 307 300 303 305 313 311 303 308 314 327
220 198 173 213 118 179 152 155 142 143 136 143 143 129 127 153 142 149 167 111 141 154 176 119 159 139 134 146 202 308 304 293 280 284 300 293 290 293 292 301 295 297 295 293 296 301 313
144 159 219 204 223 140 148 137 153 175 136 145 107 149 144 115 133 128 136 121 140 112 125 147 112 159 134 202 321 222 305 303 296 280 276 271 297 296 290 290 287 289 291 295 293 289 289
229 139 223 214 121 206 129 148 159 140 134 138 102 143 141 155 133 147 140 175 186 125 150 144 132 157 363 340 333 313 303 301 293 292 288 276 267 267 269 290 287 281 288 284 287 298 289
110 199 219 144 228 192 148 142 194 132 148 144 139 136 109 151 135 137 141 156 145 156 121 163 131 257 272 139 136 330 313 304 295 290 289 280 277 267 263 258 258 266 285 286 286 283 271
236 216 223 227 184 125 153 143 145 142 137 141 158 131 141 128 136 141 146 153 148 146 197 173 131 153 277 128 231 340 325 310 301 294 289 291 283 276 272 263 260 258 254 263 272 282 293
237 212 142 173 113 160 144 155 157 133 142 145 168 134 157 127 111 119 152 145 190 107 150 166 248 139 250 125 212 301 332 317 304 294 295 286 282 283 286 276 267 261 254 255 250 247 272

GFSGBSN_2pvu_pres_081.txt.gz
Presure
112 108 107 103 105 110 110 128 118 134 103 133 125 124 161 168 165 150 154 161 146 145 117 254 300 370 418 503 502 442 435 448 417 358 357 320 306 294 295 287 271 229 207 246 190 242 234
104 106 102 100 109 105 116 111 104 124 132 130 159 149 145 185 193 149 144 109 116 136 145 218 256 372 480 517 497 439 440 451 423 348 347 319 339 309 288 288 271 252 210 254 196 206 177
128 101 98 108 101 109 110 136 138 123 131 128 131 142 115 134 217 180 113 163 138 115 214 144 384 376 488 458 479 448 434 446 429 344 347 328 306 314 285 290 276 260 246 235 197 192 187
111 126 103 108 102 108 108 137 121 123 125 141 162 137 170 162 167 127 121 151 151 156 136 250 149 406 474 466 476 440 435 443 402 353 337 329 307 308 319 297 284 265 247 233 224 193 199
132 99 97 110 107 110 130 134 129 121 142 129 162 144 166 200 147 175 137 105 151 163 184 184 296 456 471 463 472 441 434 439 412 350 323 327 326 292 300 327 290 279 254 248 239 208 195
133 124 109 109 111 117 109 134 123 124 139 147 155 146 154 166 160 148 158 144 153 156 157 385 341 418 468 448 455 452 435 430 405 333 321 324 308 298 298 322 271 142 265 257 243 212 207
132 124 111 98 123 125 136 126 142 135 143 117 146 142 169 132 185 169 153 140 144 140 193 213 387 465 468 456 451 453 460 429 387 325 317 323 308 305 294 284 312 284 267 254 243 220 208
116 120 112 95 117 124 118 120 125 135 133 126 154 159 178 168 119 144 114 121 143 165 141 405 390 145 453 440 455 455 423 425 374 318 317 318 316 324 295 285 297 306 276 256 249 228 209
123 115 114 100 114 114 128 106 134 130 130 151 144 139 163 172 130 153 159 142 173 153 177 226 281 444 453 433 444 440 403 425 345 327 318 309 312 327 342 283 275 320 275 261 248 245 225
122 118 114 90 119 120 122 126 129 121 146 148 128 162 136 130 160 138 124 133 205 145 188 164 327 431 427 425 430 431 413 417 341 327 310 305 332 339 317 274 276 303 295 265 249 245 245
119 118 116 179 119 128 120 122 137 137 133 149 144 159 156 145 128 114 119 125 135 151 164 185 372 402 428 432 448 393 405 403 335 317 310 309 339 336 282 276 271 296 290 272 258 250 248
119 118 120 128 110 124 128 126 133 135 148 143 146 153 153 159 161 142 142 149 141 158 167 136 380 382 400 456 485 402 408 347 324 310 308 303 324 323 279 296 267 297 286 285 280 257 253
119 117 153 119 129 125 133 124 142 133 142 135 139 143 134 131 159 126 124 140 142 151 130 140 304 313 453 452 474 412 399 332 325 305 305 303 323 296 303 270 275 264 293 289 291 306 258
125 125 123 192 128 137 125 130 132 152 137 145 144 150 139 134 127 150 140 170 146 120 151 144 132 368 407 452 422 441 344 318 310 299 294 304 314 309 296 281 281 262 262 298 297 283 289
120 129 125 138 138 133 130 123 125 133 142 136 149 175 161 159 155 157 132 110 155 153 121 180 190 222 140 467 443 359 334 318 305 309 319 311 318 312 309 300 269 292 282 273 255 302 297
119 123 131 120 126 133 127 134 132 137 143 152 167 153 158 158 157 151 213 140 135 135 168 183 260 255 141 447 421 348 328 316 298 307 313 293 292 302 294 297 295 273 292 290 277 254 294
156 136 127 127 125 135 126 136 138 128 151 134 147 153 188 128 159 146 163 147 164 145 132 120 136 269 321 249 131 335 318 316 302 307 311 323 311 298 302 288 293 281 289 269 277 283 263
141 132 127 123 132 135 130 137 200 128 144 172 178 153 187 127 155 110 144 165 190 128 140 145 185 149 336 124 358 289 327 313 286 310 307 305 306 319 289 288 278 286 281 292 277 296 285
129 133 216 163 147 132 172 133 192 163 150 150 129 148 175 150 158 147 158 177 129 190 151 141 139 161 169 353 270 327 354 314 301 308 284 276 292 298 290 292 294 289 288 278 293 295 295
156 208 160 161 134 136 212 175 134 224 168 143 145 155 143 153 153 142 124 168 157 133 140 145 145 135 171 314 347 300 336 153 305 312 292 286 279 294 290 298 298 278 286 303 298 278 274
186 231 143 156 125 249 132 203 187 143 147 149 163 215 189 157 146 129 149 152 141 153 127 141 151 157 196 125 141 327 192 160 303 308 314 297 288 287 277 285 286 283 298 288 286 286 279
200 200 263 144 257 167 236 128 145 186 117 137 205 185 172 150 140 143 161 148 129 169 139 120 152 212 190 232 125 132 318 135 312 302 325 311 303 299 278 283 286 286 278 289 279 279 285
204 207 201 257 125 127 203 183 131 142 192 126 156 198 177 156 139 146 129 114 145 161 129 110 158 135 170 162 241 278 327 331 132 309 254 339 338 317 310 293 283 279 280 276 275 278 278
132 212 178 252 243 150 240 187 139 209 151 177 153 181 151 126 142 148 163 136 171 154 159 115 127 175 231 156 163 257 305 291 169 257 307 303 295 299 329 325 317 301 294 300 300 301 302
195 191 201 129 252 240 234 157 147 189 155 123 143 223 153 155 143 150 141 157 172 137 166 141 132 168 174 178 168 231 302 281 126 336 284 303 295 291 285 297 288 296 297 310 311 309 318
195 127 197 253 154 245 190 230 111 123 237 126 149 130 166 167 142 119 127 155 172 153 159 165 139 167 156 119 169 160 247 288 254 198 158 323 304 293 289 284 274 288 292 294 287 292 284
192 190 221 225 242 241 147 188 230 143 130 224 227 177 180 154 226 152 133 144 158 171 158 167 164 148 138 154 175 200 242 276 253 282 126 332 327 301 296 289 280 277 271 274 295 280 283
195 205 210 212 132 210 124 234 173 197 141 163 233 234 236 209 149 162 139 131 133 135 134 142 160 128 122 155 159 249 249 251 193 202 298 253 322 318 305 298 285 283 279 274 268 264 272
188 197 196 213 251 243 225 236 234 153 127 227 151 153 209 148 152 163 175 157 159 155 121 152 156 134 175 219 200 223 242 148 219 265 124 278 325 330 312 297 292 283 280 276 273 268 258

GFSGBSN_2pvu_pres_084.txt.gz
Presure
120 114 116 111 109 107 110 109 115 108 121 143 114 122 134 142 134 172 226 238 159 158 144 159 160 145 158 439 489 521 447 429 450 475 417 361 378 349 307 295 289 280 266 258 195 146 207
121 126 142 106 118 107 110 107 113 107 143 110 132 130 138 166 146 214 179 209 115 153 140 159 153 206 167 503 467 506 451 426 427 468 393 358 339 338 324 300 293 280 279 271 255 197 238
118 126 194 115 109 103 109 104 113 113 136 142 123 136 129 161 163 173 155 101 127 140 142 145 153 156 478 456 475 489 449 426 420 466 386 356 344 347 352 308 282 281 281 278 241 201 228
122 125 119 111 107 107 103 108 112 117 135 137 127 143 118 145 151 163 174 156 150 135 143 153 183 264 470 467 323 468 431 434 402 408 378 346 345 315 324 321 290 276 276 274 241 227 226
123 120 125 115 111 106 106 108 113 116 142 134 146 142 146 160 184 163 151 143 144 151 145 188 203 254 481 445 464 458 434 438 391 391 420 346 348 325 367 315 284 281 270 270 263 241 236
156 123 121 117 133 97 109 107 124 130 123 122 133 137 140 119 185 210 158 158 128 149 153 132 143 194 469 467 457 453 441 441 386 399 374 350 331 328 314 349 289 289 270 265 259 248 236
128 134 179 124 133 116 125 123 125 127 131 132 129 137 184 149 134 164 172 147 127 153 148 149 141 254 446 445 452 456 447 408 388 368 352 336 325 334 311 291 296 273 266 259 257 261 261
144 129 126 168 131 127 124 120 115 130 120 135 129 148 150 159 153 207 177 143 151 144 152 186 134 310 440 435 454 461 454 387 372 340 342 325 319 333 311 320 292 286 265 264 256 254 259
192 130 165 165 130 129 108 125 111 131 112 120 147 137 150 142 128 123 155 150 132 136 149 136 188 145 448 438 469 475 434 372 356 348 333 316 318 322 311 306 309 274 275 263 264 262 265
185 144 223 126 130 125 108 131 121 130 118 123 133 140 157 214 153 187 115 135 139 147 160 155 126 306 449 453 427 467 415 359 341 333 334 309 314 318 323 340 315 315 270 275 274 266 268
183 136 131 132 127 125 125 126 118 131 129 129 144 160 143 212 134 154 165 119 141 117 143 177 182 415 201 179 419 424 404 362 337 338 320 305 306 315 325 295 310 286 307 284 284 276 268
213 144 134 156 130 125 123 125 127 167 131 139 158 140 146 159 136 175 136 138 119 152 137 141 132 135 513 359 425 420 366 338 320 343 313 309 311 312 320 332 297 312 298 305 298 292 284
147 171 136 126 121 125 124 130 134 137 129 137 155 187 155 128 146 153 192 152 133 147 153 175 178 215 455 432 136 379 376 341 325 312 333 310 304 312 314 305 293 338 300 263 308 317 279
130 220 120 122 119 123 125 146 135 130 202 136 136 139 149 159 160 151 199 141 146 130 137 149 146 124 465 134 388 408 370 347 333 310 321 318 294 303 343 315 323 283 271 270 298 303 294
232 137 127 117 117 126 126 127 136 117 132 134 138 141 162 138 141 183 219 149 144 140 137 172 134 187 442 408 372 392 375 343 321 308 308 302 296 313 328 309 296 308 299 270 265 289 295
241 119 133 179 115 119 124 127 129 150 159 136 184 146 146 155 158 208 150 150 132 135 152 130 127 154 145 290 378 356 337 269 317 313 306 309 303 319 328 308 294 287 282 290 272 287 279
243 181 126 168 125 135 128 131 124 133 148 143 155 177 166 136 160 161 169 170 157 149 145 125 172 126 168 307 231 215 333 134 304 312 314 312 307 321 316 298 290 276 284 276 261 267 293
238 199 123 127 133 129 120 125 134 130 193 130 182 147 128 157 128 154 232 167 141 142 170 162 156 128 176 176 210 140 313 133 304 313 305 293 295 294 314 306 298 281 267 260 273 267 266
199 201 194 130 206 128 151 131 145 130 206 187 189 141 125 167 150 219 158 167 112 135 144 121 144 145 133 192 350 183 187 174 202 299 307 312 309 300 311 313 287 288 278 265 263 286 283
192 203 213 208 135 122 163 134 189 189 154 149 207 164 120 136 145 220 126 151 159 165 140 162 127 141 170 130 139 211 331 330 220 208 312 295 311 307 297 289 291 281 286 285 279 273 274
204 220 214 155 124 141 127 126 169 162 133 139 210 141 138 194 155 206 173 140 154 158 173 127 130 143 161 170 162 276 363 328 269 319 134 316 299 290 298 297 285 281 276 276 291 286 275
200 191 215 194 203 213 129 124 136 128 177 230 169 142 200 224 209 179 147 168 131 148 177 164 123 180 148 145 170 119 271 306 355 332 322 314 312 311 302 293 295 296 287 281 270 279 285
214 213 224 200 198 187 204 243 257 137 196 221 186 153 150 175 218 185 146 145 149 178 165 169 133 150 125 121 170 232 125 259 299 325 341 325 334 332 322 306 295 279 284 281 281 284 274
206 202 209 204 195 215 249 126 200 187 177 141 191 143 194 225 144 189 200 142 151 149 150 175 142 136 156 137 138 130 237 173 204 191 317 326 335 319 304 335 342 323 305 295 278 281 282
196 181 203 148 141 165 232 243 136 207 230 159 217 212 204 228 137 231 234 119 139 152 137 162 180 158 160 160 158 159 119 257 151 239 285 142 308 320 316 305 294 302 311 318 317 312 306
200 120 202 196 201 186 201 157 238 236 234 207 218 225 188 215 222 224 205 165 171 164 142 150 130 153 170 149 161 150 168 247 199 149 112 250 289 312 327 312 298 288 285 287 293 298 292
195 198 196 204 196 208 245 243 239 212 232 220 138 195 120 233 226 236 136 201 151 140 162 155 144 151 124 133 154 160 157 112 184 217 165 155 273 364 370 330 299 292 288 289 284 269 286
191 198 197 206 207 233 243 185 202 235 146 186 152 176 151 148 181 182 178 109 151 144 184 133 166 148 131 153 168 158 145 176 178 248 257 187 140 126 360 368 321 303 296 291 287 281 275
204 201 203 195 207 241 242 226 240 231 226 127 222 223 175 140 232 146 150 195 148 117 189 125 170 134 162 167 155 206 108 153 237 220 237 177 127 261 137 311 343 321 302 295 292 285 282

GFSGBSN_2pvu_pres_087.txt.gz
Presure
178 121 123 115 122 153 120 116 115 112 112 111 116 126 170 137 136 114 165 198 137 162 115 144 166 140 157 164 151 473 494 454 434 451 455 461 430 382 362 332 312 296 288 269 267 155 207
126 185 113 123 119 121 119 116 118 114 114 106 123 133 147 139 142 140 135 144 167 218 153 144 151 170 210 161 286 483 513 432 421 429 443 441 397 373 361 335 313 300 278 265 275 263 168
119 118 154 124 124 130 133 119 109 111 113 109 124 113 140 155 137 149 131 225 227 166 253 151 155 140 172 453 305 483 486 432 419 413 441 417 397 362 360 342 316 288 300 272 267 269 255
187 127 160 125 123 127 125 148 113 109 112 117 125 143 118 134 124 135 134 169 180 158 157 154 159 149 158 151 480 492 466 426 417 410 438 411 377 348 355 345 340 299 288 277 272 269 259
147 139 153 158 126 138 124 155 116 112 112 114 131 135 140 131 141 152 144 206 172 181 133 137 153 128 166 457 478 485 445 432 416 421 434 381 359 349 342 360 335 308 287 283 273 267 260
166 211 125 214 126 125 143 124 117 120 107 128 129 133 132 134 134 151 155 178 194 185 154 139 125 147 144 442 443 480 443 406 385 415 417 367 357 351 340 354 327 336 288 277 267 261 263
271 188 124 190 125 125 128 127 126 137 128 118 124 131 125 138 159 152 213 163 188 149 143 130 146 149 136 408 447 485 419 388 376 407 375 369 353 342 333 344 320 307 279 279 264 260 249
195 283 190 211 120 184 200 137 127 111 130 132 125 127 132 138 149 145 204 160 124 172 151 151 130 136 461 455 462 478 404 373 359 364 368 367 349 329 329 351 315 300 286 268 261 255 299
260 150 237 228 135 175 154 142 221 138 133 116 125 136 133 140 152 160 162 227 165 154 133 161 144 168 149 452 465 139 382 361 363 359 410 357 342 337 374 328 319 308 285 277 263 262 264
181 265 273 220 133 193 159 128 134 137 110 127 126 126 143 142 120 163 155 164 134 145 141 139 167 142 474 439 476 395 371 364 347 365 392 357 331 323 327 313 311 302 294 286 267 256 283
297 173 131 246 209 228 169 142 218 139 130 128 137 140 135 152 126 143 128 159 216 143 145 163 151 162 156 152 401 384 367 352 330 337 348 362 325 315 335 380 302 316 292 286 270 258 271
233 283 273 261 175 140 185 152 134 135 128 124 143 131 165 144 144 153 151 170 160 145 135 131 142 146 146 441 379 374 347 330 334 331 314 321 329 317 346 322 342 304 296 280 287 267 266
273 246 232 195 246 146 190 150 137 137 126 128 137 123 134 147 149 144 123 209 144 144 141 135 187 141 171 169 371 349 214 344 329 320 314 329 317 317 322 323 301 278 296 287 285 276 275
253 287 275 190 140 125 127 142 138 127 129 131 134 150 147 136 150 204 166 161 149 153 153 161 183 127 189 353 140 341 145 328 322 330 320 305 309 315 311 334 304 306 279 298 286 290 274
236 193 245 210 247 125 142 132 142 127 127 126 135 151 146 134 141 214 151 148 173 137 133 133 132 129 106 122 384 338 146 333 341 326 308 309 310 303 300 307 306 321 349 293 285 297 320
199 197 209 229 206 127 134 140 130 126 122 126 131 145 141 137 145 186 121 149 171 177 144 128 176 132 142 142 124 218 356 317 193 322 319 315 294 298 305 315 316 312 312 275 330 320 289
231 203 178 206 210 135 124 192 124 124 121 123 134 134 137 138 120 158 162 203 194 157 130 129 153 162 158 132 264 312 305 212 311 310 306 305 301 310 341 326 311 315 319 326 277 267 273
352 197 207 238 234 210 193 128 128 130 121 139 147 139 149 145 206 156 160 132 242 193 132 166 139 133 159 169 245 347 331 311 142 304 302 310 311 310 314 325 309 301 298 305 296 305 296
302 164 186 236 183 215 201 123 125 127 139 125 152 137 140 119 195 128 200 160 145 140 156 131 189 148 177 121 162 325 182 163 331 309 306 308 301 299 310 322 301 302 291 287 288 291 282
236 168 202 229 209 210 214 190 126 127 145 137 143 141 140 148 150 132 147 190 179 145 140 159 169 130 129 147 156 160 122 129 192 131 317 295 294 303 306 319 312 309 299 289 281 276 283
188 168 198 213 215 194 203 157 135 141 130 133 132 148 151 189 203 216 196 141 136 182 135 160 138 128 151 159 138 156 170 130 180 299 352 146 313 300 298 295 307 302 300 288 277 274 270
224 226 178 205 213 198 206 124 126 136 150 145 122 150 191 224 133 151 228 117 220 124 150 163 166 174 150 133 130 109 128 131 151 129 136 134 333 327 325 294 291 283 288 288 285 283 272
194 234 175 215 214 210 208 205 204 181 226 134 211 145 193 213 227 189 229 143 151 196 144 160 173 168 157 175 134 130 143 172 202 235 249 343 312 319 325 329 325 299 295 285 287 288 280
217 233 178 200 225 121 204 175 211 228 238 153 212 229 143 225 218 193 216 186 177 158 171 142 185 142 138 131 144 175 151 179 231 251 190 128 240 302 341 329 311 311 320 304 300 288 289
211 193 235 216 198 207 207 198 209 137 190 131 170 154 221 222 217 176 227 231 150 200 182 154 163 160 163 177 133 165 159 207 163 154 233 151 241 245 271 268 328 316 301 298 323 335 313
171 169 212 189 207 209 168 206 192 251 177 227 224 231 228 188 202 126 209 236 205 196 190 144 155 171 132 155 171 169 143 111 145 237 159 241 251 255 254 264 133 316 313 305 298 289 306
202 178 216 140 186 198 188 207 158 244 231 240 235 233 224 155 166 120 148 232 141 146 151 148 121 155 134 135 171 147 153 165 150 195 109 246 163 157 203 236 176 285 340 321 302 293 290
188 178 207 201 190 205 121 207 239 243 243 237 229 231 223 186 148 232 143 211 181 183 199 136 142 199 106 170 150 101 169 102 134 141 218 150 166 193 125 196 111 150 110 340 321 307 298
208 171 199 203 192 215 205 209 224 245 238 235 156 227 228 164 217 141 141 137 200 166 162 154 206 189 147 174 141 164 153 169 142 122 159 245 249 235 241 200 256 212 300 315 348 322 306

GFSGBSN_2pvu_pres_090.txt.gz
Presure
170 181 175 124 169 122 141 134 196 174 143 140 113 109 116 112 120 131 138 156 117 171 144 193 187 144 171 164 163 150 164 484 491 479 435 429 443 375 376 363 344 323 306 300 281 286 243
139 160 182 149 158 133 133 159 134 143 124 125 121 117 110 116 128 136 133 139 128 168 130 218 164 163 133 152 142 169 470 504 458 445 412 418 468 383 382 365 349 323 304 288 276 294 239
186 210 188 191 135 136 152 129 136 129 124 123 114 116 114 114 134 137 122 136 130 137 234 151 137 163 127 140 153 424 196 455 434 434 424 435 467 401 353 362 347 326 305 290 273 276 274
191 192 161 154 136 135 158 128 129 133 131 141 124 113 111 131 127 139 150 132 142 208 143 175 165 136 132 141 264 396 484 427 416 417 400 432 438 411 345 365 347 321 306 288 278 283 273
168 240 163 164 127 173 134 159 131 132 132 130 129 113 135 132 132 119 133 157 136 143 137 127 148 142 174 168 254 459 469 420 414 406 412 408 380 388 352 357 346 319 301 294 250 253 277
240 258 254 182 218 255 214 132 133 127 135 129 124 116 140 123 131 121 131 152 140 169 185 151 163 161 167 142 149 385 453 417 418 416 383 366 377 390 415 361 343 327 301 294 279 281 293
344 229 288 260 278 178 291 143 120 162 127 127 108 115 139 128 133 131 148 119 137 161 130 146 132 164 174 166 134 366 454 420 412 411 374 367 352 374 398 355 330 314 303 296 288 268 294
266 349 227 289 260 262 254 207 134 142 126 162 124 134 143 131 131 141 132 160 138 193 177 243 153 159 190 161 241 403 384 398 376 411 370 361 364 354 341 355 327 311 300 283 286 277 271
231 322 289 311 266 213 135 238 133 143 124 137 209 136 152 134 132 147 155 116 162 142 161 156 153 160 156 359 392 374 353 273 393 358 352 366 339 333 373 359 326 308 296 292 277 281 260
242 318 227 297 253 119 280 136 267 132 208 201 142 134 144 134 130 158 140 149 173 207 158 160 151 179 152 170 355 378 133 346 393 350 335 375 347 327 345 369 312 332 309 284 272 272 263
312 237 292 312 312 253 261 193 284 142 202 206 146 155 129 135 134 127 147 139 204 190 151 144 150 132 168 133 151 296 134 359 370 372 335 326 399 339 322 325 345 317 303 286 279 264 256
364 238 333 296 326 238 233 279 226 231 204 162 141 154 132 124 120 132 142 138 156 186 156 146 148 146 146 290 141 319 336 336 378 352 326 349 338 320 324 341 310 309 295 293 286 273 262
445 488 356 342 293 243 271 260 209 199 143 202 157 134 147 120 142 137 141 126 157 150 148 136 135 161 154 140 318 276 334 246 321 363 342 335 330 316 314 354 318 302 298 286 292 279 288
540 313 290 280 250 307 269 185 224 208 142 157 201 136 129 139 153 135 152 133 151 154 172 147 126 146 169 124 154 338 331 322 308 336 330 332 336 310 315 352 313 305 311 288 297 281 271
452 357 288 264 332 268 280 146 190 122 212 150 145 138 124 131 144 142 133 153 159 207 181 132 157 124 130 136 147 144 136 329 330 309 312 320 314 324 301 330 320 313 303 291 292 304 282
341 352 298 271 336 302 259 259 195 150 177 196 132 128 118 141 177 150 136 164 151 160 169 149 162 155 146 149 170 120 330 131 220 316 314 267 309 307 310 314 312 329 293 292 303 304 299
404 351 277 303 309 274 249 204 199 190 123 127 125 125 126 126 123 142 150 197 178 179 157 146 128 142 151 149 138 143 135 324 141 317 315 304 303 310 313 308 334 310 299 305 296 291 293
251 285 255 248 286 256 180 186 200 133 130 145 125 116 141 134 133 150 141 151 200 206 178 154 128 147 156 110 129 224 186 123 122 136 140 326 321 322 343 327 312 324 304 297 323 286 305
264 258 272 262 274 201 183 208 214 215 136 141 141 142 128 153 154 139 143 151 176 139 164 171 130 170 200 142 164 141 129 191 133 133 273 209 312 315 329 332 317 308 310 321 332 309 361
257 252 275 274 256 225 206 196 224 199 130 134 136 125 127 148 143 139 131 155 166 192 159 143 168 171 162 156 141 113 168 193 137 125 345 324 311 202 316 307 329 318 309 305 303 302 310
275 282 269 254 247 217 186 197 214 225 153 138 128 136 134 150 141 140 148 148 208 172 198 195 141 160 153 175 140 144 191 134 141 142 152 263 270 163 311 306 314 326 314 302 294 293 288
283 262 268 242 175 215 191 208 220 190 200 195 214 143 135 122 149 142 164 190 208 152 209 111 148 172 121 176 118 159 164 188 140 140 161 154 275 349 268 342 315 307 320 316 297 288 284
235 252 254 250 240 227 181 208 128 163 164 204 154 165 128 133 212 135 223 195 210 179 180 163 184 164 174 190 141 153 130 159 156 172 128 121 160 217 163 280 276 342 315 306 305 299 300
258 172 243 227 230 185 180 204 129 192 171 124 167 213 168 148 133 161 218 226 238 202 205 176 182 152 160 138 128 140 168 126 134 132 179 255 256 175 255 210 231 253 342 336 330 301 307
241 246 249 191 239 217 191 217 192 198 202 213 209 221 157 155 137 225 221 227 146 207 204 199 184 149 148 177 169 143 157 169 163 147 170 210 239 256 251 253 246 123 286 157 336 319 325
177 259 261 215 173 212 191 207 191 204 207 210 225 236 204 147 137 224 207 116 225 217 143 144 207 148 197 181 129 123 161 229 153 166 139 148 226 219 220 241 245 148 123 119 122 137 334
264 256 223 228 152 188 177 210 174 207 206 214 254 142 222 134 228 187 225 161 170 214 131 193 197 145 197 196 193 172 180 156 125 191 133 184 161 188 241 246 242 251 250 177 177 345 367
244 239 222 228 189 181 126 127 160 208 182 215 169 251 179 233 231 219 136 156 129 142 200 167 142 165 177 140 127 172 156 176 154 175 118 153 163 152 255 237 238 235 128 155 236 284 367
243 221 173 173 179 210 208 202 199 213 205 247 241 151 230 236 228 224 209 141 119 139 204 186 142 188 169 194 144 177 132 109 178 108 145 148 236 216 207 242 237 241 244 190 265 278 304

GFSGBSN_2pvu_pres_093.txt.gz
Presure
205 202 200 189 193 152 150 133 156 150 200 131 133 126 112 107 114 117 116 128 121 122 123 118 145 138 143 225 178 144 147 177 155 168 483 481 501 466 399 372 365 357 335 307 324 288 296
283 244 194 216 215 168 202 162 140 126 144 131 140 148 129 124 111 113 134 141 127 161 125 133 139 127 168 134 173 125 178 155 155 167 497 475 462 496 398 367 370 360 339 316 326 287 286
254 282 291 253 166 219 171 141 172 215 133 204 140 144 133 143 111 118 128 110 125 123 128 145 125 155 241 181 161 174 149 176 164 371 444 434 447 468 416 367 365 351 336 307 319 264 316
231 263 227 262 275 265 227 250 135 153 152 150 140 141 130 128 110 108 142 132 137 124 136 140 137 246 143 150 132 149 150 169 325 441 413 415 416 438 423 369 362 342 310 292 293 287 298
244 254 247 262 263 262 221 198 180 230 210 142 194 136 140 112 111 114 143 126 127 118 127 150 160 211 158 149 171 173 166 454 428 417 404 417 417 419 488 361 362 337 306 298 279 268 261
247 241 256 240 275 237 273 258 282 184 172 252 133 195 134 134 120 118 142 121 125 165 129 134 134 139 161 181 143 165 450 428 282 401 396 401 385 408 439 358 364 345 324 318 287 274 278
254 273 249 223 348 324 230 281 211 216 248 161 144 141 140 142 123 142 136 127 139 148 139 147 169 191 141 176 157 149 159 367 271 420 394 392 385 375 422 359 360 327 300 294 291 282 260
238 290 250 259 365 238 297 338 178 241 143 255 162 133 146 133 132 142 129 133 146 129 118 131 166 171 154 134 137 157 168 249 392 365 364 360 358 383 395 352 355 323 318 297 272 280 291
370 351 405 241 258 243 285 327 318 269 229 255 227 135 165 133 143 144 130 130 129 127 141 185 235 173 168 140 132 167 394 413 353 368 374 356 373 388 418 347 347 326 315 283 274 259 256
432 433 455 471 384 326 250 269 260 208 276 298 255 134 149 134 141 163 129 138 131 123 147 180 169 162 166 155 134 239 178 362 368 361 342 388 341 325 461 324 339 321 313 289 268 265 268
452 462 463 484 504 318 253 324 319 171 266 175 157 171 142 212 203 127 127 150 133 125 147 231 246 166 133 146 147 294 330 335 361 341 334 337 331 316 348 326 329 312 307 315 281 271 269
473 476 521 533 575 277 302 329 309 248 246 284 199 216 138 195 176 123 127 137 135 148 178 146 151 144 146 147 135 141 337 341 326 335 308 318 319 321 306 366 322 307 304 289 282 291 273
468 488 481 505 561 253 322 254 253 266 240 243 184 212 149 205 131 126 148 117 123 143 145 181 142 171 152 153 151 121 133 139 330 357 340 331 323 305 378 380 320 290 300 290 282 284 317
477 459 474 535 534 279 142 324 242 291 260 240 149 226 117 222 126 136 133 139 134 150 201 156 141 170 134 125 139 130 137 277 137 139 328 328 334 331 327 333 327 312 285 276 281 279 274
433 435 444 495 257 370 275 327 307 265 244 148 237 154 199 126 133 130 142 157 150 158 182 158 153 174 151 111 108 184 185 144 130 143 297 327 314 315 310 328 320 308 311 292 283 279 279
416 417 446 471 356 355 257 283 289 248 240 151 155 203 144 124 189 125 128 141 139 174 172 155 198 171 182 153 156 117 139 141 270 146 138 321 328 321 308 323 344 343 297 285 293 278 271
400 428 445 342 356 275 253 285 259 236 165 211 195 135 125 128 135 178 121 147 136 159 152 156 194 163 163 160 134 236 120 122 265 139 155 321 322 323 333 360 335 340 335 310 315 300 303
401 325 337 271 281 287 253 258 237 235 205 156 189 213 126 124 142 151 129 143 145 189 228 168 149 134 165 168 149 134 150 134 342 140 320 136 237 313 320 332 341 318 326 311 293 290 295
399 298 343 359 282 263 254 252 224 192 234 181 133 184 128 133 140 146 155 133 140 226 150 169 194 152 159 124 165 164 172 140 125 152 187 141 249 334 368 325 325 321 333 310 313 308 308
266 346 324 285 300 278 192 209 209 201 162 189 219 186 119 151 134 143 139 135 127 231 155 216 124 158 172 157 159 147 172 164 165 160 125 260 348 142 343 332 340 337 335 322 313 314 301
297 261 296 277 263 252 232 241 225 197 125 154 130 136 129 208 151 133 138 153 136 202 219 142 152 131 189 192 185 143 154 163 113 146 151 131 147 243 300 325 344 336 172 330 334 335 328
271 281 279 258 252 231 241 215 226 194 190 188 132 135 133 141 147 142 140 149 139 180 218 134 176 157 156 205 199 190 153 143 150 148 135 149 179 241 251 275 140 326 340 330 327 318 317
279 227 281 273 237 240 152 226 184 183 200 223 130 197 218 160 131 178 141 138 218 232 121 133 188 190 191 151 159 148 126 139 163 132 190 160 160 185 221 215 257 191 170 236 190 332 307
242 243 260 239 243 242 222 234 209 187 224 217 186 125 181 132 135 205 140 186 226 211 215 206 199 163 176 161 194 183 120 137 172 143 163 163 212 218 181 243 251 198 259 247 303 126 342
279 281 218 243 241 228 227 225 205 179 225 201 197 135 208 214 215 147 138 229 230 187 142 139 185 161 183 144 148 186 159 126 153 196 131 131 186 165 176 228 231 156 151 222 278 309 278
241 245 255 190 240 223 231 222 201 175 219 196 217 212 214 216 231 140 208 223 231 151 145 200 118 193 181 184 182 172 153 139 129 164 177 109 166 156 235 209 247 208 157 242 158 279 117
244 200 253 223 230 227 173 212 191 172 190 189 211 208 213 195 209 140 223 221 207 153 167 207 203 187 144 150 157 157 168 179 142 132 151 193 171 164 190 225 139 190 237 126 250 250 292
255 253 161 204 229 247 236 210 199 200 213 189 213 208 194 230 135 225 220 213 165 231 213 216 142 197 124 144 184 183 181 169 184 165 161 160 152 140 233 237 230 221 177 241 237 254 264
264 267 239 232 221 193 215 183 185 224 202 205 213 216 203 228 208 225 222 221 229 181 218 134 141 194 149 143 194 192 133 171 173 151 143 145 175 209 139 130 231 183 238 249 241 249 264

GFSGBSN_2pvu_pres_096.txt.gz
Presure
239 262 263 253 265 241 242 189 210 156 218 186 132 136 143 140 131 135 115 119 117 135 123 126 123 147 122 147 127 156 164 160 192 135 152 163 184 187 169 174 392 404 384 371 343 324 319
258 254 247 247 249 257 251 271 192 201 229 158 129 141 138 150 177 136 111 114 119 129 150 126 132 136 117 150 147 143 198 187 152 172 130 171 180 187 202 450 408 400 377 363 324 308 316
229 185 243 241 268 266 246 242 246 258 256 265 259 146 150 147 157 144 123 115 121 132 126 119 126 135 120 141 157 150 168 150 150 127 159 180 451 457 472 474 412 388 372 365 302 288 335
221 239 247 261 272 231 248 283 239 259 247 243 152 259 146 237 264 152 119 116 118 153 125 126 122 130 129 149 139 167 203 181 158 160 159 236 430 424 444 467 416 384 367 353 302 301 303
232 243 218 270 238 221 277 225 256 257 235 268 153 282 223 266 170 187 126 117 133 148 124 122 143 150 152 141 183 143 187 152 161 163 289 281 199 404 422 451 422 383 368 346 304 289 279
255 264 244 259 272 249 222 292 273 220 232 268 252 259 144 252 138 211 127 119 143 129 125 133 147 127 134 158 163 136 126 162 148 385 210 393 393 405 443 457 440 386 363 337 290 285 308
271 283 266 352 345 307 330 248 256 232 279 275 269 291 250 251 245 133 129 140 116 124 125 133 139 134 146 158 182 134 131 164 159 407 376 384 374 430 412 465 415 360 349 344 288 268 251
270 275 392 408 407 418 314 295 269 236 248 148 283 209 281 182 152 147 120 164 133 139 157 157 145 139 154 159 150 130 155 166 144 398 388 363 376 391 400 428 378 354 331 313 287 263 263
324 399 397 400 406 427 432 269 354 334 292 261 330 297 276 233 142 140 141 204 126 130 145 139 141 155 156 153 129 125 183 169 360 348 353 377 374 386 423 398 354 349 312 308 300 259 278
397 398 405 415 428 437 450 453 360 327 235 305 266 235 259 221 223 132 141 134 128 136 148 140 132 216 166 174 177 143 177 200 272 329 331 345 404 377 375 379 345 326 318 303 272 265 250
404 405 446 462 422 476 496 497 257 275 226 338 243 207 254 242 141 193 151 130 150 136 138 157 262 136 169 173 127 133 112 164 146 145 322 338 367 424 378 357 323 307 292 292 292 270 258
398 463 463 421 418 474 507 569 267 246 282 261 242 249 242 240 124 147 177 125 141 130 184 203 148 147 153 136 150 125 117 135 149 147 158 302 330 337 361 361 313 294 285 277 267 274 263
487 470 451 453 447 464 368 561 364 197 287 258 257 234 175 241 206 150 155 115 161 131 194 142 157 155 167 174 130 124 134 120 200 269 155 314 329 332 337 349 339 292 285 274 279 267 262
475 429 424 430 443 474 509 391 342 317 258 267 250 244 247 212 218 193 131 149 143 127 233 147 158 162 158 146 147 126 136 302 220 213 164 306 314 391 335 345 322 327 309 298 285 282 269
428 426 422 436 424 460 389 127 268 290 247 249 239 243 228 230 221 141 130 137 162 224 149 140 163 160 161 178 109 164 296 170 150 333 299 221 240 348 358 356 336 303 305 275 273 265 273
402 417 420 451 457 333 311 328 245 263 241 244 248 230 224 194 160 133 178 138 143 192 216 152 214 148 173 176 162 134 118 193 149 132 136 229 132 147 318 370 340 339 312 285 281 277 283
401 418 423 367 461 357 272 267 279 253 252 251 239 232 223 226 132 174 143 139 142 197 158 133 155 147 157 159 160 152 117 170 276 181 199 138 348 152 366 349 331 336 327 331 291 275 279
419 417 284 312 305 364 262 272 265 249 243 239 224 228 235 138 139 173 147 136 148 150 147 150 217 198 157 142 171 144 162 112 130 150 121 143 349 150 337 354 384 331 318 310 326 282 286
429 322 279 281 324 268 267 235 264 251 218 234 225 219 151 130 135 174 140 123 147 139 193 205 198 158 204 191 142 166 122 156 209 223 139 138 346 329 347 386 371 322 310 306 313 302 305
389 399 296 291 265 266 247 251 257 237 240 229 230 223 143 152 132 145 190 136 139 138 169 148 218 201 154 147 184 153 162 140 128 168 117 233 159 132 300 355 207 253 242 319 318 306 309
416 375 289 266 263 255 246 263 238 190 188 221 137 197 134 191 133 144 143 142 138 141 145 142 188 205 154 155 195 236 164 156 162 130 219 148 204 155 158 272 186 142 357 228 352 126 327
321 298 274 278 260 248 258 234 241 240 231 226 224 143 126 138 209 128 133 141 150 142 218 210 191 172 163 163 173 176 199 132 138 176 133 179 168 190 144 152 139 267 267 282 332 362 353
300 267 266 244 260 237 248 236 243 181 133 219 131 133 141 141 129 166 138 135 146 224 212 207 185 173 198 149 139 190 118 189 144 147 173 118 208 154 206 239 242 189 209 230 255 292 294
247 259 253 264 250 252 234 252 204 237 155 142 158 153 132 131 174 195 138 139 217 131 216 209 178 218 194 177 177 141 193 151 190 157 149 163 139 149 212 224 242 256 241 213 257 249 274
253 235 282 262 239 231 244 241 230 207 226 211 191 129 175 211 199 130 143 141 222 234 215 208 217 200 131 181 189 151 203 181 193 162 158 128 140 191 178 155 239 179 231 146 249 237 248
253 247 237 267 161 178 232 229 185 183 164 209 218 186 213 207 131 223 208 217 198 234 216 150 186 199 198 194 150 147 196 149 174 144 169 141 131 152 135 195 186 247 240 177 135 230 234
244 256 231 268 252 155 229 223 230 197 173 178 173 167 196 205 215 231 159 224 227 232 219 185 140 167 144 193 174 145 189 149 170 182 130 160 158 159 190 134 212 186 229 197 233 253 257
194 242 246 249 190 178 242 226 229 228 178 159 198 216 215 210 222 224 145 224 221 231 224 120 212 138 190 138 170 136 187 176 202 179 174 190 154 152 136 137 221 224 225 247 244 240 226
196 268 242 242 242 177 173 223 224 232 179 131 195 219 216 216 215 224 196 222 215 226 225 209 182 142 148 196 183 185 183 176 178 175 176 151 138 143 143 144 193 174 151 223 240 240 224

GFSGBSN_2pvu_pres_099.txt.gz
Presure
242 189 239 218 235 220 246 278 247 244 260 239 278 290 192 153 210 146 132 141 119 129 114 121 124 138 148 135 127 135 144 135 156 137 171 159 162 150 145 139 143 127 135 144 148 148 157
200 177 227 243 232 234 203 254 273 262 257 206 240 238 253 158 164 190 163 141 126 120 119 119 123 120 134 136 126 132 145 152 154 174 158 251 167 160 161 155 129 111 130 136 181 142 166
233 234 222 249 208 264 235 260 262 263 263 280 230 260 259 283 142 142 150 141 111 119 116 121 157 150 137 96 127 132 149 152 170 157 150 131 166 175 136 175 371 438 397 401 371 386 323
229 238 240 252 277 282 269 223 268 271 238 230 286 242 252 271 233 149 296 160 272 117 115 129 141 200 133 122 131 155 146 168 170 171 141 146 152 170 238 440 456 504 412 400 376 377 367
239 242 225 253 279 297 288 295 294 324 359 286 244 297 228 274 271 134 299 269 160 130 117 108 134 137 112 131 162 150 162 204 161 284 147 153 160 290 399 336 438 287 275 396 361 373 352
243 245 268 274 299 319 359 330 232 359 304 265 270 241 261 235 239 174 285 274 151 117 124 150 141 140 138 158 144 157 176 142 198 145 155 171 322 388 398 420 451 436 427 385 362 379 339
250 253 276 302 368 353 376 399 387 372 341 344 357 278 253 227 299 279 265 146 224 115 117 149 145 142 147 130 152 162 144 135 156 125 169 250 395 419 414 440 427 396 419 362 348 335 322
239 263 294 349 376 389 387 383 386 400 360 236 342 293 261 301 220 264 254 161 119 144 142 149 138 153 128 154 159 181 139 183 163 166 315 376 381 398 405 450 424 403 386 347 319 307 299
263 286 353 385 388 402 437 440 431 430 391 343 323 256 247 256 248 230 214 146 135 126 135 189 146 123 141 149 213 146 131 159 138 128 134 150 369 399 405 449 399 438 320 295 292 301 301
278 319 387 390 424 460 444 457 454 443 405 295 264 289 278 260 253 251 216 119 119 138 201 144 129 144 154 160 163 149 181 158 139 139 344 167 368 398 392 424 432 374 300 294 292 294 295
309 380 392 398 444 438 450 444 440 455 424 283 256 244 268 232 258 193 166 242 250 199 146 149 145 110 154 165 164 141 125 127 159 122 160 353 366 391 406 396 366 297 291 284 300 297 271
374 393 400 443 413 424 428 440 461 544 309 265 258 243 261 159 150 246 190 122 153 146 133 142 129 143 187 186 160 164 161 139 176 132 319 351 363 424 358 353 349 312 289 271 283 279 261
395 405 419 417 418 422 425 442 487 445 350 291 264 273 209 251 244 240 201 235 137 186 201 142 141 175 165 142 157 136 120 164 173 170 333 139 191 335 344 344 325 301 279 271 270 262 275
421 423 446 402 414 402 434 463 504 381 262 256 260 249 243 233 244 230 216 227 130 174 146 151 152 159 190 163 167 174 112 208 127 336 140 346 247 348 357 343 331 305 288 285 262 266 264
450 455 439 407 431 437 466 433 271 258 278 261 254 242 234 243 159 228 170 229 229 145 153 126 212 211 140 168 148 161 120 120 226 135 139 206 168 371 338 336 336 321 299 281 274 274 271
482 518 409 410 427 447 451 274 272 287 224 261 237 243 211 229 206 219 222 184 133 141 142 168 205 183 140 142 150 174 169 164 256 135 156 311 148 367 362 329 315 319 290 289 274 287 279
577 414 420 429 450 359 280 277 280 213 264 242 244 238 231 229 226 149 182 138 140 145 154 178 221 150 170 166 134 177 174 140 142 200 159 240 213 271 363 313 324 319 304 292 290 283 276
420 431 328 432 313 276 277 256 267 224 250 239 245 234 233 225 187 169 136 132 144 140 160 206 172 187 157 132 147 167 173 152 166 163 148 139 285 344 141 371 302 303 313 301 274 274 275
431 455 418 312 279 292 273 270 255 245 241 248 243 228 214 194 154 136 146 143 142 137 149 140 207 181 188 192 158 196 174 167 178 108 143 155 256 403 371 403 191 307 303 166 291 279 288
255 348 289 283 291 270 278 259 257 243 253 238 235 227 213 141 126 147 180 136 137 140 175 215 144 149 157 165 154 169 136 202 260 188 255 211 202 211 233 223 228 365 217 308 312 293 305
265 269 290 262 282 265 270 236 246 244 239 238 230 223 196 128 131 146 225 145 139 125 144 220 175 177 184 184 164 165 133 166 159 187 150 268 252 231 240 127 280 276 267 221 160 307 300
281 296 292 272 258 266 207 245 228 243 240 230 145 189 149 129 136 130 158 144 135 126 197 139 187 207 204 191 181 162 124 181 182 163 140 198 191 165 131 238 193 244 156 239 273 272 256
297 279 272 280 275 237 243 234 242 240 193 212 212 177 142 150 167 132 133 197 141 150 215 210 207 201 150 161 180 150 193 189 186 196 150 151 151 200 205 138 231 221 269 246 236 144 243
239 226 268 278 207 261 183 193 173 226 234 197 209 196 166 130 147 165 143 140 132 139 142 207 182 203 184 190 142 209 137 157 148 168 201 166 171 122 156 163 212 224 246 228 242 132 147
243 223 232 244 266 258 253 247 221 230 232 201 199 124 207 216 133 134 135 141 156 140 200 207 136 138 198 189 146 198 141 140 173 178 224 149 122 161 140 173 216 140 222 231 142 213 209
222 209 266 209 256 253 248 243 181 198 212 224 212 206 197 129 218 138 228 136 135 140 200 203 207 137 150 195 196 202 142 146 147 180 171 188 173 144 140 211 198 234 212 210 165 267 229
237 228 249 230 252 254 224 242 222 209 193 211 217 169 164 212 134 162 179 220 228 201 180 207 211 152 166 157 139 162 155 192 191 211 172 178 166 166 186 137 163 223 129 135 239 210 154
196 231 263 241 241 251 212 206 205 201 182 216 217 173 124 213 189 227 204 223 228 231 143 211 170 199 195 186 177 185 202 187 184 182 167 171 159 129 195 154 162 150 135 230 228 193 210
188 212 269 235 168 211 217 241 226 225 161 228 223 200 142 206 223 220 230 226 216 230 217 207 198 172 192 147 139 185 178 188 186 182 168 178 149 138 160 159 129 168 137 170 232 231 210

GFSGBSN_2pvu_pres_102.txt.gz
Presure
200 236 224 238 217 231 204 247 191 239 241 277 266 270 232 251 271 258 200 263 182 158 169 127 131 127 122 124 122 124 151 137 137 116 198 116 121 166 113 159 152 165 161 190 135 141 172
248 247 241 234 233 204 246 244 246 233 260 253 259 203 244 239 204 240 245 277 259 163 226 134 127 119 119 121 128 142 165 129 117 122 150 142 192 164 165 189 205 155 143 148 131 125 137
238 238 244 248 251 242 238 240 233 260 279 269 320 300 270 244 250 259 285 314 239 126 128 237 139 118 116 119 129 139 132 140 141 119 153 170 168 182 153 151 163 151 157 145 156 141 131
240 235 241 247 256 235 246 254 269 294 295 346 345 307 283 240 265 285 226 243 282 214 154 169 132 118 122 124 125 145 138 252 118 115 157 168 213 174 145 160 144 156 154 140 141 144 154
244 247 248 255 242 249 262 279 296 315 323 341 351 349 341 316 277 292 266 253 240 270 249 131 131 122 114 127 185 131 129 129 130 158 161 188 188 150 148 151 158 276 457 353 155 146 261
261 244 248 261 268 280 293 310 327 361 351 350 344 341 333 353 347 272 265 243 231 190 175 158 148 122 120 127 130 147 145 146 157 167 231 167 157 180 397 374 411 442 431 477 414 403 372
266 268 275 280 293 318 346 358 372 385 385 375 369 363 348 359 282 257 254 245 187 200 278 100 281 118 105 136 144 115 164 160 189 199 169 142 127 137 161 434 395 416 436 441 381 410 353
271 283 296 329 348 356 365 381 397 413 401 385 401 393 304 283 266 262 275 182 233 233 150 132 241 109 128 132 150 146 125 158 185 154 139 363 240 148 139 397 384 392 420 421 366 388 380
298 340 359 366 371 381 394 411 436 450 485 395 406 392 298 264 277 255 254 201 148 253 219 202 143 126 137 147 150 152 164 192 153 151 134 148 140 143 434 383 389 431 409 359 344 377 319
370 388 389 394 395 398 399 412 420 443 483 407 410 324 280 258 245 262 272 228 271 208 241 150 132 146 135 151 141 174 207 159 145 129 147 363 369 389 384 375 426 392 361 347 356 342 311
342 441 443 416 404 392 404 407 433 427 496 422 281 281 282 177 261 205 179 275 145 259 152 129 130 140 173 146 167 184 183 154 136 151 122 385 135 403 392 423 366 360 342 356 363 359 319
471 449 427 408 403 403 401 409 422 446 484 296 283 279 242 240 250 188 253 263 243 226 149 183 146 149 137 158 168 180 148 245 270 203 119 132 389 366 400 353 348 346 321 329 333 316 303
446 431 428 413 421 404 415 415 436 463 284 290 269 271 257 213 263 144 256 236 245 193 135 147 147 131 158 165 196 170 169 157 185 163 349 170 368 230 324 319 316 308 305 302 288 289 271
451 459 458 474 414 403 427 436 341 281 289 255 266 249 266 264 159 248 229 232 217 147 214 142 131 150 158 174 159 172 145 179 130 259 167 158 351 316 304 313 307 314 313 300 288 288 278
428 431 428 413 416 409 426 312 274 279 212 282 269 241 178 146 229 229 229 222 142 161 133 142 137 156 176 166 199 157 196 135 145 116 195 114 342 314 311 298 300 281 285 285 284 287 291
405 405 416 416 434 377 299 271 286 259 281 269 255 208 141 243 229 226 201 141 215 166 143 147 158 191 155 149 177 166 184 257 144 128 345 123 318 318 163 298 310 296 284 268 281 283 282
437 420 418 421 309 287 273 283 254 103 252 250 252 233 242 232 218 176 215 221 141 145 146 160 182 222 169 136 163 243 188 178 296 135 115 202 149 117 207 292 290 293 287 299 293 277 281
397 475 477 315 301 268 294 227 264 189 205 233 241 242 231 219 207 191 225 155 147 133 152 167 207 229 192 255 254 194 157 139 175 141 132 352 357 111 145 301 295 298 272 308 280 275 278
305 315 303 276 286 272 260 259 267 256 238 213 243 231 220 216 237 215 158 153 138 148 136 196 141 157 169 167 166 205 146 208 268 342 143 148 227 149 152 176 150 149 306 248 269 303 258
234 276 283 293 265 249 254 264 254 244 248 239 235 217 205 224 232 160 143 141 168 148 139 147 213 179 180 174 160 161 154 166 164 252 269 125 230 235 388 317 324 304 131 281 281 281 205
277 269 253 256 172 261 267 253 252 233 239 237 227 175 183 152 199 134 135 152 152 145 148 127 171 190 181 175 172 150 160 169 220 192 251 131 151 154 245 244 230 259 183 206 263 288 287
214 227 264 271 262 268 255 253 227 240 232 229 193 148 176 218 131 131 134 149 138 145 143 150 208 198 194 144 219 154 135 142 189 151 140 211 206 158 237 169 148 134 229 232 246 239 126
226 216 225 258 268 243 239 232 240 227 228 218 207 185 134 140 128 129 151 150 144 141 140 212 208 204 208 158 165 177 196 108 158 187 187 210 151 143 218 254 176 162 218 248 233 204 132
229 243 188 233 258 242 230 246 199 225 224 200 187 185 130 142 126 126 152 140 140 141 140 134 187 208 202 202 203 166 240 144 137 182 168 182 189 97 143 199 160 242 223 230 172 181 155
196 241 202 254 215 206 240 243 228 222 221 209 125 141 156 117 209 128 124 137 137 140 143 140 199 201 131 200 150 145 201 183 137 197 176 158 177 153 165 124 220 233 220 134 141 228 211
266 243 228 227 206 220 154 243 222 226 205 195 195 179 131 213 203 127 212 221 148 174 140 192 201 198 198 143 142 137 144 195 203 197 184 162 161 183 150 164 133 137 127 195 236 145 227
284 219 244 208 231 222 242 239 234 207 163 179 182 212 127 192 144 141 135 132 224 143 161 166 161 199 195 178 134 142 142 190 162 187 201 195 183 158 176 143 180 144 166 190 124 229 203
312 287 258 228 232 176 239 178 229 226 217 198 186 171 141 126 134 124 151 138 134 133 211 209 182 182 198 194 192 165 147 191 193 187 190 180 192 165 156 147 137 143 156 140 123 207 207
236 273 226 147 264 251 234 204 229 189 214 194 171 185 170 131 205 132 160 134 225 232 211 213 141 197 197 196 143 131 186 191 185 184 185 186 163 178 167 141 175 137 133 140 146 171 205

GFSGBSN_2pvu_pres_105.txt.gz
Presure
218 220 226 228 229 248 257 239 234 249 248 263 228 255 255 231 229 239 282 298 273 247 209 195 146 129 151 136 129 140 119 123 129 133 133 131 126 141 123 107 106 139 156 159 164 167 106
227 220 228 233 230 236 269 258 247 237 248 251 208 250 256 255 240 280 295 227 279 267 256 136 168 135 174 163 132 131 122 125 134 127 122 137 148 132 171 144 139 145 208 159 166 204 229
228 232 237 247 255 265 256 262 263 246 244 252 259 256 251 180 275 293 311 313 267 275 235 274 157 198 151 136 134 131 128 135 132 130 135 110 93 187 145 131 162 169 161 149 270 168 164
237 237 250 263 267 262 262 265 268 254 255 259 269 257 269 281 296 319 362 315 276 289 265 280 181 158 298 155 135 123 140 124 116 133 129 99 130 134 121 118 165 184 285 264 183 143 151
233 256 289 311 328 328 325 317 300 295 288 289 291 298 315 327 362 360 352 297 260 279 236 267 228 184 153 252 139 128 114 119 112 146 151 126 112 138 153 245 202 228 156 144 158 174 208
268 302 360 368 364 358 352 351 345 340 341 343 348 352 346 366 354 350 350 299 286 271 270 279 293 135 191 113 145 105 146 119 128 126 111 147 149 162 260 196 181 169 160 154 147 143 158
398 451 437 301 267 399 398 391 392 394 390 379 377 377 368 367 345 344 321 268 288 257 266 288 234 149 151 111 199 131 127 126 141 131 148 155 197 181 169 220 164 157 142 142 140 155 160
230 261 392 458 442 426 427 405 397 391 389 388 385 388 388 348 342 320 296 271 281 273 288 238 139 114 226 144 144 126 125 151 161 151 164 180 169 193 150 158 296 137 158 145 166 431 210
358 452 432 407 409 391 389 384 387 390 406 424 415 391 381 353 336 307 279 288 282 251 281 194 142 186 183 129 156 167 143 142 145 186 173 189 254 139 162 145 154 149 145 154 268 400 372
466 440 420 423 390 393 380 379 385 393 413 444 487 390 389 364 284 288 264 280 254 206 271 259 107 166 160 144 125 146 130 139 188 220 182 156 175 133 131 359 369 357 340 337 332 407 353
422 536 422 415 397 387 383 382 390 400 428 483 413 393 321 283 285 247 269 288 277 262 259 243 212 152 154 136 152 133 170 178 273 187 440 147 147 141 140 277 153 346 332 342 329 329 340
408 502 438 419 395 395 384 393 406 421 450 429 369 292 286 263 266 278 270 263 251 257 232 151 158 138 107 131 143 158 177 204 180 137 380 138 146 353 141 339 181 335 330 322 328 337 347
393 407 432 468 418 411 401 415 420 436 324 304 273 232 264 288 244 257 246 235 188 277 279 149 151 135 154 123 169 166 190 153 161 169 156 130 266 329 312 269 332 332 319 331 299 289 290
401 423 400 438 422 433 430 340 322 306 293 296 251 268 267 259 252 242 236 230 236 145 151 152 129 149 149 171 175 171 206 186 159 308 316 136 155 268 298 318 323 333 352 293 282 276 279
404 433 427 435 339 325 313 300 293 294 269 263 261 263 249 243 230 218 318 142 150 356 149 150 156 151 122 175 141 190 195 307 154 133 159 136 157 120 338 329 319 313 302 287 279 278 273
372 327 319 301 276 265 241 281 255 208 249 265 250 200 232 226 207 287 258 241 152 166 265 116 144 245 151 159 257 197 196 184 167 134 308 153 241 220 308 131 271 288 307 285 276 279 281
265 272 278 252 248 217 271 248 130 267 256 229 245 234 228 202 221 191 248 163 215 153 140 145 157 190 168 151 167 164 252 175 178 304 365 140 209 116 316 303 272 292 283 282 280 276 282
237 221 228 254 281 274 251 257 256 246 248 236 229 175 214 216 218 266 241 146 155 153 147 138 281 179 162 260 187 156 166 232 134 145 380 177 226 263 137 160 248 259 275 302 297 282 245
215 223 208 248 253 231 269 251 249 242 238 137 229 139 216 233 223 212 142 201 140 150 153 155 145 191 267 164 234 178 189 215 298 183 176 159 269 299 162 285 142 138 266 305 224 259 252
237 211 214 173 275 265 246 244 234 234 231 228 207 209 223 217 219 156 149 155 142 150 144 148 174 180 227 246 238 229 153 185 275 222 149 160 182 294 153 173 177 266 279 295 274 258 141
246 179 188 241 250 263 238 225 239 250 232 218 230 227 219 164 201 150 141 146 147 151 146 133 172 188 235 150 245 148 233 226 175 231 169 244 144 169 138 248 138 237 292 274 268 147 282
241 228 236 217 229 209 237 244 243 236 204 217 228 229 179 211 211 143 150 139 156 149 138 147 217 193 177 172 194 162 140 229 141 256 136 253 175 184 149 213 248 138 248 257 117 240 242
273 254 222 231 198 227 240 218 224 223 238 236 235 203 207 141 143 132 129 131 149 147 143 136 138 215 215 214 191 163 148 141 139 145 163 155 217 103 154 137 191 134 210 136 158 240 158
226 253 243 205 210 222 218 228 230 186 178 228 169 225 207 174 132 131 130 209 148 145 143 142 139 207 213 201 181 190 144 140 183 141 156 184 167 201 123 241 123 140 233 123 128 132 228
210 231 266 243 151 212 217 208 193 203 170 226 215 160 227 118 128 129 136 198 136 162 141 141 153 200 206 157 140 132 128 199 180 142 104 177 174 214 167 153 207 206 218 147 173 215 203
185 214 227 249 227 157 214 191 221 199 216 191 216 139 224 211 138 127 204 134 165 138 199 147 139 141 150 194 199 138 198 198 195 188 187 169 166 163 160 169 158 144 156 109 225 133 210
185 206 191 221 254 208 170 191 203 196 209 190 213 194 135 165 129 129 210 214 144 139 154 142 164 178 178 197 196 200 198 188 194 200 191 179 192 186 176 157 176 152 137 141 181 200 157
173 194 199 209 254 252 213 150 186 225 214 190 171 207 213 221 126 166 135 166 171 207 141 140 198 203 201 145 196 195 194 128 176 188 192 190 183 181 190 168 189 146 143 140 137 165 130
216 195 207 215 207 281 263 235 145 189 223 174 205 173 177 222 213 174 132 128 126 215 136 197 198 199 190 141 198 160 137 192 188 190 187 189 183 170 179 179 199 163 151 145 152 135 122

GFSGBSN_2pvu_pres_108.txt.gz
Presure
222 227 228 231 231 228 233 235 240 231 244 256 250 223 274 266 256 251 236 255 267 247 241 279 247 239 183 176 139 130 138 159 166 129 134 127 125 121 147 136 139 136 139 142 149 107 143
237 219 247 256 256 260 252 250 243 262 258 262 274 270 274 233 182 250 239 249 271 261 255 280 286 284 264 299 133 142 130 149 137 142 141 128 134 144 139 134 122 138 127 136 133 102 194
203 229 204 232 252 259 292 325 320 313 306 301 292 277 267 271 263 259 257 260 264 278 270 269 290 307 284 161 141 183 133 143 137 136 124 124 148 126 113 126 126 137 105 145 124 154 149
216 228 254 242 246 256 316 368 335 252 329 312 308 289 271 268 270 262 189 267 267 276 273 267 282 294 294 285 214 149 160 151 135 141 136 139 126 119 150 158 148 129 125 114 124 134 139
227 416 371 341 352 441 415 385 384 383 358 333 311 311 291 275 271 273 272 277 273 276 294 307 334 294 287 288 168 147 276 166 187 135 122 116 124 130 137 118 110 133 121 139 156 158 159
340 353 402 469 438 382 408 393 384 381 365 292 355 343 327 316 283 283 285 284 257 299 319 358 305 281 287 264 171 286 282 143 158 116 130 102 132 151 138 130 147 141 153 142 149 168 225
389 372 403 437 415 401 395 387 407 426 388 383 297 302 368 348 335 313 299 302 374 364 344 303 285 286 284 271 275 181 169 140 239 185 132 132 145 116 131 147 155 142 152 162 473 464 413
373 372 443 440 403 388 388 360 374 390 393 402 406 414 371 364 360 363 378 362 349 344 297 318 273 278 238 157 143 129 164 137 124 160 122 138 155 133 130 154 159 192 185 181 178 146 165
367 375 402 435 405 395 385 384 380 384 383 388 397 389 390 385 376 366 344 334 316 316 299 273 275 286 276 215 111 112 127 126 126 146 135 147 164 167 150 199 116 157 144 128 156 154 139
372 386 401 426 400 399 377 360 363 371 377 401 422 390 369 375 359 335 318 329 294 231 270 280 276 266 233 140 159 121 139 152 132 141 135 142 180 171 190 383 154 146 291 133 204 158 153
381 391 405 437 389 389 380 373 362 393 420 448 445 391 389 345 325 329 289 245 158 265 285 309 245 231 235 172 153 146 137 145 125 151 152 157 178 306 160 145 254 162 344 248 334 140 332
426 422 420 439 414 413 405 403 411 434 491 411 389 367 335 246 299 261 291 281 287 249 234 185 224 134 141 143 161 141 134 148 145 244 337 202 129 266 133 170 240 139 146 325 316 308 299
251 375 471 451 439 435 425 431 453 432 405 321 252 290 293 281 276 246 239 239 208 204 189 211 153 240 147 158 139 127 163 142 217 185 156 244 204 156 135 145 166 322 326 298 291 291 308
258 276 283 263 254 288 261 302 248 247 244 156 248 202 244 230 260 276 287 288 305 344 346 341 155 155 144 140 161 162 125 188 178 214 215 189 311 343 329 190 230 290 290 282 276 290 297
215 249 287 272 266 266 263 257 253 252 252 249 256 240 225 294 323 133 301 371 186 156 329 152 140 133 141 139 154 141 201 202 167 178 151 162 350 147 141 293 130 282 282 274 275 280 289
221 203 229 277 216 263 244 237 214 250 269 300 255 206 261 354 202 381 377 175 168 149 156 141 139 140 158 153 163 297 195 248 151 239 142 244 293 142 228 182 121 289 283 275 275 270 281
137 184 202 255 250 225 239 212 145 178 232 224 172 250 187 278 282 245 151 167 141 283 144 131 211 145 360 170 165 162 197 328 251 191 159 147 138 209 290 173 290 284 278 283 280 252 280
155 202 183 202 198 248 236 228 238 221 227 128 204 240 225 192 222 276 181 147 181 144 142 163 232 162 165 194 156 159 349 384 305 281 142 275 273 272 109 295 254 236 288 266 223 269 255
231 146 203 183 140 209 218 209 219 198 219 143 228 189 221 237 237 198 147 131 148 134 141 135 250 237 279 181 209 158 166 263 171 173 176 245 153 172 235 191 273 253 247 256 253 259 228
242 159 229 195 218 238 207 176 148 215 215 182 180 207 202 198 240 201 129 146 145 151 148 148 203 195 165 184 157 245 173 227 185 193 290 159 280 148 266 135 227 276 204 181 178 209 282
134 249 209 217 210 185 195 180 168 219 222 203 208 202 200 199 140 138 155 145 139 144 141 148 254 260 217 160 150 147 236 235 144 135 164 179 218 126 286 224 197 154 264 274 131 186 319
194 213 241 207 234 186 192 211 185 229 227 216 200 173 216 140 144 143 140 151 158 146 148 147 169 225 193 188 195 158 242 137 175 243 135 203 208 177 173 210 257 266 135 178 263 134 261
176 197 216 227 239 221 205 180 182 182 215 210 168 213 188 161 201 130 129 148 148 147 139 142 134 186 140 166 176 144 149 152 177 158 141 208 179 198 172 174 145 242 180 145 236 245 200
179 205 208 206 242 245 183 218 174 190 181 223 207 220 216 205 175 131 123 166 145 147 145 138 172 183 178 163 175 151 154 169 217 178 176 168 197 180 234 242 183 171 176 179 149 175 212
175 182 199 210 206 257 242 220 175 165 180 204 222 212 140 217 150 201 134 131 136 167 207 146 197 130 198 202 203 152 174 174 155 197 178 217 137 187 175 172 173 161 152 140 144 141 115
215 188 211 193 205 214 267 253 215 175 191 199 150 214 160 219 137 120 123 124 131 129 142 201 138 142 209 140 198 205 200 147 195 195 195 194 182 187 187 152 163 137 146 173 181 212 184
194 197 172 207 193 204 197 243 142 205 214 202 177 153 153 222 135 157 212 133 135 141 131 136 156 155 202 203 187 203 201 174 205 152 199 180 176 198 171 151 179 173 159 173 171 137 160
209 200 191 198 210 196 192 223 220 152 209 171 188 217 187 127 222 200 119 131 134 161 130 134 191 207 204 200 142 178 201 190 195 197 194 199 188 186 183 179 200 151 173 183 155 159 152
200 197 186 194 173 193 217 210 216 208 268 160 143 200 183 198 126 136 215 142 193 131 131 130 164 134 197 192 201 199 199 185 196 190 194 192 192 178 172 193 171 187 193 149 157 151 167

GFSGBSN_2pvu_pres_111.txt.gz
Presure
230 261 270 248 243 260 252 244 264 247 244 255 269 264 257 251 250 257 248 249 258 253 276 210 249 251 213 284 261 280 146 132 142 152 160 133 127 148 123 151 131 141 147 145 117 157 147
400 449 428 291 249 266 281 258 255 267 254 238 233 298 279 275 267 259 254 261 263 270 273 246 268 256 266 274 252 298 274 152 114 135 138 161 138 134 143 142 128 130 143 132 135 148 154
404 416 392 389 386 392 365 386 419 358 249 255 244 267 238 258 272 267 265 169 270 276 172 277 272 270 249 284 229 270 274 251 152 139 141 119 174 104 111 142 134 155 151 134 126 138 109
412 403 394 375 389 394 409 462 425 406 415 384 336 294 291 300 289 287 276 272 279 274 276 277 265 264 273 283 279 268 282 305 160 119 168 148 139 139 146 146 147 119 128 126 134 97 87
386 376 372 383 406 399 419 400 374 378 376 406 415 393 323 306 303 301 297 296 285 275 273 278 278 269 271 274 237 296 307 234 269 151 148 136 115 145 154 142 124 127 108 140 134 142 145
393 388 384 394 468 425 405 385 371 371 370 388 389 385 309 324 321 314 301 295 290 277 275 280 285 280 277 282 263 181 263 256 163 152 165 162 143 164 104 124 129 132 133 156 155 131 130
418 405 415 440 422 401 402 392 371 358 374 388 375 371 373 357 276 310 312 294 296 288 288 283 281 282 282 294 330 313 297 244 299 142 131 164 152 160 148 133 134 106 132 156 171 140 135
287 437 452 433 416 403 396 375 363 369 386 393 433 353 350 363 300 333 324 302 313 302 290 287 295 293 326 322 306 274 259 203 149 272 163 164 138 131 125 137 141 143 146 136 138 143 148
246 459 435 422 411 405 399 373 371 380 381 389 413 355 344 353 327 310 348 347 333 352 340 328 344 320 309 292 289 206 306 207 209 126 130 130 207 109 132 138 148 161 141 152 157 159 163
227 300 452 439 416 400 389 388 388 376 389 387 391 414 379 374 356 348 351 355 361 355 334 312 303 289 294 302 298 117 138 139 133 173 121 101 143 146 139 141 140 169 174 167 168 183 126
224 234 296 281 451 439 454 454 455 445 441 413 399 387 371 390 365 361 349 339 310 294 305 250 283 291 274 285 125 129 124 154 154 339 165 153 150 137 146 157 158 176 198 148 205 137 191
227 241 230 275 287 283 284 295 417 433 404 388 387 378 362 345 314 286 286 265 267 272 296 236 291 278 203 216 203 211 132 146 159 158 149 156 147 151 272 279 206 132 206 147 229 147 286
207 206 215 237 296 264 279 280 272 264 260 262 265 267 272 279 260 254 254 255 247 253 250 226 149 124 131 278 360 233 148 139 156 157 159 150 297 302 139 132 207 131 317 142 291 308 290
214 185 194 213 255 247 244 345 311 267 289 229 226 253 275 270 267 176 273 273 277 273 160 172 151 147 220 149 157 144 145 144 148 144 292 202 169 283 115 280 131 277 261 291 302 300 304
114 204 192 195 207 284 213 330 375 371 367 299 358 344 357 354 354 354 352 178 141 144 189 193 190 162 113 151 140 149 169 142 170 205 275 219 282 298 143 238 126 256 250 197 292 304 300
134 140 184 191 157 192 228 245 269 246 288 290 339 345 323 195 242 365 207 149 243 361 147 148 128 133 156 158 249 234 175 309 273 170 302 173 237 138 288 229 142 269 264 281 278 292 276
252 194 152 182 184 157 198 230 244 154 151 255 277 275 227 246 287 246 178 156 140 142 141 142 173 143 183 274 149 187 141 141 187 309 168 279 200 142 207 158 249 152 274 272 257 268 276
166 133 143 171 185 198 194 186 194 203 238 234 214 230 163 254 226 148 143 164 135 140 134 205 365 165 361 161 158 284 283 276 183 167 176 268 152 259 133 261 204 137 269 261 273 259 254
216 165 192 187 191 194 189 172 178 192 190 209 197 221 245 144 145 142 152 140 142 172 138 135 150 196 170 279 149 230 160 286 212 250 269 185 255 268 176 157 279 245 274 275 268 275 269
202 227 272 184 190 185 203 203 165 195 183 188 203 182 201 135 171 145 129 146 150 141 235 231 212 173 230 156 311 182 212 297 209 221 293 152 218 214 285 230 280 206 286 239 167 145 210
211 216 228 162 181 199 160 216 127 195 193 191 190 204 195 192 141 132 139 130 134 139 143 240 214 245 235 173 172 166 141 249 245 183 266 220 150 270 263 133 258 252 168 135 141 324 309
216 206 198 211 232 274 191 201 194 216 201 200 200 195 159 144 135 130 142 134 151 146 138 142 246 238 189 231 149 157 131 178 178 254 171 245 174 191 187 108 250 164 250 193 247 248 263
200 193 191 190 201 188 280 223 190 204 174 216 211 212 199 191 142 124 129 145 148 140 141 146 201 196 165 171 147 150 192 175 165 172 178 137 196 193 190 236 235 234 213 208 236 254 106
162 187 208 185 216 212 242 172 274 191 172 176 183 211 214 170 133 126 133 198 142 141 163 144 143 174 175 178 200 171 162 176 147 188 228 220 159 229 176 158 164 213 144 195 150 194 180
188 215 179 180 183 205 213 240 214 284 253 206 197 217 214 139 166 125 125 130 136 205 151 148 140 149 181 187 196 215 182 182 214 173 144 179 193 198 197 184 206 135 226 139 146 151 158
167 183 184 201 192 192 216 216 210 233 175 277 227 212 210 125 224 130 128 129 138 131 206 135 138 181 199 200 172 194 194 196 210 177 204 188 199 203 189 187 182 183 168 207 153 209 171
207 178 190 175 180 180 184 204 204 203 225 249 245 223 131 210 186 120 129 132 198 136 174 160 144 201 177 205 206 205 200 195 196 198 194 188 188 193 202 201 183 156 177 150 163 168 164
150 173 175 179 213 177 182 195 188 207 188 150 204 199 181 171 211 190 116 127 183 127 128 175 129 147 129 205 207 201 205 201 202 198 196 196 190 184 184 189 174 190 198 172 173 187 166
208 149 211 172 172 183 202 199 213 203 188 217 153 192 192 182 234 181 193 191 124 208 149 225 132 186 130 209 206 205 203 202 198 203 200 193 192 190 192 195 189 191 171 183 181 186 144

GFSGBSN_2pvu_pres_114.txt.gz
Presure
258 356 426 391 392 399 390 441 404 341 317 269 274 258 239 257 245 244 239 249 229 241 250 242 202 252 246 255 233 272 267 275 296 249 131 149 139 140 128 170 152 128 135 142 123 156 183
255 434 392 387 380 365 379 367 371 395 345 320 266 256 268 269 236 260 254 252 253 245 257 252 221 251 267 261 264 261 289 278 287 280 133 130 143 164 87 141 144 144 127 133 155 162 148
273 422 402 380 388 379 373 385 375 382 381 388 323 269 280 270 239 270 295 279 252 267 190 252 264 269 273 263 265 274 291 291 254 288 153 155 145 144 130 132 137 181 139 140 142 137 150
266 457 421 407 405 413 407 402 403 389 390 379 438 361 303 269 264 234 230 241 273 264 269 265 270 274 268 274 287 286 291 242 283 284 137 271 149 148 154 164 138 139 126 126 137 149 143
276 349 470 446 427 422 421 409 397 375 377 369 387 422 420 331 268 257 264 263 276 264 271 273 266 271 282 289 289 218 204 285 279 170 132 129 218 144 152 144 173 141 134 146 140 146 137
226 281 443 439 405 411 416 389 371 364 372 373 387 404 408 287 314 303 264 278 275 287 277 281 285 287 288 281 282 285 292 172 188 297 280 142 185 155 148 149 142 155 146 151 153 133 131
201 325 297 425 410 406 409 384 374 363 375 382 372 370 371 363 380 320 277 303 272 295 290 294 293 283 204 289 277 287 283 135 142 142 162 343 132 150 114 125 146 175 133 144 136 133 128
193 231 307 365 414 403 389 384 374 377 392 394 361 364 365 355 369 335 322 294 309 305 298 307 274 296 291 275 283 284 274 305 326 343 318 269 151 194 300 229 132 129 134 132 135 110 118
183 191 349 302 290 436 409 401 409 394 414 373 371 368 346 339 349 355 326 335 312 319 310 300 298 299 299 288 295 297 241 144 313 235 219 282 274 368 177 128 142 131 135 100 138 140 147
246 232 290 361 322 285 467 428 415 410 401 360 358 357 370 350 350 353 348 347 340 320 315 306 311 331 319 317 319 318 286 301 196 302 337 151 138 128 301 133 135 327 171 143 153 154 155
196 237 221 215 371 340 320 283 295 423 392 365 357 353 348 348 362 367 364 365 371 377 366 352 320 271 318 306 288 284 256 255 157 181 126 125 123 134 137 142 143 134 151 149 149 155 160
203 201 231 212 277 325 360 331 314 291 267 268 308 320 328 331 330 317 312 310 305 302 279 292 307 264 284 264 214 115 122 122 127 131 142 295 193 219 154 152 159 159 159 162 167 156 164
120 194 171 232 225 237 309 347 368 343 320 311 300 282 287 279 261 256 277 294 267 278 265 262 259 285 173 324 213 122 158 240 140 161 225 174 150 155 156 157 152 127 193 178 240 134 253
133 206 164 198 212 245 202 98 190 328 296 375 365 351 348 353 297 296 292 281 331 337 224 177 141 112 117 341 162 157 160 202 161 133 148 157 161 155 160 302 222 144 123 128 129 307 144
124 94 153 155 200 201 245 165 178 240 271 198 199 207 359 359 181 188 279 314 166 117 150 218 213 216 161 158 149 142 155 151 141 165 174 194 248 299 177 165 189 123 192 148 294 167 305
131 178 210 211 127 192 167 151 179 197 176 193 185 190 265 235 243 254 182 170 364 370 143 139 145 141 152 151 146 215 244 242 247 172 222 273 281 258 274 208 135 137 147 208 280 287 298
204 214 252 195 157 194 191 188 207 234 201 187 193 200 170 259 263 341 193 135 136 139 131 119 139 142 155 228 178 200 254 280 205 213 189 183 290 244 149 152 247 229 159 272 269 260 271
219 155 284 122 207 206 173 199 192 209 194 193 181 187 234 138 126 126 133 143 134 185 163 158 159 242 296 271 153 187 258 164 288 171 262 197 277 274 146 272 174 268 241 275 276 262 265
182 184 212 275 267 210 212 170 150 184 192 189 193 177 134 160 148 139 151 212 168 132 140 141 194 254 288 213 149 277 288 184 298 194 174 177 210 292 287 285 285 136 242 141 268 268 268
172 172 194 213 216 211 211 180 211 212 179 182 178 141 153 144 135 135 136 155 190 212 284 176 234 253 151 192 185 255 156 230 233 283 169 163 196 184 165 233 328 233 196 227 272 271 195
184 187 182 201 204 213 230 285 221 213 178 211 171 205 132 143 133 143 143 137 139 185 193 261 250 150 188 223 212 188 143 175 204 162 227 213 244 216 232 251 188 257 278 270 173 137 203
165 168 189 173 185 209 221 223 176 243 136 215 227 227 134 142 140 132 132 136 135 138 185 243 219 193 186 204 181 203 141 179 175 243 157 176 245 226 166 164 148 162 158 208 239 248 226
167 168 165 191 175 181 188 199 220 224 222 173 219 142 163 133 133 135 173 146 145 137 131 141 232 210 172 129 142 163 182 180 213 164 123 149 200 214 159 160 208 154 246 239 208 162 231
192 171 166 163 197 204 191 188 207 219 225 191 183 218 203 171 123 132 137 209 139 141 137 140 138 150 170 190 216 221 216 205 168 197 205 186 192 200 211 197 187 161 187 140 171 152 136
161 152 179 172 159 179 194 183 205 194 197 212 218 193 242 241 145 118 128 133 136 138 141 140 134 165 182 210 188 192 191 173 208 153 208 208 194 186 212 193 204 202 169 163 191 159 163
178 191 162 165 206 162 180 186 175 186 192 195 199 212 274 133 231 179 141 122 150 140 142 132 157 133 193 188 197 199 200 208 204 183 215 190 202 190 172 204 189 203 166 168 169 168 133
153 171 178 180 189 185 180 159 192 194 180 184 185 204 193 135 207 241 229 205 127 158 203 129 184 132 194 133 141 203 204 198 200 193 158 198 189 191 144 178 182 188 201 179 179 197 159
181 178 175 163 149 173 204 182 164 207 195 183 183 206 211 212 238 136 198 165 188 203 179 208 127 230 148 185 207 201 204 201 201 199 201 197 192 189 193 190 178 170 178 191 176 181 195
171 174 186 174 195 175 193 205 177 179 201 192 195 224 204 127 198 228 285 240 211 195 174 199 185 220 222 229 234 227 218 214 209 205 201 200 199 198 194 192 195 182 186 189 180 189 189

GFSGBSN_2pvu_pres_117.txt.gz
Presure
380 224 272 420 393 392 375 363 367 391 378 360 356 330 252 265 209 243 234 239 236 186 220 225 204 235 228 223 235 244 259 242 259 238 258 216 291 233 147 146 145 137 141 157 166 161 155
382 323 447 424 400 395 390 372 370 370 371 398 341 353 332 231 243 257 244 236 238 244 238 234 221 241 232 226 224 238 253 261 265 260 274 197 285 209 204 155 148 140 155 156 169 167 165
386 325 448 415 417 422 410 402 383 357 358 371 372 348 339 266 264 246 259 210 250 248 237 244 232 237 226 242 235 240 251 247 272 272 278 265 287 295 155 154 181 134 152 119 245 139 158
282 344 444 427 418 411 423 422 404 377 376 367 379 391 348 282 268 249 247 253 245 256 254 246 251 243 250 244 256 239 204 267 270 277 293 286 276 280 183 135 152 151 129 162 131 144 136
263 314 419 427 439 407 389 375 394 384 377 377 393 384 415 330 269 270 260 256 254 255 248 253 249 254 261 260 262 267 267 276 268 283 292 274 126 303 140 147 139 108 139 132 147 151 141
270 286 338 440 429 395 394 363 367 362 359 367 378 399 435 252 317 304 274 265 256 254 249 255 265 272 285 281 280 278 283 284 291 294 297 309 302 134 161 240 134 140 126 136 146 133 133
187 255 277 326 431 429 391 390 391 396 367 368 393 410 408 399 333 282 282 264 272 270 217 271 238 251 258 267 291 281 286 295 301 315 306 304 304 305 149 149 144 344 159 158 136 143 124
235 258 264 269 262 387 428 424 390 388 368 360 357 369 361 343 380 305 275 278 263 266 252 257 256 255 283 297 294 299 304 305 314 293 302 301 313 164 177 167 218 128 153 151 159 173 150
225 237 233 252 288 357 315 388 391 360 349 361 345 341 362 359 368 342 317 325 275 248 281 300 277 237 292 299 306 316 314 302 298 313 147 324 302 178 137 144 279 253 124 146 172 140 156
206 196 229 200 247 103 357 337 291 381 359 354 335 327 328 355 361 367 329 337 308 322 315 311 310 313 311 320 310 306 321 340 305 143 151 335 280 350 155 154 207 157 197 139 135 137 131
213 171 218 183 187 262 102 253 342 324 276 358 367 340 317 336 347 350 331 334 333 337 332 315 330 332 318 315 335 308 281 281 369 385 371 136 225 343 343 243 328 154 128 120 126 138 141
205 208 187 125 178 127 254 255 301 385 342 319 306 288 318 333 365 376 377 375 376 387 367 372 355 342 326 288 266 296 364 371 270 218 346 283 162 265 126 132 209 133 140 146 167 158 152
217 252 192 200 184 202 198 197 215 280 393 305 365 342 322 308 293 283 255 276 280 282 271 258 269 282 290 291 375 344 327 303 240 300 197 125 127 129 131 162 153 150 156 159 157 158 161
207 217 262 204 171 172 174 185 189 192 240 309 382 307 364 360 353 278 350 337 305 329 348 345 360 361 331 211 220 285 273 124 129 129 158 155 151 144 148 160 158 150 152 168 193 127 179
208 122 193 202 205 177 192 218 190 140 225 178 188 279 351 367 334 142 150 332 185 198 192 141 126 146 173 157 156 158 182 153 151 146 137 154 159 173 164 286 292 201 206 132 174 123 287
186 184 196 247 218 206 218 208 205 195 185 200 197 175 150 163 294 278 164 276 174 220 282 146 149 151 150 146 145 183 195 218 248 277 259 172 209 276 235 265 273 171 239 159 276 209 272
198 199 189 207 145 271 223 228 195 177 164 211 162 182 211 144 153 144 132 142 138 133 142 304 152 152 255 157 212 156 174 249 218 278 285 276 281 262 281 258 185 280 147 178 131 112 245
157 193 201 204 206 209 176 265 127 223 201 135 135 144 137 142 135 203 135 183 313 160 297 160 166 182 269 158 168 170 274 283 290 290 293 162 223 274 163 272 156 129 264 198 212 154 284
160 175 174 186 190 188 200 150 172 170 161 134 134 149 128 134 128 144 183 191 147 139 152 183 153 170 267 293 149 140 295 203 213 247 174 159 281 345 286 180 279 276 265 244 278 281 280
175 150 190 163 168 204 188 199 202 179 235 135 149 129 131 134 139 134 133 205 240 246 176 175 175 228 201 218 236 216 150 243 224 200 244 178 234 204 202 196 177 252 263 204 165 282 281
166 163 156 185 193 173 200 190 197 219 133 136 226 138 127 124 138 125 130 137 198 234 168 171 208 193 224 183 170 174 180 232 229 174 173 231 137 173 166 202 173 149 236 236 202 294 295
157 182 172 172 170 192 162 184 194 166 176 199 133 128 135 136 127 126 145 139 136 135 208 208 179 205 177 227 242 184 137 160 231 150 177 199 239 166 152 187 157 225 238 188 138 165 250
186 163 185 190 181 168 191 166 165 195 206 203 198 178 132 137 133 168 139 138 139 132 175 137 179 180 180 167 135 136 216 228 230 222 214 154 213 192 222 228 171 169 221 164 159 156 165
184 166 155 170 194 171 162 195 172 162 183 181 209 188 171 131 124 133 146 222 128 127 124 166 130 129 173 194 193 126 158 141 138 166 204 194 187 184 200 203 210 176 193 153 159 221 190
157 191 176 159 163 182 188 188 183 185 169 198 215 174 206 202 187 129 132 155 134 139 135 146 153 200 198 192 177 188 210 195 191 175 180 149 195 189 176 196 204 188 198 165 163 151 148
176 167 179 188 173 147 194 189 156 191 202 173 180 175 187 199 211 165 208 254 179 133 137 219 131 132 133 200 203 198 202 199 166 200 203 146 196 184 203 195 186 179 196 202 194 185 206
173 153 181 166 173 184 162 178 174 168 166 208 197 183 166 188 185 202 203 116 164 227 207 212 145 134 133 134 195 212 206 174 200 196 159 199 197 193 196 193 187 184 208 201 200 168 180
179 182 166 178 155 161 181 188 162 180 192 154 180 182 180 190 188 193 182 233 232 301 225 244 230 230 129 133 223 136 221 226 192 216 209 199 183 196 166 194 193 197 195 186 189 182 192
179 169 160 172 182 173 155 171 183 151 167 194 167 160 201 172 185 215 195 214 177 235 202 131 157 230 230 230 204 132 221 229 227 221 223 225 227 232 157 228 203 197 196 189 179 186 182

GFSGBSN_2pvu_pres_120.txt.gz
Presure
402 455 431 420 420 399 384 382 379 368 372 391 384 271 260 238 233 246 261 233 243 215 173 188 205 222 209 182 210 230 224 236 246 255 249 249 254 169 193 140 150 161 147 152 132 159 139
283 460 448 434 424 412 414 387 374 360 365 388 415 361 298 239 245 232 227 224 232 246 244 216 207 187 206 216 225 183 228 230 243 252 255 265 268 273 159 196 193 136 181 133 130 153 152
272 453 439 421 391 412 435 417 387 366 372 373 350 365 358 271 237 229 238 259 233 209 254 241 238 216 211 167 165 238 229 228 223 244 248 239 260 265 278 284 290 277 166 138 145 140 153
254 276 420 428 405 395 391 420 395 385 365 365 355 368 372 351 347 319 241 246 240 215 223 246 241 234 226 177 172 246 227 219 244 223 233 239 237 249 273 270 211 170 293 136 174 156 149
228 259 241 403 441 406 390 387 389 390 373 366 357 362 378 338 346 346 248 243 240 238 236 247 243 237 237 176 247 245 222 259 247 256 254 252 267 269 266 275 291 295 240 257 317 234 152
197 237 255 240 387 368 403 394 384 375 379 382 387 399 401 333 326 325 261 247 238 226 255 259 259 242 247 246 246 254 258 262 260 267 267 269 275 281 281 293 301 277 306 142 166 209 146
176 228 247 247 356 391 362 370 393 376 384 397 413 381 360 318 318 311 305 235 221 231 246 261 265 256 269 260 264 263 253 265 270 269 270 274 281 296 298 313 322 162 323 327 158 133 158
184 243 217 213 258 360 366 362 357 371 374 372 363 355 352 317 323 312 320 296 284 242 261 268 246 262 273 267 269 256 267 274 279 274 274 311 319 326 336 323 320 326 136 135 233 119 142
174 191 201 191 171 253 322 361 334 358 361 347 360 349 364 321 323 326 318 305 284 275 259 263 258 267 273 269 272 267 249 258 287 341 349 353 343 340 353 358 328 368 407 142 162 126 148
167 231 181 184 94 237 256 315 351 337 360 350 360 348 382 320 317 328 325 318 306 268 253 270 271 240 240 245 261 257 327 345 358 354 320 316 338 402 370 393 354 148 144 137 207 147 151
228 172 173 243 192 221 238 249 305 364 349 325 359 343 362 334 326 321 323 262 256 265 258 256 256 266 328 330 347 351 335 290 359 402 393 366 349 350 346 337 241 309 138 150 356 125 145
214 174 167 172 266 168 200 215 226 263 358 359 333 309 270 365 343 340 348 351 352 345 339 325 343 347 356 355 303 318 379 362 299 317 255 223 203 214 248 230 177 129 277 147 305 219 222
215 187 199 211 124 213 180 189 199 183 207 403 390 368 350 326 306 313 342 383 384 388 382 379 339 286 294 339 333 311 309 308 301 303 289 307 310 296 125 302 274 279 210 194 150 133 130
181 161 190 185 208 203 179 219 242 218 219 224 216 363 394 382 351 316 328 321 315 316 308 316 314 378 341 311 303 299 296 289 231 290 288 288 297 295 304 279 129 130 135 174 131 136 144
173 181 157 213 214 201 199 253 188 139 167 182 171 169 161 310 400 285 385 380 336 334 340 165 299 185 184 182 155 155 185 188 277 170 156 120 125 126 127 130 133 156 163 156 152 150 192
185 163 193 168 192 221 197 173 170 198 158 177 160 158 139 159 146 410 165 159 155 188 141 145 144 146 142 129 117 150 152 155 154 203 208 150 158 204 273 225 280 260 273 278 273 169 211
191 187 171 196 189 192 179 183 202 185 177 138 137 140 132 136 136 135 137 145 260 149 252 227 113 266 186 156 167 176 279 279 277 285 275 280 281 276 209 250 247 202 270 181 213 242 127
179 204 193 187 197 183 150 205 143 132 144 135 138 138 132 121 139 184 202 250 181 313 291 161 160 171 178 258 149 294 303 307 306 296 274 283 285 192 174 280 225 270 279 207 241 287 244
190 156 197 176 176 160 190 154 205 135 135 122 154 164 218 211 196 191 196 184 203 169 236 233 154 172 172 224 142 206 173 222 192 253 165 159 166 183 268 223 204 177 161 279 281 267 280
174 190 158 178 184 198 182 175 146 135 142 129 142 156 227 138 126 132 164 179 210 196 167 190 243 171 147 211 221 238 200 148 172 198 183 169 239 198 198 220 241 266 207 148 134 270 209
180 182 171 159 155 189 197 192 178 142 129 130 127 133 134 126 129 134 129 134 208 191 214 185 150 174 198 146 156 143 144 140 138 239 234 239 174 162 188 181 203 231 245 238 266 300 129
152 153 181 189 179 179 183 192 166 145 187 147 129 132 132 132 130 141 135 116 131 121 190 214 191 200 201 192 133 134 134 185 203 214 215 229 123 225 169 169 155 236 169 154 201 160 239
181 170 145 165 185 178 171 173 135 188 179 176 187 126 137 135 138 160 139 139 138 135 166 156 161 167 154 200 174 207 133 128 149 138 209 214 169 180 206 206 216 217 164 221 207 158 159
169 169 182 148 180 171 185 183 179 171 192 183 189 217 173 126 130 129 133 133 138 170 129 128 130 200 167 164 198 208 204 181 196 164 192 187 201 203 210 209 200 179 211 190 170 161 166
173 168 163 187 168 162 161 180 186 198 175 189 180 199 172 152 157 125 136 132 160 250 128 132 127 127 138 231 175 204 210 199 198 204 207 197 195 195 191 193 204 184 200 202 210 203 197
158 163 161 175 173 174 154 170 167 183 157 185 178 197 168 165 178 195 177 131 199 170 129 135 137 246 134 131 205 229 229 227 214 206 193 207 205 198 197 204 198 184 196 206 190 201 197
172 147 183 179 167 165 160 172 172 165 189 191 171 195 190 190 211 166 204 127 166 190 141 219 266 227 197 134 142 128 132 134 225 224 225 219 216 206 203 200 199 198 195 199 199 188 185
169 179 150 146 179 164 186 181 178 173 190 171 181 184 174 186 201 193 210 156 199 178 162 121 169 142 155 271 258 213 194 193 187 201 216 230 227 225 238 233 234 232 219 201 207 199 196
171 171 168 179 151 150 157 179 169 164 157 180 162 178 186 191 190 177 199 201 187 168 192 172 191 187 194 198 199 256 255 235 241 234 236 165 207 211 232 238 233 236 240 203 238 234 236

GFSGBSN_2pvu_pres_123.txt.gz
Presure
256 383 410 425 437 448 414 399 387 386 385 386 381 317 316 239 253 243 246 209 254 242 233 222 222 210 189 207 231 232 202 233 237 243 217 182 229 230 199 192 184 135 176 141 145 115 110
242 338 359 399 418 445 418 382 381 363 367 384 361 371 369 268 260 250 255 240 260 250 241 239 226 228 215 204 223 217 229 237 213 233 249 227 220 270 258 171 193 173 135 142 177 143 127
222 272 367 376 399 417 414 389 362 363 361 376 377 380 296 333 327 262 257 244 235 260 251 237 242 152 160 187 185 224 234 219 207 242 236 238 236 242 259 264 271 273 192 216 197 197 123
230 147 265 370 371 398 398 403 377 359 347 353 376 373 371 305 259 262 242 241 250 244 254 253 245 244 232 225 218 220 215 216 239 238 179 191 236 246 258 260 261 256 254 254 148 282 152
225 212 241 363 365 362 406 382 392 363 362 355 356 394 363 367 274 252 246 254 231 241 243 238 246 246 242 248 240 232 243 220 214 227 221 246 202 237 239 241 248 260 260 257 183 215 206
200 253 216 231 360 352 367 438 398 417 386 370 347 337 340 348 353 263 263 207 251 253 247 221 240 255 249 249 250 249 242 227 230 197 235 236 254 250 252 261 280 269 273 286 295 303 263
162 186 266 210 260 353 355 362 377 381 432 231 311 321 328 328 324 308 256 254 245 223 201 233 223 243 213 216 258 261 262 256 257 253 250 256 261 265 269 276 280 291 292 292 295 302 334
184 174 209 188 206 235 356 373 353 372 390 336 311 313 329 318 320 313 263 259 255 239 238 235 233 236 247 236 246 269 271 264 268 271 274 272 268 278 276 273 283 287 305 355 360 350 343
183 192 188 230 196 218 260 361 374 357 331 321 336 317 342 320 323 308 300 263 254 250 246 226 243 247 238 268 245 241 250 260 270 279 280 273 266 260 272 291 371 401 383 360 379 386 364
207 165 212 232 146 184 193 248 365 391 335 324 321 325 344 351 319 327 313 326 319 308 258 265 248 232 254 252 256 271 252 246 255 279 260 274 285 355 375 362 378 361 360 355 364 387 359
169 204 185 194 227 226 186 219 240 356 347 342 331 342 325 326 343 310 326 184 331 277 295 228 249 255 258 246 235 249 252 266 275 292 391 371 366 356 350 347 349 350 330 333 329 140 154
183 172 206 168 214 172 191 172 210 233 353 375 374 320 330 335 335 331 337 323 314 311 310 285 289 277 275 277 271 275 303 353 335 339 294 335 331 332 324 319 292 311 302 249 262 147 154
175 165 196 203 207 175 185 221 193 169 211 297 366 317 338 310 322 359 354 360 357 343 358 340 280 315 313 364 338 328 318 304 313 325 332 323 263 300 302 304 295 292 297 286 289 223 288
170 195 180 197 199 175 155 146 148 146 198 205 232 394 381 361 352 333 286 372 341 377 340 328 367 330 321 310 308 301 300 302 306 292 320 296 254 289 289 282 287 279 160 267 177 133 191
176 195 201 162 194 180 170 168 91 234 156 191 149 186 188 145 143 150 152 374 384 375 177 155 164 214 172 304 283 178 179 237 258 287 193 190 167 267 237 268 144 138 280 281 292 291 188
178 193 180 164 159 181 182 180 115 141 141 135 146 148 142 140 139 137 134 140 257 182 148 148 148 185 148 150 229 153 286 208 225 278 226 205 155 155 156 155 155 158 147 132 138 150 137
139 168 185 179 196 199 142 140 136 136 163 131 171 194 177 221 208 211 238 226 241 167 231 151 142 176 191 117 122 175 137 248 286 241 231 129 225 261 227 259 173 136 152 193 139 269 240
176 162 186 186 173 194 209 125 139 127 136 141 157 127 285 266 133 161 153 158 178 158 212 159 159 159 145 147 186 256 262 260 251 257 258 255 168 173 158 287 286 277 288 266 272 172 158
165 185 177 178 191 189 147 145 131 144 130 129 134 154 142 150 289 126 216 211 194 173 183 166 206 154 157 217 166 164 189 243 215 199 168 222 165 241 249 256 218 288 285 188 256 284 176
172 161 184 165 174 178 192 172 140 142 173 124 137 187 131 125 141 141 283 180 224 201 198 205 169 168 142 211 166 166 137 163 232 182 210 236 235 147 238 198 244 244 202 283 214 215 272
161 163 175 177 169 161 175 188 195 165 155 150 127 131 135 130 131 168 134 135 155 167 215 216 150 207 180 206 189 142 188 194 180 211 221 195 184 168 164 161 173 220 226 217 165 250 269
151 156 175 145 165 185 148 171 179 192 137 191 151 134 131 132 135 131 138 133 131 131 274 247 227 223 206 198 143 196 195 143 187 154 204 181 152 184 123 172 167 159 208 169 209 200 163
172 182 173 182 151 168 177 173 172 187 193 195 168 191 197 137 135 204 177 138 141 134 127 140 229 137 237 160 215 149 207 205 159 202 204 186 196 209 195 207 204 183 178 177 170 157 169
149 145 172 160 163 178 181 166 173 193 178 187 172 188 169 168 188 133 122 133 172 137 134 163 128 204 211 225 155 136 141 172 157 150 145 195 199 195 198 197 211 218 212 213 196 182 192
170 181 162 168 157 142 177 157 164 173 181 179 177 185 194 189 192 179 202 125 201 133 219 205 140 133 133 206 273 262 248 231 224 233 230 222 227 213 208 209 205 196 199 201 195 206 201
148 161 165 178 174 166 173 177 180 179 159 171 177 195 187 198 188 200 188 197 175 215 130 181 171 126 126 134 129 132 151 127 192 231 129 201 149 235 232 232 235 242 238 213 206 201 174
135 175 148 175 185 173 171 180 165 155 180 185 175 175 177 187 188 187 191 198 164 162 122 178 193 192 118 230 238 168 140 219 133 128 126 135 187 209 214 220 230 238 237 240 236 242 241
174 168 163 182 173 176 159 179 161 173 161 176 169 174 178 176 183 181 193 192 199 187 175 197 190 201 172 195 170 218 195 208 232 207 256 254 241 235 231 210 211 229 223 232 237 239 233
171 154 176 156 186 178 183 166 160 169 163 188 161 190 165 169 188 178 184 185 187 190 164 205 160 206 181 134 228 198 230 190 197 308 290 270 256 245 246 245 233 221 210 212 213 219 237

GFSGBSN_2pvu_pres_126.txt.gz
Presure
244 309 397 390 406 399 398 403 392 358 357 368 358 336 334 361 230 231 250 203 215 212 226 211 231 237 231 213 213 204 213 216 239 243 218 222 216 189 194 144 198 196 210 175 132 139 135
188 254 399 375 415 403 378 372 374 382 400 384 378 380 257 353 275 265 231 224 239 240 234 244 238 240 229 230 209 222 204 211 235 231 240 239 226 214 166 213 130 163 190 214 184 128 113
287 241 294 380 384 405 389 358 356 375 367 361 388 371 397 300 337 278 267 191 220 212 240 251 257 250 143 224 184 161 228 233 222 240 232 238 244 240 232 224 247 225 144 160 199 194 110
241 235 244 380 386 394 398 374 355 361 377 361 366 338 386 323 339 325 245 236 250 199 245 238 253 254 245 235 233 170 229 216 224 227 204 241 252 250 250 254 237 212 231 224 138 229 205
204 213 238 253 405 412 439 368 347 367 378 380 356 381 371 376 280 192 247 252 249 245 246 237 223 266 253 246 244 234 223 233 204 223 213 211 224 240 240 258 268 272 250 243 265 244 276
157 188 179 242 256 346 348 338 355 328 342 346 342 352 368 329 271 334 308 277 231 233 233 220 231 255 254 242 242 242 237 228 231 244 195 218 212 229 199 231 238 245 246 252 264 199 295
180 163 193 167 240 303 335 325 312 356 327 328 326 349 348 366 266 325 333 270 249 249 264 250 238 244 254 255 250 246 242 235 245 244 242 246 243 248 254 262 259 245 205 267 274 280 284
177 218 175 197 220 232 345 341 333 354 341 330 326 340 341 355 284 285 316 321 262 254 252 202 254 220 210 259 252 255 257 242 238 228 261 265 271 270 267 275 275 276 281 141 283 283 289
199 177 206 191 211 209 230 344 342 338 340 322 320 319 334 322 294 285 294 290 274 270 256 252 255 259 225 236 234 242 248 230 253 256 232 236 249 263 265 270 278 279 288 307 315 361 382
197 189 163 182 160 276 220 228 365 332 326 331 333 321 319 316 304 283 267 266 300 252 250 245 238 236 245 248 221 250 239 235 226 250 246 262 267 277 285 299 300 359 388 396 381 365 351
194 182 166 164 205 145 165 232 235 339 328 331 333 326 333 328 319 342 279 268 270 276 278 249 253 247 228 261 229 229 233 231 245 261 276 255 269 303 378 364 350 336 339 332 326 339 350
190 198 125 154 136 160 216 144 242 178 272 342 322 327 356 342 328 326 336 338 270 249 250 229 232 237 223 227 230 241 248 254 265 284 319 353 356 349 322 324 315 311 305 306 305 308 316
200 189 184 179 161 160 143 141 143 152 232 157 163 220 334 378 372 358 334 342 335 336 334 321 299 266 277 257 272 270 300 303 336 340 342 332 319 312 311 306 292 289 289 307 300 294 264
186 174 161 188 213 174 134 138 141 207 154 153 220 229 182 153 211 192 370 379 388 399 355 343 341 326 340 338 334 333 330 336 323 317 313 298 279 265 279 273 260 262 270 271 226 262 138
176 177 184 205 187 172 134 97 215 165 135 132 136 234 162 214 248 163 357 177 150 152 152 330 330 320 312 313 300 309 327 300 290 273 272 277 267 255 244 260 238 264 265 253 274 255 268
161 179 189 170 184 150 180 167 128 213 193 229 169 195 147 171 136 136 156 187 138 150 164 212 147 218 150 162 156 235 155 261 256 212 237 162 200 158 277 161 223 209 216 271 212 252 264
164 181 152 190 147 174 134 148 151 152 144 187 143 157 181 161 163 173 201 178 176 163 167 161 247 228 168 251 263 262 222 257 253 250 223 246 199 243 139 242 283 239 240 159 227 164 132
177 182 157 156 180 172 128 132 147 193 132 135 117 130 225 229 183 277 188 149 167 200 213 197 150 154 211 192 168 244 167 231 232 236 238 243 241 247 174 166 279 272 277 290 262 261 264
174 184 166 172 156 174 188 142 181 131 138 133 134 180 131 187 156 205 220 182 262 241 217 193 197 159 174 152 155 198 209 174 165 166 213 214 186 178 225 230 240 302 277 284 270 272 275
182 153 174 166 170 182 171 181 196 141 128 131 137 130 127 132 138 133 169 193 222 214 268 251 232 146 182 159 191 191 165 196 201 192 199 205 208 195 171 159 191 226 224 234 260 214 205
161 178 177 156 165 167 141 171 160 181 189 175 170 131 134 120 129 131 132 133 140 140 288 208 277 264 246 141 177 141 179 184 188 155 201 169 178 186 174 167 185 201 196 187 215 158 225
144 187 153 169 191 179 162 183 184 162 202 171 193 195 150 130 132 136 189 143 134 132 132 134 128 248 228 271 257 243 228 217 203 188 198 134 201 201 192 203 174 166 211 184 178 206 176
172 157 183 178 179 162 181 181 178 184 175 184 183 187 165 190 194 179 134 135 131 194 138 137 133 131 142 208 140 142 149 137 234 155 235 157 214 209 210 202 208 209 217 209 198 170 172
144 154 169 174 159 174 170 182 173 165 171 178 177 181 164 184 176 193 177 154 160 130 134 167 177 139 133 171 143 268 133 210 262 255 246 230 224 236 236 237 242 231 229 204 208 215 213
140 143 152 172 147 176 162 182 173 180 190 178 170 179 183 190 186 191 156 205 183 207 187 188 126 182 192 172 133 131 139 140 133 135 133 135 136 153 214 217 234 235 244 246 244 251 243
155 132 168 169 155 172 171 171 177 180 174 161 146 168 180 186 178 188 194 198 183 189 202 176 178 125 160 203 205 127 124 124 199 233 133 147 127 255 140 246 237 213 233 231 238 244 241
140 164 145 150 162 170 153 180 169 179 152 182 169 168 188 181 183 187 180 189 180 191 194 159 188 205 206 195 166 180 222 122 213 238 233 206 283 260 262 255 252 247 245 229 221 220 223
129 154 141 173 157 163 139 160 156 158 165 166 184 167 163 189 176 173 179 188 188 187 186 192 187 195 199 174 186 160 202 193 196 187 167 245 210 233 137 249 225 264 213 243 223 248 239
159 149 147 169 125 166 134 153 171 161 174 170 183 182 173 176 167 172 180 174 189 190 175 179 191 185 156 195 162 178 195 208 198 202 179 200 189 228 191 237 162 289 283 268 265 254 253